<?xml version="1.0" encoding="UTF-8" standalone="no" ?>
<gpx xmlns="http://www.topografix.com/GPX/1/1" xmlns:xsi="http://www.w3.org/2001/XMLSchema-instance" xsi:schemaLocation="http://www.topografix.com/GPX/1/1 http://www.topografix.com/GPX/1/1/gpx.xsd" version="1.1" creator="VisuGPX - https://www.visugpx.com">
  <metadata>
    <name>Chevauchée de Murat</name>
    <desc><![CDATA[Boucle  endurance avril 2016 à envisager en randonnée .]]></desc>
  </metadata>
  <trk>
    <name><![CDATA[OR-5744846--Labastide-Murat:LA CHEVAUCHEE DE MURAT]]></name>
    <trkseg>
      <trkpt lat="44.64344" lon="1.56452">
        <ele>434</ele>
        <time>2016-12-22T16:18:22Z</time>
      </trkpt>
      <trkpt lat="44.64382" lon="1.56562">
        <ele>434</ele>
        <time>2016-12-22T16:20:22Z</time>
      </trkpt>
      <trkpt lat="44.64501" lon="1.56691">
        <ele>440</ele>
        <time>2016-12-22T16:22:22Z</time>
      </trkpt>
      <trkpt lat="44.64645" lon="1.56818">
        <ele>449</ele>
        <time>2016-12-22T16:24:22Z</time>
      </trkpt>
      <trkpt lat="44.64701" lon="1.56842">
        <ele>448</ele>
        <time>2016-12-22T16:26:22Z</time>
      </trkpt>
      <trkpt lat="44.64751" lon="1.56828">
        <ele>447</ele>
        <time>2016-12-22T16:28:22Z</time>
      </trkpt>
      <trkpt lat="44.64798" lon="1.56818">
        <ele>447</ele>
        <time>2016-12-22T16:30:22Z</time>
      </trkpt>
      <trkpt lat="44.64868" lon="1.56776">
        <ele>446</ele>
        <time>2016-12-22T16:32:22Z</time>
      </trkpt>
      <trkpt lat="44.64913" lon="1.56755">
        <ele>445</ele>
        <time>2016-12-22T16:34:22Z</time>
      </trkpt>
      <trkpt lat="44.64968" lon="1.5675">
        <ele>440</ele>
        <time>2016-12-22T16:36:22Z</time>
      </trkpt>
      <trkpt lat="44.65108" lon="1.56779">
        <ele>424</ele>
        <time>2016-12-22T16:38:22Z</time>
      </trkpt>
      <trkpt lat="44.65211" lon="1.56833">
        <ele>418</ele>
        <time>2016-12-22T16:40:22Z</time>
      </trkpt>
      <trkpt lat="44.65297" lon="1.56838">
        <ele>417</ele>
        <time>2016-12-22T16:42:22Z</time>
      </trkpt>
      <trkpt lat="44.6536" lon="1.56881">
        <ele>415</ele>
        <time>2016-12-22T16:44:22Z</time>
      </trkpt>
      <trkpt lat="44.65403" lon="1.56953">
        <ele>411</ele>
        <time>2016-12-22T16:46:22Z</time>
      </trkpt>
      <trkpt lat="44.65439" lon="1.57009">
        <ele>407</ele>
        <time>2016-12-22T16:48:22Z</time>
      </trkpt>
      <trkpt lat="44.65458" lon="1.57091">
        <ele>405</ele>
        <time>2016-12-22T16:50:22Z</time>
      </trkpt>
      <trkpt lat="44.65492" lon="1.57122">
        <ele>405</ele>
        <time>2016-12-22T16:52:22Z</time>
      </trkpt>
      <trkpt lat="44.65539" lon="1.57077">
        <ele>402</ele>
        <time>2016-12-22T16:54:22Z</time>
      </trkpt>
      <trkpt lat="44.65586" lon="1.57067">
        <ele>401</ele>
        <time>2016-12-22T16:56:22Z</time>
      </trkpt>
      <trkpt lat="44.6564" lon="1.57101">
        <ele>402</ele>
        <time>2016-12-22T16:58:22Z</time>
      </trkpt>
      <trkpt lat="44.65703" lon="1.57147">
        <ele>401</ele>
        <time>2016-12-22T17:00:22Z</time>
      </trkpt>
      <trkpt lat="44.65755" lon="1.57184">
        <ele>397</ele>
        <time>2016-12-22T17:02:22Z</time>
      </trkpt>
      <trkpt lat="44.65819" lon="1.57265">
        <ele>393</ele>
        <time>2016-12-22T17:04:22Z</time>
      </trkpt>
      <trkpt lat="44.65885" lon="1.57346">
        <ele>390</ele>
        <time>2016-12-22T17:06:22Z</time>
      </trkpt>
      <trkpt lat="44.65903" lon="1.57431">
        <ele>390</ele>
        <time>2016-12-22T17:08:22Z</time>
      </trkpt>
      <trkpt lat="44.65927" lon="1.57557">
        <ele>393</ele>
        <time>2016-12-22T17:10:22Z</time>
      </trkpt>
      <trkpt lat="44.65976" lon="1.57503">
        <ele>390</ele>
        <time>2016-12-22T17:12:22Z</time>
      </trkpt>
      <trkpt lat="44.66012" lon="1.5748">
        <ele>388</ele>
        <time>2016-12-22T17:14:22Z</time>
      </trkpt>
      <trkpt lat="44.66077" lon="1.57517">
        <ele>385</ele>
        <time>2016-12-22T17:16:22Z</time>
      </trkpt>
      <trkpt lat="44.66129" lon="1.57586">
        <ele>385</ele>
        <time>2016-12-22T17:18:22Z</time>
      </trkpt>
      <trkpt lat="44.66186" lon="1.57638">
        <ele>384</ele>
        <time>2016-12-22T17:20:22Z</time>
      </trkpt>
      <trkpt lat="44.66197" lon="1.57594">
        <ele>382</ele>
        <time>2016-12-22T17:22:22Z</time>
      </trkpt>
      <trkpt lat="44.66228" lon="1.57527">
        <ele>383</ele>
        <time>2016-12-22T17:24:22Z</time>
      </trkpt>
      <trkpt lat="44.66273" lon="1.57511">
        <ele>385</ele>
        <time>2016-12-22T17:26:22Z</time>
      </trkpt>
      <trkpt lat="44.66345" lon="1.57513">
        <ele>388</ele>
        <time>2016-12-22T17:28:22Z</time>
      </trkpt>
      <trkpt lat="44.66381" lon="1.57506">
        <ele>390</ele>
        <time>2016-12-22T17:30:22Z</time>
      </trkpt>
      <trkpt lat="44.66432" lon="1.57471">
        <ele>397</ele>
        <time>2016-12-22T17:32:22Z</time>
      </trkpt>
      <trkpt lat="44.66457" lon="1.57461">
        <ele>399</ele>
        <time>2016-12-22T17:34:22Z</time>
      </trkpt>
      <trkpt lat="44.66524" lon="1.57451">
        <ele>403</ele>
        <time>2016-12-22T17:36:22Z</time>
      </trkpt>
      <trkpt lat="44.66578" lon="1.57438">
        <ele>406</ele>
        <time>2016-12-22T17:38:22Z</time>
      </trkpt>
      <trkpt lat="44.66647" lon="1.57393">
        <ele>407</ele>
        <time>2016-12-22T17:40:22Z</time>
      </trkpt>
      <trkpt lat="44.66726" lon="1.57373">
        <ele>405</ele>
        <time>2016-12-22T17:42:22Z</time>
      </trkpt>
      <trkpt lat="44.66832" lon="1.57377">
        <ele>410</ele>
        <time>2016-12-22T17:44:22Z</time>
      </trkpt>
      <trkpt lat="44.66865" lon="1.57383">
        <ele>410</ele>
        <time>2016-12-22T17:46:22Z</time>
      </trkpt>
      <trkpt lat="44.66899" lon="1.57364">
        <ele>411</ele>
        <time>2016-12-22T17:48:22Z</time>
      </trkpt>
      <trkpt lat="44.66958" lon="1.57401">
        <ele>408</ele>
        <time>2016-12-22T17:50:22Z</time>
      </trkpt>
      <trkpt lat="44.67023" lon="1.57428">
        <ele>405</ele>
        <time>2016-12-22T17:52:22Z</time>
      </trkpt>
      <trkpt lat="44.67106" lon="1.57456">
        <ele>404</ele>
        <time>2016-12-22T17:54:22Z</time>
      </trkpt>
      <trkpt lat="44.67151" lon="1.57386">
        <ele>401</ele>
        <time>2016-12-22T17:56:22Z</time>
      </trkpt>
      <trkpt lat="44.67214" lon="1.57334">
        <ele>396</ele>
        <time>2016-12-22T17:58:22Z</time>
      </trkpt>
      <trkpt lat="44.67278" lon="1.57293">
        <ele>392</ele>
        <time>2016-12-22T18:00:22Z</time>
      </trkpt>
      <trkpt lat="44.6735" lon="1.57232">
        <ele>386</ele>
        <time>2016-12-22T18:02:22Z</time>
      </trkpt>
      <trkpt lat="44.67401" lon="1.5719">
        <ele>383</ele>
        <time>2016-12-22T18:04:22Z</time>
      </trkpt>
      <trkpt lat="44.67417" lon="1.57105">
        <ele>377</ele>
        <time>2016-12-22T18:06:22Z</time>
      </trkpt>
      <trkpt lat="44.6743" lon="1.5707">
        <ele>374</ele>
        <time>2016-12-22T18:08:22Z</time>
      </trkpt>
      <trkpt lat="44.67459" lon="1.57038">
        <ele>374</ele>
        <time>2016-12-22T18:10:22Z</time>
      </trkpt>
      <trkpt lat="44.67493" lon="1.57038">
        <ele>376</ele>
        <time>2016-12-22T18:12:22Z</time>
      </trkpt>
      <trkpt lat="44.67549" lon="1.57053">
        <ele>376</ele>
        <time>2016-12-22T18:14:22Z</time>
      </trkpt>
      <trkpt lat="44.67625" lon="1.56998">
        <ele>378</ele>
        <time>2016-12-22T18:16:22Z</time>
      </trkpt>
      <trkpt lat="44.67701" lon="1.56956">
        <ele>378</ele>
        <time>2016-12-22T18:18:22Z</time>
      </trkpt>
      <trkpt lat="44.67775" lon="1.56945">
        <ele>375</ele>
        <time>2016-12-22T18:20:22Z</time>
      </trkpt>
      <trkpt lat="44.67856" lon="1.56948">
        <ele>371</ele>
        <time>2016-12-22T18:22:22Z</time>
      </trkpt>
      <trkpt lat="44.67939" lon="1.56956">
        <ele>368</ele>
        <time>2016-12-22T18:24:22Z</time>
      </trkpt>
      <trkpt lat="44.68014" lon="1.56989">
        <ele>363</ele>
        <time>2016-12-22T18:26:22Z</time>
      </trkpt>
      <trkpt lat="44.68113" lon="1.56979">
        <ele>362</ele>
        <time>2016-12-22T18:28:22Z</time>
      </trkpt>
      <trkpt lat="44.68207" lon="1.56962">
        <ele>360</ele>
        <time>2016-12-22T18:30:22Z</time>
      </trkpt>
      <trkpt lat="44.68301" lon="1.56923">
        <ele>357</ele>
        <time>2016-12-22T18:32:22Z</time>
      </trkpt>
      <trkpt lat="44.68368" lon="1.56865">
        <ele>352</ele>
        <time>2016-12-22T18:34:22Z</time>
      </trkpt>
      <trkpt lat="44.68465" lon="1.56807">
        <ele>348</ele>
        <time>2016-12-22T18:36:22Z</time>
      </trkpt>
      <trkpt lat="44.68525" lon="1.56733">
        <ele>349</ele>
        <time>2016-12-22T18:38:22Z</time>
      </trkpt>
      <trkpt lat="44.68581" lon="1.56726">
        <ele>350</ele>
        <time>2016-12-22T18:40:22Z</time>
      </trkpt>
      <trkpt lat="44.68751" lon="1.56648">
        <ele>332</ele>
        <time>2016-12-22T18:42:22Z</time>
      </trkpt>
      <trkpt lat="44.68692" lon="1.56476">
        <ele>324</ele>
        <time>2016-12-22T18:44:22Z</time>
      </trkpt>
      <trkpt lat="44.68621" lon="1.56376">
        <ele>314</ele>
        <time>2016-12-22T18:46:22Z</time>
      </trkpt>
      <trkpt lat="44.68536" lon="1.56361">
        <ele>313</ele>
        <time>2016-12-22T18:48:22Z</time>
      </trkpt>
      <trkpt lat="44.68594" lon="1.56307">
        <ele>312</ele>
        <time>2016-12-22T18:50:22Z</time>
      </trkpt>
      <trkpt lat="44.68636" lon="1.56269">
        <ele>314</ele>
        <time>2016-12-22T18:52:22Z</time>
      </trkpt>
      <trkpt lat="44.68688" lon="1.56293">
        <ele>314</ele>
        <time>2016-12-22T18:54:22Z</time>
      </trkpt>
      <trkpt lat="44.68774" lon="1.56368">
        <ele>311</ele>
        <time>2016-12-22T18:56:22Z</time>
      </trkpt>
      <trkpt lat="44.68851" lon="1.56398">
        <ele>309</ele>
        <time>2016-12-22T18:58:22Z</time>
      </trkpt>
      <trkpt lat="44.68941" lon="1.56397">
        <ele>308</ele>
        <time>2016-12-22T19:00:22Z</time>
      </trkpt>
      <trkpt lat="44.69015" lon="1.56408">
        <ele>302</ele>
        <time>2016-12-22T19:02:22Z</time>
      </trkpt>
      <trkpt lat="44.6908" lon="1.56392">
        <ele>300</ele>
        <time>2016-12-22T19:04:22Z</time>
      </trkpt>
      <trkpt lat="44.69096" lon="1.56477">
        <ele>301</ele>
        <time>2016-12-22T19:06:22Z</time>
      </trkpt>
      <trkpt lat="44.69173" lon="1.56526">
        <ele>302</ele>
        <time>2016-12-22T19:08:22Z</time>
      </trkpt>
      <trkpt lat="44.69247" lon="1.56437">
        <ele>299</ele>
        <time>2016-12-22T19:10:22Z</time>
      </trkpt>
      <trkpt lat="44.69339" lon="1.56388">
        <ele>295</ele>
        <time>2016-12-22T19:12:22Z</time>
      </trkpt>
      <trkpt lat="44.69406" lon="1.56334">
        <ele>291</ele>
        <time>2016-12-22T19:14:22Z</time>
      </trkpt>
      <trkpt lat="44.69461" lon="1.56264">
        <ele>301</ele>
        <time>2016-12-22T19:16:22Z</time>
      </trkpt>
      <trkpt lat="44.69491" lon="1.56301">
        <ele>306</ele>
        <time>2016-12-22T19:18:22Z</time>
      </trkpt>
      <trkpt lat="44.69558" lon="1.56281">
        <ele>319</ele>
        <time>2016-12-22T19:20:22Z</time>
      </trkpt>
      <trkpt lat="44.69635" lon="1.5634">
        <ele>329</ele>
        <time>2016-12-22T19:22:22Z</time>
      </trkpt>
      <trkpt lat="44.69683" lon="1.56377">
        <ele>334</ele>
        <time>2016-12-22T19:24:22Z</time>
      </trkpt>
      <trkpt lat="44.69752" lon="1.56379">
        <ele>338</ele>
        <time>2016-12-22T19:26:22Z</time>
      </trkpt>
      <trkpt lat="44.69822" lon="1.56407">
        <ele>343</ele>
        <time>2016-12-22T19:28:22Z</time>
      </trkpt>
      <trkpt lat="44.69903" lon="1.56431">
        <ele>347</ele>
        <time>2016-12-22T19:30:22Z</time>
      </trkpt>
      <trkpt lat="44.69962" lon="1.56458">
        <ele>351</ele>
        <time>2016-12-22T19:32:22Z</time>
      </trkpt>
      <trkpt lat="44.70023" lon="1.56464">
        <ele>354</ele>
        <time>2016-12-22T19:34:22Z</time>
      </trkpt>
      <trkpt lat="44.70124" lon="1.56456">
        <ele>356</ele>
        <time>2016-12-22T19:36:22Z</time>
      </trkpt>
      <trkpt lat="44.70164" lon="1.5638">
        <ele>356</ele>
        <time>2016-12-22T19:38:22Z</time>
      </trkpt>
      <trkpt lat="44.70188" lon="1.56291">
        <ele>358</ele>
        <time>2016-12-22T19:40:22Z</time>
      </trkpt>
      <trkpt lat="44.70221" lon="1.56228">
        <ele>361</ele>
        <time>2016-12-22T19:42:22Z</time>
      </trkpt>
      <trkpt lat="44.70217" lon="1.56212">
        <ele>361</ele>
        <time>2016-12-22T19:44:22Z</time>
      </trkpt>
      <trkpt lat="44.70271" lon="1.56215">
        <ele>364</ele>
        <time>2016-12-22T19:46:22Z</time>
      </trkpt>
      <trkpt lat="44.70313" lon="1.56214">
        <ele>366</ele>
        <time>2016-12-22T19:48:22Z</time>
      </trkpt>
      <trkpt lat="44.70383" lon="1.5621">
        <ele>368</ele>
        <time>2016-12-22T19:50:22Z</time>
      </trkpt>
      <trkpt lat="44.7046" lon="1.56237">
        <ele>369</ele>
        <time>2016-12-22T19:52:22Z</time>
      </trkpt>
      <trkpt lat="44.70502" lon="1.56259">
        <ele>371</ele>
        <time>2016-12-22T19:54:22Z</time>
      </trkpt>
      <trkpt lat="44.70548" lon="1.5628">
        <ele>371</ele>
        <time>2016-12-22T19:56:22Z</time>
      </trkpt>
      <trkpt lat="44.70615" lon="1.56317">
        <ele>371</ele>
        <time>2016-12-22T19:58:22Z</time>
      </trkpt>
      <trkpt lat="44.70685" lon="1.56373">
        <ele>368</ele>
        <time>2016-12-22T20:00:22Z</time>
      </trkpt>
      <trkpt lat="44.70726" lon="1.56407">
        <ele>363</ele>
        <time>2016-12-22T20:02:22Z</time>
      </trkpt>
      <trkpt lat="44.70758" lon="1.56501">
        <ele>358</ele>
        <time>2016-12-22T20:04:22Z</time>
      </trkpt>
      <trkpt lat="44.70833" lon="1.56513">
        <ele>354</ele>
        <time>2016-12-22T20:06:22Z</time>
      </trkpt>
      <trkpt lat="44.70896" lon="1.56534">
        <ele>353</ele>
        <time>2016-12-22T20:08:22Z</time>
      </trkpt>
      <trkpt lat="44.7097" lon="1.56526">
        <ele>353</ele>
        <time>2016-12-22T20:10:22Z</time>
      </trkpt>
      <trkpt lat="44.71076" lon="1.5656">
        <ele>352</ele>
        <time>2016-12-22T20:12:22Z</time>
      </trkpt>
      <trkpt lat="44.71132" lon="1.56575">
        <ele>348</ele>
        <time>2016-12-22T20:14:22Z</time>
      </trkpt>
      <trkpt lat="44.71195" lon="1.5658">
        <ele>344</ele>
        <time>2016-12-22T20:16:22Z</time>
      </trkpt>
      <trkpt lat="44.71315" lon="1.56626">
        <ele>339</ele>
        <time>2016-12-22T20:18:22Z</time>
      </trkpt>
      <trkpt lat="44.71405" lon="1.56662">
        <ele>337</ele>
        <time>2016-12-22T20:20:22Z</time>
      </trkpt>
      <trkpt lat="44.71459" lon="1.5669">
        <ele>336</ele>
        <time>2016-12-22T20:22:22Z</time>
      </trkpt>
      <trkpt lat="44.71516" lon="1.56784">
        <ele>325</ele>
        <time>2016-12-22T20:24:22Z</time>
      </trkpt>
      <trkpt lat="44.71511" lon="1.56806">
        <ele>324</ele>
        <time>2016-12-22T20:26:22Z</time>
      </trkpt>
      <trkpt lat="44.71498" lon="1.56876">
        <ele>327</ele>
        <time>2016-12-22T20:28:22Z</time>
      </trkpt>
      <trkpt lat="44.71521" lon="1.56875">
        <ele>327</ele>
        <time>2016-12-22T20:30:22Z</time>
      </trkpt>
      <trkpt lat="44.71573" lon="1.56865">
        <ele>325</ele>
        <time>2016-12-22T20:32:22Z</time>
      </trkpt>
      <trkpt lat="44.71627" lon="1.56908">
        <ele>330</ele>
        <time>2016-12-22T20:34:22Z</time>
      </trkpt>
      <trkpt lat="44.71647" lon="1.56855">
        <ele>324</ele>
        <time>2016-12-22T20:36:22Z</time>
      </trkpt>
      <trkpt lat="44.71696" lon="1.56848">
        <ele>323</ele>
        <time>2016-12-22T20:38:22Z</time>
      </trkpt>
      <trkpt lat="44.71728" lon="1.56847">
        <ele>323</ele>
        <time>2016-12-22T20:40:22Z</time>
      </trkpt>
      <trkpt lat="44.71822" lon="1.56843">
        <ele>317</ele>
        <time>2016-12-22T20:42:22Z</time>
      </trkpt>
      <trkpt lat="44.71937" lon="1.56879">
        <ele>305</ele>
        <time>2016-12-22T20:44:22Z</time>
      </trkpt>
      <trkpt lat="44.72009" lon="1.56897">
        <ele>298</ele>
        <time>2016-12-22T20:46:22Z</time>
      </trkpt>
      <trkpt lat="44.72054" lon="1.56934">
        <ele>292</ele>
        <time>2016-12-22T20:48:22Z</time>
      </trkpt>
      <trkpt lat="44.72112" lon="1.56911">
        <ele>284</ele>
        <time>2016-12-22T20:50:22Z</time>
      </trkpt>
      <trkpt lat="44.72144" lon="1.5687">
        <ele>280</ele>
        <time>2016-12-22T20:52:22Z</time>
      </trkpt>
      <trkpt lat="44.72172" lon="1.56791">
        <ele>275</ele>
        <time>2016-12-22T20:54:22Z</time>
      </trkpt>
      <trkpt lat="44.72138" lon="1.5669">
        <ele>275</ele>
        <time>2016-12-22T20:56:22Z</time>
      </trkpt>
      <trkpt lat="44.72135" lon="1.56624">
        <ele>273</ele>
        <time>2016-12-22T20:58:22Z</time>
      </trkpt>
      <trkpt lat="44.72132" lon="1.56479">
        <ele>270</ele>
        <time>2016-12-22T21:00:22Z</time>
      </trkpt>
      <trkpt lat="44.72154" lon="1.56349">
        <ele>264</ele>
        <time>2016-12-22T21:02:22Z</time>
      </trkpt>
      <trkpt lat="44.7212" lon="1.56334">
        <ele>266</ele>
        <time>2016-12-22T21:04:22Z</time>
      </trkpt>
      <trkpt lat="44.72097" lon="1.56303">
        <ele>265</ele>
        <time>2016-12-22T21:06:22Z</time>
      </trkpt>
      <trkpt lat="44.72095" lon="1.56281">
        <ele>264</ele>
        <time>2016-12-22T21:08:22Z</time>
      </trkpt>
      <trkpt lat="44.72121" lon="1.56249">
        <ele>263</ele>
        <time>2016-12-22T21:10:22Z</time>
      </trkpt>
      <trkpt lat="44.72178" lon="1.56267">
        <ele>263</ele>
        <time>2016-12-22T21:12:22Z</time>
      </trkpt>
      <trkpt lat="44.72232" lon="1.56247">
        <ele>260</ele>
        <time>2016-12-22T21:14:22Z</time>
      </trkpt>
      <trkpt lat="44.72299" lon="1.5618">
        <ele>262</ele>
        <time>2016-12-22T21:16:22Z</time>
      </trkpt>
      <trkpt lat="44.7237" lon="1.56094">
        <ele>259</ele>
        <time>2016-12-22T21:18:22Z</time>
      </trkpt>
      <trkpt lat="44.72439" lon="1.56027">
        <ele>257</ele>
        <time>2016-12-22T21:20:22Z</time>
      </trkpt>
      <trkpt lat="44.72491" lon="1.56007">
        <ele>251</ele>
        <time>2016-12-22T21:22:22Z</time>
      </trkpt>
      <trkpt lat="44.72587" lon="1.55918">
        <ele>250</ele>
        <time>2016-12-22T21:24:22Z</time>
      </trkpt>
      <trkpt lat="44.72661" lon="1.55888">
        <ele>245</ele>
        <time>2016-12-22T21:26:22Z</time>
      </trkpt>
      <trkpt lat="44.72744" lon="1.55843">
        <ele>243</ele>
        <time>2016-12-22T21:28:22Z</time>
      </trkpt>
      <trkpt lat="44.72793" lon="1.55902">
        <ele>241</ele>
        <time>2016-12-22T21:30:22Z</time>
      </trkpt>
      <trkpt lat="44.72895" lon="1.55989">
        <ele>244</ele>
        <time>2016-12-22T21:32:22Z</time>
      </trkpt>
      <trkpt lat="44.72954" lon="1.56004">
        <ele>247</ele>
        <time>2016-12-22T21:34:22Z</time>
      </trkpt>
      <trkpt lat="44.73012" lon="1.55962">
        <ele>247</ele>
        <time>2016-12-22T21:36:22Z</time>
      </trkpt>
      <trkpt lat="44.7303" lon="1.55937">
        <ele>245</ele>
        <time>2016-12-22T21:38:22Z</time>
      </trkpt>
      <trkpt lat="44.73113" lon="1.55894">
        <ele>247</ele>
        <time>2016-12-22T21:40:22Z</time>
      </trkpt>
      <trkpt lat="44.73193" lon="1.55833">
        <ele>245</ele>
        <time>2016-12-22T21:42:22Z</time>
      </trkpt>
      <trkpt lat="44.73267" lon="1.55766">
        <ele>242</ele>
        <time>2016-12-22T21:44:22Z</time>
      </trkpt>
      <trkpt lat="44.73309" lon="1.55709">
        <ele>239</ele>
        <time>2016-12-22T21:46:22Z</time>
      </trkpt>
      <trkpt lat="44.73348" lon="1.55711">
        <ele>240</ele>
        <time>2016-12-22T21:48:22Z</time>
      </trkpt>
      <trkpt lat="44.73469" lon="1.55732">
        <ele>238</ele>
        <time>2016-12-22T21:50:22Z</time>
      </trkpt>
      <trkpt lat="44.73523" lon="1.55753">
        <ele>236</ele>
        <time>2016-12-22T21:52:22Z</time>
      </trkpt>
      <trkpt lat="44.73588" lon="1.55746">
        <ele>232</ele>
        <time>2016-12-22T21:54:22Z</time>
      </trkpt>
      <trkpt lat="44.73629" lon="1.55752">
        <ele>231</ele>
        <time>2016-12-22T21:56:22Z</time>
      </trkpt>
      <trkpt lat="44.73694" lon="1.55741">
        <ele>229</ele>
        <time>2016-12-22T21:58:22Z</time>
      </trkpt>
      <trkpt lat="44.73759" lon="1.55734">
        <ele>227</ele>
        <time>2016-12-22T22:00:22Z</time>
      </trkpt>
      <trkpt lat="44.73847" lon="1.55714">
        <ele>227</ele>
        <time>2016-12-22T22:02:22Z</time>
      </trkpt>
      <trkpt lat="44.73916" lon="1.55681">
        <ele>227</ele>
        <time>2016-12-22T22:04:22Z</time>
      </trkpt>
      <trkpt lat="44.73979" lon="1.55586">
        <ele>230</ele>
        <time>2016-12-22T22:06:22Z</time>
      </trkpt>
      <trkpt lat="44.74054" lon="1.5538">
        <ele>234</ele>
        <time>2016-12-22T22:08:22Z</time>
      </trkpt>
      <trkpt lat="44.74044" lon="1.55342">
        <ele>231</ele>
        <time>2016-12-22T22:10:22Z</time>
      </trkpt>
      <trkpt lat="44.74055" lon="1.55276">
        <ele>228</ele>
        <time>2016-12-22T22:12:22Z</time>
      </trkpt>
      <trkpt lat="44.74108" lon="1.55196">
        <ele>225</ele>
        <time>2016-12-22T22:14:22Z</time>
      </trkpt>
      <trkpt lat="44.74176" lon="1.55163">
        <ele>225</ele>
        <time>2016-12-22T22:16:22Z</time>
      </trkpt>
      <trkpt lat="44.74259" lon="1.55137">
        <ele>229</ele>
        <time>2016-12-22T22:18:22Z</time>
      </trkpt>
      <trkpt lat="44.74325" lon="1.55041">
        <ele>227</ele>
        <time>2016-12-22T22:20:22Z</time>
      </trkpt>
      <trkpt lat="44.74421" lon="1.54873">
        <ele>222</ele>
        <time>2016-12-22T22:22:22Z</time>
      </trkpt>
      <trkpt lat="44.74496" lon="1.5473">
        <ele>215</ele>
        <time>2016-12-22T22:24:22Z</time>
      </trkpt>
      <trkpt lat="44.74577" lon="1.54618">
        <ele>214</ele>
        <time>2016-12-22T22:26:22Z</time>
      </trkpt>
      <trkpt lat="44.74646" lon="1.54551">
        <ele>215</ele>
        <time>2016-12-22T22:28:22Z</time>
      </trkpt>
      <trkpt lat="44.74789" lon="1.54473">
        <ele>213</ele>
        <time>2016-12-22T22:30:22Z</time>
      </trkpt>
      <trkpt lat="44.74888" lon="1.54421">
        <ele>210</ele>
        <time>2016-12-22T22:32:22Z</time>
      </trkpt>
      <trkpt lat="44.75006" lon="1.54357">
        <ele>209</ele>
        <time>2016-12-22T22:34:22Z</time>
      </trkpt>
      <trkpt lat="44.75118" lon="1.54305">
        <ele>206</ele>
        <time>2016-12-22T22:36:22Z</time>
      </trkpt>
      <trkpt lat="44.7518" lon="1.54277">
        <ele>206</ele>
        <time>2016-12-22T22:38:22Z</time>
      </trkpt>
      <trkpt lat="44.75237" lon="1.54246">
        <ele>203</ele>
        <time>2016-12-22T22:40:22Z</time>
      </trkpt>
      <trkpt lat="44.75308" lon="1.54218">
        <ele>204</ele>
        <time>2016-12-22T22:42:22Z</time>
      </trkpt>
      <trkpt lat="44.75375" lon="1.54186">
        <ele>205</ele>
        <time>2016-12-22T22:44:22Z</time>
      </trkpt>
      <trkpt lat="44.7534" lon="1.5433">
        <ele>221</ele>
        <time>2016-12-22T22:46:22Z</time>
      </trkpt>
      <trkpt lat="44.75344" lon="1.54431">
        <ele>244</ele>
        <time>2016-12-22T22:48:22Z</time>
      </trkpt>
      <trkpt lat="44.75351" lon="1.54459">
        <ele>248</ele>
        <time>2016-12-22T22:50:22Z</time>
      </trkpt>
      <trkpt lat="44.75388" lon="1.54525">
        <ele>254</ele>
        <time>2016-12-22T22:52:22Z</time>
      </trkpt>
      <trkpt lat="44.7546" lon="1.54609">
        <ele>252</ele>
        <time>2016-12-22T22:54:22Z</time>
      </trkpt>
      <trkpt lat="44.75519" lon="1.54703">
        <ele>244</ele>
        <time>2016-12-22T22:56:22Z</time>
      </trkpt>
      <trkpt lat="44.75563" lon="1.54851">
        <ele>236</ele>
        <time>2016-12-22T22:58:22Z</time>
      </trkpt>
      <trkpt lat="44.75607" lon="1.54976">
        <ele>232</ele>
        <time>2016-12-22T23:00:22Z</time>
      </trkpt>
      <trkpt lat="44.75657" lon="1.55067">
        <ele>218</ele>
        <time>2016-12-22T23:02:22Z</time>
      </trkpt>
      <trkpt lat="44.75689" lon="1.55098">
        <ele>212</ele>
        <time>2016-12-22T23:04:22Z</time>
      </trkpt>
      <trkpt lat="44.75738" lon="1.55119">
        <ele>207</ele>
        <time>2016-12-22T23:06:22Z</time>
      </trkpt>
      <trkpt lat="44.75759" lon="1.55151">
        <ele>206</ele>
        <time>2016-12-22T23:08:22Z</time>
      </trkpt>
      <trkpt lat="44.75768" lon="1.55248">
        <ele>214</ele>
        <time>2016-12-22T23:10:22Z</time>
      </trkpt>
      <trkpt lat="44.75736" lon="1.55416">
        <ele>226</ele>
        <time>2016-12-22T23:12:22Z</time>
      </trkpt>
      <trkpt lat="44.75714" lon="1.55486">
        <ele>229</ele>
        <time>2016-12-22T23:14:22Z</time>
      </trkpt>
      <trkpt lat="44.75714" lon="1.55524">
        <ele>230</ele>
        <time>2016-12-22T23:16:22Z</time>
      </trkpt>
      <trkpt lat="44.75728" lon="1.55625">
        <ele>236</ele>
        <time>2016-12-22T23:18:22Z</time>
      </trkpt>
      <trkpt lat="44.75733" lon="1.55716">
        <ele>243</ele>
        <time>2016-12-22T23:20:22Z</time>
      </trkpt>
      <trkpt lat="44.75694" lon="1.55802">
        <ele>254</ele>
        <time>2016-12-22T23:22:22Z</time>
      </trkpt>
      <trkpt lat="44.75688" lon="1.5595">
        <ele>266</ele>
        <time>2016-12-22T23:24:22Z</time>
      </trkpt>
      <trkpt lat="44.75691" lon="1.56032">
        <ele>271</ele>
        <time>2016-12-22T23:26:22Z</time>
      </trkpt>
      <trkpt lat="44.75762" lon="1.56003">
        <ele>267</ele>
        <time>2016-12-22T23:28:22Z</time>
      </trkpt>
      <trkpt lat="44.75829" lon="1.55876">
        <ele>273</ele>
        <time>2016-12-22T23:30:22Z</time>
      </trkpt>
      <trkpt lat="44.75889" lon="1.5578">
        <ele>277</ele>
        <time>2016-12-22T23:32:22Z</time>
      </trkpt>
      <trkpt lat="44.75956" lon="1.55694">
        <ele>285</ele>
        <time>2016-12-22T23:34:22Z</time>
      </trkpt>
      <trkpt lat="44.76029" lon="1.55608">
        <ele>289</ele>
        <time>2016-12-22T23:36:22Z</time>
      </trkpt>
      <trkpt lat="44.76091" lon="1.55686">
        <ele>294</ele>
        <time>2016-12-22T23:38:22Z</time>
      </trkpt>
      <trkpt lat="44.76071" lon="1.55784">
        <ele>292</ele>
        <time>2016-12-22T23:40:22Z</time>
      </trkpt>
      <trkpt lat="44.75932" lon="1.56073">
        <ele>277</ele>
        <time>2016-12-22T23:42:22Z</time>
      </trkpt>
      <trkpt lat="44.75871" lon="1.56099">
        <ele>274</ele>
        <time>2016-12-22T23:44:22Z</time>
      </trkpt>
      <trkpt lat="44.75795" lon="1.56106">
        <ele>272</ele>
        <time>2016-12-22T23:46:22Z</time>
      </trkpt>
      <trkpt lat="44.75721" lon="1.56139">
        <ele>273</ele>
        <time>2016-12-22T23:48:22Z</time>
      </trkpt>
      <trkpt lat="44.75744" lon="1.56325">
        <ele>271</ele>
        <time>2016-12-22T23:50:22Z</time>
      </trkpt>
      <trkpt lat="44.75761" lon="1.56492">
        <ele>265</ele>
        <time>2016-12-22T23:52:22Z</time>
      </trkpt>
      <trkpt lat="44.75778" lon="1.56656">
        <ele>249</ele>
        <time>2016-12-22T23:54:22Z</time>
      </trkpt>
      <trkpt lat="44.75806" lon="1.5675">
        <ele>238</ele>
        <time>2016-12-22T23:56:22Z</time>
      </trkpt>
      <trkpt lat="44.75834" lon="1.56854">
        <ele>232</ele>
        <time>2016-12-22T23:58:22Z</time>
      </trkpt>
      <trkpt lat="44.75836" lon="1.56914">
        <ele>234</ele>
        <time>2016-12-23T00:00:22Z</time>
      </trkpt>
      <trkpt lat="44.75803" lon="1.56987">
        <ele>235</ele>
        <time>2016-12-23T00:02:22Z</time>
      </trkpt>
      <trkpt lat="44.75783" lon="1.57063">
        <ele>232</ele>
        <time>2016-12-23T00:04:22Z</time>
      </trkpt>
      <trkpt lat="44.75755" lon="1.57139">
        <ele>225</ele>
        <time>2016-12-23T00:06:22Z</time>
      </trkpt>
      <trkpt lat="44.75782" lon="1.57205">
        <ele>225</ele>
        <time>2016-12-23T00:08:22Z</time>
      </trkpt>
      <trkpt lat="44.7583" lon="1.57248">
        <ele>221</ele>
        <time>2016-12-23T00:10:22Z</time>
      </trkpt>
      <trkpt lat="44.75913" lon="1.57295">
        <ele>218</ele>
        <time>2016-12-23T00:12:22Z</time>
      </trkpt>
      <trkpt lat="44.75992" lon="1.57347">
        <ele>218</ele>
        <time>2016-12-23T00:14:22Z</time>
      </trkpt>
      <trkpt lat="44.7602" lon="1.57432">
        <ele>218</ele>
        <time>2016-12-23T00:16:22Z</time>
      </trkpt>
      <trkpt lat="44.76049" lon="1.57498">
        <ele>217</ele>
        <time>2016-12-23T00:18:22Z</time>
      </trkpt>
      <trkpt lat="44.76106" lon="1.57567">
        <ele>215</ele>
        <time>2016-12-23T00:20:22Z</time>
      </trkpt>
      <trkpt lat="44.76122" lon="1.57658">
        <ele>213</ele>
        <time>2016-12-23T00:22:22Z</time>
      </trkpt>
      <trkpt lat="44.76123" lon="1.57778">
        <ele>209</ele>
        <time>2016-12-23T00:24:22Z</time>
      </trkpt>
      <trkpt lat="44.76187" lon="1.5785">
        <ele>207</ele>
        <time>2016-12-23T00:26:22Z</time>
      </trkpt>
      <trkpt lat="44.76196" lon="1.57859">
        <ele>208</ele>
        <time>2016-12-23T00:28:22Z</time>
      </trkpt>
      <trkpt lat="44.76204" lon="1.57864">
        <ele>208</ele>
        <time>2016-12-23T00:30:22Z</time>
      </trkpt>
      <trkpt lat="44.76347" lon="1.57971">
        <ele>205</ele>
        <time>2016-12-23T00:32:22Z</time>
      </trkpt>
      <trkpt lat="44.7644" lon="1.58089">
        <ele>198</ele>
        <time>2016-12-23T00:34:22Z</time>
      </trkpt>
      <trkpt lat="44.76508" lon="1.58189">
        <ele>190</ele>
        <time>2016-12-23T00:36:22Z</time>
      </trkpt>
      <trkpt lat="44.76574" lon="1.58296">
        <ele>179</ele>
        <time>2016-12-23T00:38:22Z</time>
      </trkpt>
      <trkpt lat="44.76577" lon="1.58343">
        <ele>176</ele>
        <time>2016-12-23T00:40:22Z</time>
      </trkpt>
      <trkpt lat="44.76546" lon="1.58384">
        <ele>175</ele>
        <time>2016-12-23T00:42:22Z</time>
      </trkpt>
      <trkpt lat="44.76634" lon="1.58402">
        <ele>175</ele>
        <time>2016-12-23T00:44:22Z</time>
      </trkpt>
      <trkpt lat="44.76683" lon="1.58386">
        <ele>178</ele>
        <time>2016-12-23T00:46:22Z</time>
      </trkpt>
      <trkpt lat="44.76719" lon="1.58433">
        <ele>180</ele>
        <time>2016-12-23T00:48:22Z</time>
      </trkpt>
      <trkpt lat="44.76722" lon="1.58518">
        <ele>179</ele>
        <time>2016-12-23T00:50:22Z</time>
      </trkpt>
      <trkpt lat="44.76694" lon="1.58651">
        <ele>176</ele>
        <time>2016-12-23T00:52:22Z</time>
      </trkpt>
      <trkpt lat="44.7669" lon="1.58815">
        <ele>174</ele>
        <time>2016-12-23T00:54:22Z</time>
      </trkpt>
      <trkpt lat="44.76727" lon="1.58957">
        <ele>175</ele>
        <time>2016-12-23T00:56:22Z</time>
      </trkpt>
      <trkpt lat="44.76786" lon="1.59031">
        <ele>172</ele>
        <time>2016-12-23T00:58:22Z</time>
      </trkpt>
      <trkpt lat="44.76859" lon="1.59106">
        <ele>171</ele>
        <time>2016-12-23T01:00:22Z</time>
      </trkpt>
      <trkpt lat="44.7694" lon="1.59124">
        <ele>169</ele>
        <time>2016-12-23T01:02:22Z</time>
      </trkpt>
      <trkpt lat="44.77028" lon="1.59151">
        <ele>165</ele>
        <time>2016-12-23T01:04:22Z</time>
      </trkpt>
      <trkpt lat="44.7712" lon="1.59235">
        <ele>163</ele>
        <time>2016-12-23T01:06:22Z</time>
      </trkpt>
      <trkpt lat="44.77218" lon="1.59341">
        <ele>160</ele>
        <time>2016-12-23T01:08:22Z</time>
      </trkpt>
      <trkpt lat="44.77272" lon="1.59423">
        <ele>162</ele>
        <time>2016-12-23T01:10:22Z</time>
      </trkpt>
      <trkpt lat="44.77347" lon="1.59523">
        <ele>160</ele>
        <time>2016-12-23T01:12:22Z</time>
      </trkpt>
      <trkpt lat="44.77395" lon="1.59588">
        <ele>158</ele>
        <time>2016-12-23T01:14:22Z</time>
      </trkpt>
      <trkpt lat="44.77458" lon="1.59657">
        <ele>154</ele>
        <time>2016-12-23T01:16:22Z</time>
      </trkpt>
      <trkpt lat="44.77537" lon="1.59697">
        <ele>156</ele>
        <time>2016-12-23T01:18:22Z</time>
      </trkpt>
      <trkpt lat="44.77629" lon="1.59686">
        <ele>159</ele>
        <time>2016-12-23T01:20:22Z</time>
      </trkpt>
      <trkpt lat="44.77737" lon="1.5966">
        <ele>161</ele>
        <time>2016-12-23T01:22:22Z</time>
      </trkpt>
      <trkpt lat="44.77771" lon="1.5965">
        <ele>163</ele>
        <time>2016-12-23T01:24:22Z</time>
      </trkpt>
      <trkpt lat="44.7784" lon="1.59639">
        <ele>167</ele>
        <time>2016-12-23T01:26:22Z</time>
      </trkpt>
      <trkpt lat="44.77846" lon="1.59734">
        <ele>157</ele>
        <time>2016-12-23T01:28:22Z</time>
      </trkpt>
      <trkpt lat="44.7783" lon="1.59835">
        <ele>155</ele>
        <time>2016-12-23T01:30:22Z</time>
      </trkpt>
      <trkpt lat="44.7787" lon="1.59961">
        <ele>156</ele>
        <time>2016-12-23T01:32:22Z</time>
      </trkpt>
      <trkpt lat="44.77908" lon="1.60049">
        <ele>154</ele>
        <time>2016-12-23T01:34:22Z</time>
      </trkpt>
      <trkpt lat="44.77932" lon="1.6015">
        <ele>154</ele>
        <time>2016-12-23T01:36:22Z</time>
      </trkpt>
      <trkpt lat="44.77939" lon="1.60257">
        <ele>152</ele>
        <time>2016-12-23T01:38:22Z</time>
      </trkpt>
      <trkpt lat="44.77962" lon="1.60339">
        <ele>150</ele>
        <time>2016-12-23T01:40:22Z</time>
      </trkpt>
      <trkpt lat="44.77996" lon="1.60449">
        <ele>145</ele>
        <time>2016-12-23T01:42:22Z</time>
      </trkpt>
      <trkpt lat="44.78033" lon="1.60511">
        <ele>151</ele>
        <time>2016-12-23T01:44:22Z</time>
      </trkpt>
      <trkpt lat="44.78053" lon="1.60536">
        <ele>158</ele>
        <time>2016-12-23T01:46:22Z</time>
      </trkpt>
      <trkpt lat="44.78085" lon="1.60526">
        <ele>157</ele>
        <time>2016-12-23T01:48:22Z</time>
      </trkpt>
      <trkpt lat="44.78138" lon="1.60456">
        <ele>153</ele>
        <time>2016-12-23T01:50:22Z</time>
      </trkpt>
      <trkpt lat="44.7821" lon="1.60376">
        <ele>148</ele>
        <time>2016-12-23T01:52:22Z</time>
      </trkpt>
      <trkpt lat="44.78229" lon="1.60307">
        <ele>150</ele>
        <time>2016-12-23T01:54:22Z</time>
      </trkpt>
      <trkpt lat="44.7824" lon="1.60256">
        <ele>151</ele>
        <time>2016-12-23T01:56:22Z</time>
      </trkpt>
      <trkpt lat="44.78247" lon="1.60187">
        <ele>149</ele>
        <time>2016-12-23T01:58:22Z</time>
      </trkpt>
      <trkpt lat="44.78244" lon="1.60095">
        <ele>152</ele>
        <time>2016-12-23T02:00:22Z</time>
      </trkpt>
      <trkpt lat="44.78248" lon="1.60025">
        <ele>152</ele>
        <time>2016-12-23T02:02:22Z</time>
      </trkpt>
      <trkpt lat="44.78259" lon="1.59978">
        <ele>152</ele>
        <time>2016-12-23T02:04:22Z</time>
      </trkpt>
      <trkpt lat="44.78256" lon="1.59921">
        <ele>152</ele>
        <time>2016-12-23T02:06:22Z</time>
      </trkpt>
      <trkpt lat="44.78265" lon="1.59852">
        <ele>156</ele>
        <time>2016-12-23T02:08:22Z</time>
      </trkpt>
      <trkpt lat="44.783" lon="1.59775">
        <ele>154</ele>
        <time>2016-12-23T02:10:22Z</time>
      </trkpt>
      <trkpt lat="44.78338" lon="1.59696">
        <ele>146</ele>
        <time>2016-12-23T02:12:22Z</time>
      </trkpt>
      <trkpt lat="44.78359" lon="1.59579">
        <ele>153</ele>
        <time>2016-12-23T02:14:22Z</time>
      </trkpt>
      <trkpt lat="44.78388" lon="1.59458">
        <ele>155</ele>
        <time>2016-12-23T02:16:22Z</time>
      </trkpt>
      <trkpt lat="44.78419" lon="1.59417">
        <ele>146</ele>
        <time>2016-12-23T02:18:22Z</time>
      </trkpt>
      <trkpt lat="44.78486" lon="1.59375">
        <ele>146</ele>
        <time>2016-12-23T02:20:22Z</time>
      </trkpt>
      <trkpt lat="44.78545" lon="1.59352">
        <ele>142</ele>
        <time>2016-12-23T02:22:22Z</time>
      </trkpt>
      <trkpt lat="44.7859" lon="1.59374">
        <ele>138</ele>
        <time>2016-12-23T02:24:22Z</time>
      </trkpt>
      <trkpt lat="44.78639" lon="1.59386">
        <ele>138</ele>
        <time>2016-12-23T02:26:22Z</time>
      </trkpt>
      <trkpt lat="44.78704" lon="1.59363">
        <ele>139</ele>
        <time>2016-12-23T02:28:22Z</time>
      </trkpt>
      <trkpt lat="44.7872" lon="1.59397">
        <ele>141</ele>
        <time>2016-12-23T02:30:22Z</time>
      </trkpt>
      <trkpt lat="44.78788" lon="1.59368">
        <ele>138</ele>
        <time>2016-12-23T02:32:22Z</time>
      </trkpt>
      <trkpt lat="44.78826" lon="1.59399">
        <ele>135</ele>
        <time>2016-12-23T02:34:22Z</time>
      </trkpt>
      <trkpt lat="44.7882" lon="1.59478">
        <ele>145</ele>
        <time>2016-12-23T02:36:22Z</time>
      </trkpt>
      <trkpt lat="44.78822" lon="1.59532">
        <ele>152</ele>
        <time>2016-12-23T02:38:22Z</time>
      </trkpt>
      <trkpt lat="44.78832" lon="1.59629">
        <ele>159</ele>
        <time>2016-12-23T02:40:22Z</time>
      </trkpt>
      <trkpt lat="44.78788" lon="1.59794">
        <ele>184</ele>
        <time>2016-12-23T02:42:22Z</time>
      </trkpt>
      <trkpt lat="44.78769" lon="1.59937">
        <ele>191</ele>
        <time>2016-12-23T02:44:22Z</time>
      </trkpt>
      <trkpt lat="44.78754" lon="1.60098">
        <ele>205</ele>
        <time>2016-12-23T02:46:22Z</time>
      </trkpt>
      <trkpt lat="44.7876" lon="1.60237">
        <ele>219</ele>
        <time>2016-12-23T02:48:22Z</time>
      </trkpt>
      <trkpt lat="44.78767" lon="1.60312">
        <ele>222</ele>
        <time>2016-12-23T02:50:22Z</time>
      </trkpt>
      <trkpt lat="44.78747" lon="1.60414">
        <ele>224</ele>
        <time>2016-12-23T02:52:22Z</time>
      </trkpt>
      <trkpt lat="44.78762" lon="1.60543">
        <ele>235</ele>
        <time>2016-12-23T02:54:22Z</time>
      </trkpt>
      <trkpt lat="44.78778" lon="1.60622">
        <ele>242</ele>
        <time>2016-12-23T02:56:22Z</time>
      </trkpt>
      <trkpt lat="44.78797" lon="1.60719">
        <ele>249</ele>
        <time>2016-12-23T02:58:22Z</time>
      </trkpt>
      <trkpt lat="44.78817" lon="1.60823">
        <ele>256</ele>
        <time>2016-12-23T03:00:22Z</time>
      </trkpt>
      <trkpt lat="44.78818" lon="1.60864">
        <ele>259</ele>
        <time>2016-12-23T03:02:22Z</time>
      </trkpt>
      <trkpt lat="44.78838" lon="1.60918">
        <ele>262</ele>
        <time>2016-12-23T03:04:22Z</time>
      </trkpt>
      <trkpt lat="44.78902" lon="1.60952">
        <ele>261</ele>
        <time>2016-12-23T03:06:22Z</time>
      </trkpt>
      <trkpt lat="44.78965" lon="1.60967">
        <ele>260</ele>
        <time>2016-12-23T03:08:22Z</time>
      </trkpt>
      <trkpt lat="44.79039" lon="1.61022">
        <ele>261</ele>
        <time>2016-12-23T03:10:22Z</time>
      </trkpt>
      <trkpt lat="44.79102" lon="1.61044">
        <ele>263</ele>
        <time>2016-12-23T03:12:22Z</time>
      </trkpt>
      <trkpt lat="44.7921" lon="1.6109">
        <ele>264</ele>
        <time>2016-12-23T03:14:22Z</time>
      </trkpt>
      <trkpt lat="44.79321" lon="1.61123">
        <ele>258</ele>
        <time>2016-12-23T03:16:22Z</time>
      </trkpt>
      <trkpt lat="44.7937" lon="1.61113">
        <ele>251</ele>
        <time>2016-12-23T03:18:22Z</time>
      </trkpt>
      <trkpt lat="44.79408" lon="1.61087">
        <ele>244</ele>
        <time>2016-12-23T03:20:22Z</time>
      </trkpt>
      <trkpt lat="44.79476" lon="1.61118">
        <ele>227</ele>
        <time>2016-12-23T03:22:22Z</time>
      </trkpt>
      <trkpt lat="44.79555" lon="1.61101">
        <ele>193</ele>
        <time>2016-12-23T03:24:22Z</time>
      </trkpt>
      <trkpt lat="44.79557" lon="1.61155">
        <ele>187</ele>
        <time>2016-12-23T03:26:22Z</time>
      </trkpt>
      <trkpt lat="44.79493" lon="1.61257">
        <ele>202</ele>
        <time>2016-12-23T03:28:22Z</time>
      </trkpt>
      <trkpt lat="44.79466" lon="1.6132">
        <ele>202</ele>
        <time>2016-12-23T03:30:22Z</time>
      </trkpt>
      <trkpt lat="44.79453" lon="1.61412">
        <ele>203</ele>
        <time>2016-12-23T03:32:22Z</time>
      </trkpt>
      <trkpt lat="44.7949" lon="1.61512">
        <ele>190</ele>
        <time>2016-12-23T03:34:22Z</time>
      </trkpt>
      <trkpt lat="44.79498" lon="1.6144">
        <ele>174</ele>
        <time>2016-12-23T03:36:22Z</time>
      </trkpt>
      <trkpt lat="44.79557" lon="1.61515">
        <ele>158</ele>
        <time>2016-12-23T03:38:22Z</time>
      </trkpt>
      <trkpt lat="44.79598" lon="1.61571">
        <ele>150</ele>
        <time>2016-12-23T03:40:22Z</time>
      </trkpt>
      <trkpt lat="44.79641" lon="1.61637">
        <ele>149</ele>
        <time>2016-12-23T03:42:22Z</time>
      </trkpt>
      <trkpt lat="44.79688" lon="1.61601">
        <ele>151</ele>
        <time>2016-12-23T03:44:22Z</time>
      </trkpt>
      <trkpt lat="44.79729" lon="1.61705">
        <ele>149</ele>
        <time>2016-12-23T03:46:22Z</time>
      </trkpt>
      <trkpt lat="44.79807" lon="1.61796">
        <ele>151</ele>
        <time>2016-12-23T03:48:22Z</time>
      </trkpt>
      <trkpt lat="44.79881" lon="1.61889">
        <ele>152</ele>
        <time>2016-12-23T03:50:22Z</time>
      </trkpt>
      <trkpt lat="44.79931" lon="1.61901">
        <ele>151</ele>
        <time>2016-12-23T03:52:22Z</time>
      </trkpt>
      <trkpt lat="44.79994" lon="1.61957">
        <ele>148</ele>
        <time>2016-12-23T03:54:22Z</time>
      </trkpt>
      <trkpt lat="44.80062" lon="1.61998">
        <ele>150</ele>
        <time>2016-12-23T03:56:22Z</time>
      </trkpt>
      <trkpt lat="44.80139" lon="1.62114">
        <ele>153</ele>
        <time>2016-12-23T03:58:22Z</time>
      </trkpt>
      <trkpt lat="44.80199" lon="1.62264">
        <ele>148</ele>
        <time>2016-12-23T04:00:22Z</time>
      </trkpt>
      <trkpt lat="44.80221" lon="1.62321">
        <ele>148</ele>
        <time>2016-12-23T04:02:22Z</time>
      </trkpt>
      <trkpt lat="44.80254" lon="1.62341">
        <ele>151</ele>
        <time>2016-12-23T04:04:22Z</time>
      </trkpt>
      <trkpt lat="44.80242" lon="1.62267">
        <ele>153</ele>
        <time>2016-12-23T04:06:22Z</time>
      </trkpt>
      <trkpt lat="44.80244" lon="1.62227">
        <ele>160</ele>
        <time>2016-12-23T04:08:22Z</time>
      </trkpt>
      <trkpt lat="44.80212" lon="1.62128">
        <ele>172</ele>
        <time>2016-12-23T04:10:22Z</time>
      </trkpt>
      <trkpt lat="44.80194" lon="1.62081">
        <ele>174</ele>
        <time>2016-12-23T04:12:22Z</time>
      </trkpt>
      <trkpt lat="44.80159" lon="1.62033">
        <ele>172</ele>
        <time>2016-12-23T04:14:22Z</time>
      </trkpt>
      <trkpt lat="44.80121" lon="1.6198">
        <ele>171</ele>
        <time>2016-12-23T04:16:22Z</time>
      </trkpt>
      <trkpt lat="44.80122" lon="1.6194">
        <ele>182</ele>
        <time>2016-12-23T04:18:22Z</time>
      </trkpt>
      <trkpt lat="44.80229" lon="1.62078">
        <ele>191</ele>
        <time>2016-12-23T04:20:22Z</time>
      </trkpt>
      <trkpt lat="44.80317" lon="1.62232">
        <ele>198</ele>
        <time>2016-12-23T04:22:22Z</time>
      </trkpt>
      <trkpt lat="44.80345" lon="1.623">
        <ele>201</ele>
        <time>2016-12-23T04:24:22Z</time>
      </trkpt>
      <trkpt lat="44.80368" lon="1.62394">
        <ele>207</ele>
        <time>2016-12-23T04:26:22Z</time>
      </trkpt>
      <trkpt lat="44.80353" lon="1.62535">
        <ele>216</ele>
        <time>2016-12-23T04:28:22Z</time>
      </trkpt>
      <trkpt lat="44.80249" lon="1.62688">
        <ele>223</ele>
        <time>2016-12-23T04:30:22Z</time>
      </trkpt>
      <trkpt lat="44.80208" lon="1.62753">
        <ele>219</ele>
        <time>2016-12-23T04:32:22Z</time>
      </trkpt>
      <trkpt lat="44.80203" lon="1.62853">
        <ele>229</ele>
        <time>2016-12-23T04:34:22Z</time>
      </trkpt>
      <trkpt lat="44.80237" lon="1.62844">
        <ele>248</ele>
        <time>2016-12-23T04:36:22Z</time>
      </trkpt>
      <trkpt lat="44.80253" lon="1.62759">
        <ele>246</ele>
        <time>2016-12-23T04:38:22Z</time>
      </trkpt>
      <trkpt lat="44.80395" lon="1.62707">
        <ele>255</ele>
        <time>2016-12-23T04:40:22Z</time>
      </trkpt>
      <trkpt lat="44.8044" lon="1.62707">
        <ele>257</ele>
        <time>2016-12-23T04:42:22Z</time>
      </trkpt>
      <trkpt lat="44.80554" lon="1.62661">
        <ele>258</ele>
        <time>2016-12-23T04:44:22Z</time>
      </trkpt>
      <trkpt lat="44.80644" lon="1.62679">
        <ele>259</ele>
        <time>2016-12-23T04:46:22Z</time>
      </trkpt>
      <trkpt lat="44.80701" lon="1.62792">
        <ele>254</ele>
        <time>2016-12-23T04:48:22Z</time>
      </trkpt>
      <trkpt lat="44.80688" lon="1.62899">
        <ele>253</ele>
        <time>2016-12-23T04:50:22Z</time>
      </trkpt>
      <trkpt lat="44.80675" lon="1.62969">
        <ele>255</ele>
        <time>2016-12-23T04:52:22Z</time>
      </trkpt>
      <trkpt lat="44.80669" lon="1.63042">
        <ele>256</ele>
        <time>2016-12-23T04:54:22Z</time>
      </trkpt>
      <trkpt lat="44.80685" lon="1.63124">
        <ele>257</ele>
        <time>2016-12-23T04:56:22Z</time>
      </trkpt>
      <trkpt lat="44.80683" lon="1.63184">
        <ele>259</ele>
        <time>2016-12-23T04:58:22Z</time>
      </trkpt>
      <trkpt lat="44.80666" lon="1.63266">
        <ele>261</ele>
        <time>2016-12-23T05:00:22Z</time>
      </trkpt>
      <trkpt lat="44.80662" lon="1.63358">
        <ele>263</ele>
        <time>2016-12-23T05:02:22Z</time>
      </trkpt>
      <trkpt lat="44.80643" lon="1.63469">
        <ele>268</ele>
        <time>2016-12-23T05:04:22Z</time>
      </trkpt>
      <trkpt lat="44.80625" lon="1.63541">
        <ele>270</ele>
        <time>2016-12-23T05:06:22Z</time>
      </trkpt>
      <trkpt lat="44.8063" lon="1.63589">
        <ele>271</ele>
        <time>2016-12-23T05:08:22Z</time>
      </trkpt>
      <trkpt lat="44.80675" lon="1.63617">
        <ele>270</ele>
        <time>2016-12-23T05:10:22Z</time>
      </trkpt>
      <trkpt lat="44.80707" lon="1.63679">
        <ele>268</ele>
        <time>2016-12-23T05:12:22Z</time>
      </trkpt>
      <trkpt lat="44.8073" lon="1.6373">
        <ele>267</ele>
        <time>2016-12-23T05:14:22Z</time>
      </trkpt>
      <trkpt lat="44.80748" lon="1.63805">
        <ele>267</ele>
        <time>2016-12-23T05:16:22Z</time>
      </trkpt>
      <trkpt lat="44.80775" lon="1.63859">
        <ele>268</ele>
        <time>2016-12-23T05:18:22Z</time>
      </trkpt>
      <trkpt lat="44.80789" lon="1.63925">
        <ele>268</ele>
        <time>2016-12-23T05:20:22Z</time>
      </trkpt>
      <trkpt lat="44.80808" lon="1.63972">
        <ele>270</ele>
        <time>2016-12-23T05:22:22Z</time>
      </trkpt>
      <trkpt lat="44.80831" lon="1.64041">
        <ele>273</ele>
        <time>2016-12-23T05:24:22Z</time>
      </trkpt>
      <trkpt lat="44.80835" lon="1.64092">
        <ele>273</ele>
        <time>2016-12-23T05:26:22Z</time>
      </trkpt>
      <trkpt lat="44.8084" lon="1.64161">
        <ele>274</ele>
        <time>2016-12-23T05:28:22Z</time>
      </trkpt>
      <trkpt lat="44.80859" lon="1.64237">
        <ele>274</ele>
        <time>2016-12-23T05:30:22Z</time>
      </trkpt>
      <trkpt lat="44.8088" lon="1.64325">
        <ele>274</ele>
        <time>2016-12-23T05:32:22Z</time>
      </trkpt>
      <trkpt lat="44.80921" lon="1.64397">
        <ele>278</ele>
        <time>2016-12-23T05:34:22Z</time>
      </trkpt>
      <trkpt lat="44.80966" lon="1.64538">
        <ele>282</ele>
        <time>2016-12-23T05:36:22Z</time>
      </trkpt>
      <trkpt lat="44.80965" lon="1.64627">
        <ele>281</ele>
        <time>2016-12-23T05:38:22Z</time>
      </trkpt>
      <trkpt lat="44.809" lon="1.64722">
        <ele>281</ele>
        <time>2016-12-23T05:40:22Z</time>
      </trkpt>
      <trkpt lat="44.80845" lon="1.6485">
        <ele>281</ele>
        <time>2016-12-23T05:42:22Z</time>
      </trkpt>
      <trkpt lat="44.80787" lon="1.64964">
        <ele>283</ele>
        <time>2016-12-23T05:44:22Z</time>
      </trkpt>
      <trkpt lat="44.80733" lon="1.65015">
        <ele>283</ele>
        <time>2016-12-23T05:46:22Z</time>
      </trkpt>
      <trkpt lat="44.80707" lon="1.65091">
        <ele>281</ele>
        <time>2016-12-23T05:48:22Z</time>
      </trkpt>
      <trkpt lat="44.80671" lon="1.65164">
        <ele>281</ele>
        <time>2016-12-23T05:50:22Z</time>
      </trkpt>
      <trkpt lat="44.80671" lon="1.65212">
        <ele>278</ele>
        <time>2016-12-23T05:52:22Z</time>
      </trkpt>
      <trkpt lat="44.80668" lon="1.65297">
        <ele>276</ele>
        <time>2016-12-23T05:54:22Z</time>
      </trkpt>
      <trkpt lat="44.80639" lon="1.65386">
        <ele>274</ele>
        <time>2016-12-23T05:56:22Z</time>
      </trkpt>
      <trkpt lat="44.80606" lon="1.65478">
        <ele>273</ele>
        <time>2016-12-23T05:58:22Z</time>
      </trkpt>
      <trkpt lat="44.80568" lon="1.65576">
        <ele>271</ele>
        <time>2016-12-23T06:00:22Z</time>
      </trkpt>
      <trkpt lat="44.80555" lon="1.65633">
        <ele>271</ele>
        <time>2016-12-23T06:02:22Z</time>
      </trkpt>
      <trkpt lat="44.8056" lon="1.65677">
        <ele>270</ele>
        <time>2016-12-23T06:04:22Z</time>
      </trkpt>
      <trkpt lat="44.80572" lon="1.65769">
        <ele>269</ele>
        <time>2016-12-23T06:06:22Z</time>
      </trkpt>
      <trkpt lat="44.80549" lon="1.65829">
        <ele>269</ele>
        <time>2016-12-23T06:08:22Z</time>
      </trkpt>
      <trkpt lat="44.80538" lon="1.65864">
        <ele>271</ele>
        <time>2016-12-23T06:10:22Z</time>
      </trkpt>
      <trkpt lat="44.80516" lon="1.65902">
        <ele>272</ele>
        <time>2016-12-23T06:12:22Z</time>
      </trkpt>
      <trkpt lat="44.80492" lon="1.65963">
        <ele>275</ele>
        <time>2016-12-23T06:14:22Z</time>
      </trkpt>
      <trkpt lat="44.80485" lon="1.66019">
        <ele>278</ele>
        <time>2016-12-23T06:16:22Z</time>
      </trkpt>
      <trkpt lat="44.80411" lon="1.66058">
        <ele>279</ele>
        <time>2016-12-23T06:18:22Z</time>
      </trkpt>
      <trkpt lat="44.80344" lon="1.66116">
        <ele>278</ele>
        <time>2016-12-23T06:20:22Z</time>
      </trkpt>
      <trkpt lat="44.80304" lon="1.66151">
        <ele>278</ele>
        <time>2016-12-23T06:22:22Z</time>
      </trkpt>
      <trkpt lat="44.80257" lon="1.66205">
        <ele>277</ele>
        <time>2016-12-23T06:24:22Z</time>
      </trkpt>
      <trkpt lat="44.8021" lon="1.66266">
        <ele>278</ele>
        <time>2016-12-23T06:26:22Z</time>
      </trkpt>
      <trkpt lat="44.80179" lon="1.66336">
        <ele>279</ele>
        <time>2016-12-23T06:28:22Z</time>
      </trkpt>
      <trkpt lat="44.80153" lon="1.66409">
        <ele>276</ele>
        <time>2016-12-23T06:30:22Z</time>
      </trkpt>
      <trkpt lat="44.80133" lon="1.66497">
        <ele>274</ele>
        <time>2016-12-23T06:32:22Z</time>
      </trkpt>
      <trkpt lat="44.80104" lon="1.66599">
        <ele>277</ele>
        <time>2016-12-23T06:34:22Z</time>
      </trkpt>
      <trkpt lat="44.80087" lon="1.66729">
        <ele>278</ele>
        <time>2016-12-23T06:36:22Z</time>
      </trkpt>
      <trkpt lat="44.80068" lon="1.66877">
        <ele>278</ele>
        <time>2016-12-23T06:38:22Z</time>
      </trkpt>
      <trkpt lat="44.80046" lon="1.66925">
        <ele>277</ele>
        <time>2016-12-23T06:40:22Z</time>
      </trkpt>
      <trkpt lat="44.80048" lon="1.66979">
        <ele>277</ele>
        <time>2016-12-23T06:42:22Z</time>
      </trkpt>
      <trkpt lat="44.80036" lon="1.67121">
        <ele>280</ele>
        <time>2016-12-23T06:44:22Z</time>
      </trkpt>
      <trkpt lat="44.8" lon="1.67181">
        <ele>281</ele>
        <time>2016-12-23T06:46:22Z</time>
      </trkpt>
      <trkpt lat="44.79967" lon="1.67333">
        <ele>279</ele>
        <time>2016-12-23T06:48:22Z</time>
      </trkpt>
      <trkpt lat="44.79925" lon="1.67473">
        <ele>280</ele>
        <time>2016-12-23T06:50:22Z</time>
      </trkpt>
      <trkpt lat="44.79908" lon="1.67625">
        <ele>283</ele>
        <time>2016-12-23T06:52:22Z</time>
      </trkpt>
      <trkpt lat="44.79891" lon="1.67691">
        <ele>284</ele>
        <time>2016-12-23T06:54:22Z</time>
      </trkpt>
      <trkpt lat="44.7983" lon="1.67768">
        <ele>286</ele>
        <time>2016-12-23T06:56:22Z</time>
      </trkpt>
      <trkpt lat="44.79784" lon="1.67834">
        <ele>287</ele>
        <time>2016-12-23T06:58:22Z</time>
      </trkpt>
      <trkpt lat="44.79757" lon="1.67838">
        <ele>286</ele>
        <time>2016-12-23T07:00:22Z</time>
      </trkpt>
      <trkpt lat="44.79702" lon="1.67779">
        <ele>285</ele>
        <time>2016-12-23T07:02:22Z</time>
      </trkpt>
      <trkpt lat="44.79641" lon="1.6771">
        <ele>286</ele>
        <time>2016-12-23T07:04:22Z</time>
      </trkpt>
      <trkpt lat="44.79598" lon="1.67628">
        <ele>286</ele>
        <time>2016-12-23T07:06:22Z</time>
      </trkpt>
      <trkpt lat="44.7951" lon="1.67566">
        <ele>285</ele>
        <time>2016-12-23T07:08:22Z</time>
      </trkpt>
      <trkpt lat="44.79444" lon="1.67494">
        <ele>281</ele>
        <time>2016-12-23T07:10:22Z</time>
      </trkpt>
      <trkpt lat="44.79363" lon="1.67476">
        <ele>277</ele>
        <time>2016-12-23T07:12:22Z</time>
      </trkpt>
      <trkpt lat="44.79322" lon="1.67426">
        <ele>276</ele>
        <time>2016-12-23T07:14:22Z</time>
      </trkpt>
      <trkpt lat="44.79289" lon="1.67411">
        <ele>277</ele>
        <time>2016-12-23T07:16:22Z</time>
      </trkpt>
      <trkpt lat="44.79243" lon="1.67354">
        <ele>280</ele>
        <time>2016-12-23T07:18:22Z</time>
      </trkpt>
      <trkpt lat="44.79131" lon="1.6734">
        <ele>282</ele>
        <time>2016-12-23T07:20:22Z</time>
      </trkpt>
      <trkpt lat="44.79036" lon="1.67275">
        <ele>263</ele>
        <time>2016-12-23T07:22:22Z</time>
      </trkpt>
      <trkpt lat="44.79044" lon="1.67136">
        <ele>256</ele>
        <time>2016-12-23T07:24:22Z</time>
      </trkpt>
      <trkpt lat="44.79033" lon="1.67104">
        <ele>251</ele>
        <time>2016-12-23T07:26:22Z</time>
      </trkpt>
      <trkpt lat="44.78999" lon="1.67184">
        <ele>250</ele>
        <time>2016-12-23T07:28:22Z</time>
      </trkpt>
      <trkpt lat="44.78975" lon="1.67266">
        <ele>255</ele>
        <time>2016-12-23T07:30:22Z</time>
      </trkpt>
      <trkpt lat="44.78973" lon="1.6732">
        <ele>258</ele>
        <time>2016-12-23T07:32:22Z</time>
      </trkpt>
      <trkpt lat="44.78946" lon="1.6732">
        <ele>261</ele>
        <time>2016-12-23T07:34:22Z</time>
      </trkpt>
      <trkpt lat="44.78935" lon="1.67364">
        <ele>260</ele>
        <time>2016-12-23T07:36:22Z</time>
      </trkpt>
      <trkpt lat="44.78915" lon="1.6745">
        <ele>259</ele>
        <time>2016-12-23T07:38:22Z</time>
      </trkpt>
      <trkpt lat="44.78909" lon="1.67431">
        <ele>260</ele>
        <time>2016-12-23T07:40:22Z</time>
      </trkpt>
      <trkpt lat="44.78913" lon="1.6739">
        <ele>260</ele>
        <time>2016-12-23T07:42:22Z</time>
      </trkpt>
      <trkpt lat="44.78888" lon="1.67419">
        <ele>264</ele>
        <time>2016-12-23T07:44:22Z</time>
      </trkpt>
      <trkpt lat="44.78899" lon="1.67378">
        <ele>264</ele>
        <time>2016-12-23T07:46:22Z</time>
      </trkpt>
      <trkpt lat="44.7891" lon="1.67308">
        <ele>264</ele>
        <time>2016-12-23T07:48:22Z</time>
      </trkpt>
      <trkpt lat="44.78879" lon="1.67334">
        <ele>270</ele>
        <time>2016-12-23T07:50:22Z</time>
      </trkpt>
      <trkpt lat="44.78883" lon="1.67226">
        <ele>270</ele>
        <time>2016-12-23T07:52:22Z</time>
      </trkpt>
      <trkpt lat="44.789" lon="1.67119">
        <ele>269</ele>
        <time>2016-12-23T07:54:22Z</time>
      </trkpt>
      <trkpt lat="44.78906" lon="1.66986">
        <ele>277</ele>
        <time>2016-12-23T07:56:22Z</time>
      </trkpt>
      <trkpt lat="44.78928" lon="1.66885">
        <ele>276</ele>
        <time>2016-12-23T07:58:22Z</time>
      </trkpt>
      <trkpt lat="44.78974" lon="1.6677">
        <ele>276</ele>
        <time>2016-12-23T08:00:22Z</time>
      </trkpt>
      <trkpt lat="44.79032" lon="1.6665">
        <ele>271</ele>
        <time>2016-12-23T08:02:22Z</time>
      </trkpt>
      <trkpt lat="44.79067" lon="1.66555">
        <ele>270</ele>
        <time>2016-12-23T08:04:22Z</time>
      </trkpt>
      <trkpt lat="44.79092" lon="1.66478">
        <ele>271</ele>
        <time>2016-12-23T08:06:22Z</time>
      </trkpt>
      <trkpt lat="44.79094" lon="1.66437">
        <ele>272</ele>
        <time>2016-12-23T08:08:22Z</time>
      </trkpt>
      <trkpt lat="44.79073" lon="1.664">
        <ele>274</ele>
        <time>2016-12-23T08:10:22Z</time>
      </trkpt>
      <trkpt lat="44.79066" lon="1.66365">
        <ele>275</ele>
        <time>2016-12-23T08:12:22Z</time>
      </trkpt>
      <trkpt lat="44.79086" lon="1.66298">
        <ele>276</ele>
        <time>2016-12-23T08:14:22Z</time>
      </trkpt>
      <trkpt lat="44.79059" lon="1.66251">
        <ele>276</ele>
        <time>2016-12-23T08:16:22Z</time>
      </trkpt>
      <trkpt lat="44.79018" lon="1.66224">
        <ele>276</ele>
        <time>2016-12-23T08:18:22Z</time>
      </trkpt>
      <trkpt lat="44.7898" lon="1.66167">
        <ele>280</ele>
        <time>2016-12-23T08:20:22Z</time>
      </trkpt>
      <trkpt lat="44.78946" lon="1.66114">
        <ele>281</ele>
        <time>2016-12-23T08:22:22Z</time>
      </trkpt>
      <trkpt lat="44.78912" lon="1.66067">
        <ele>281</ele>
        <time>2016-12-23T08:24:22Z</time>
      </trkpt>
      <trkpt lat="44.78882" lon="1.66017">
        <ele>281</ele>
        <time>2016-12-23T08:26:22Z</time>
      </trkpt>
      <trkpt lat="44.78844" lon="1.65976">
        <ele>279</ele>
        <time>2016-12-23T08:28:22Z</time>
      </trkpt>
      <trkpt lat="44.78852" lon="1.65926">
        <ele>276</ele>
        <time>2016-12-23T08:30:22Z</time>
      </trkpt>
      <trkpt lat="44.78802" lon="1.65825">
        <ele>273</ele>
        <time>2016-12-23T08:32:22Z</time>
      </trkpt>
      <trkpt lat="44.78775" lon="1.65724">
        <ele>270</ele>
        <time>2016-12-23T08:34:22Z</time>
      </trkpt>
      <trkpt lat="44.78758" lon="1.65617">
        <ele>270</ele>
        <time>2016-12-23T08:36:22Z</time>
      </trkpt>
      <trkpt lat="44.78719" lon="1.65504">
        <ele>272</ele>
        <time>2016-12-23T08:38:22Z</time>
      </trkpt>
      <trkpt lat="44.78712" lon="1.65413">
        <ele>273</ele>
        <time>2016-12-23T08:40:22Z</time>
      </trkpt>
      <trkpt lat="44.78678" lon="1.65359">
        <ele>275</ele>
        <time>2016-12-23T08:42:22Z</time>
      </trkpt>
      <trkpt lat="44.7865" lon="1.65296">
        <ele>275</ele>
        <time>2016-12-23T08:44:22Z</time>
      </trkpt>
      <trkpt lat="44.78578" lon="1.6514">
        <ele>278</ele>
        <time>2016-12-23T08:46:22Z</time>
      </trkpt>
      <trkpt lat="44.78536" lon="1.65029">
        <ele>278</ele>
        <time>2016-12-23T08:48:22Z</time>
      </trkpt>
      <trkpt lat="44.785" lon="1.65005">
        <ele>277</ele>
        <time>2016-12-23T08:50:22Z</time>
      </trkpt>
      <trkpt lat="44.78462" lon="1.64999">
        <ele>278</ele>
        <time>2016-12-23T08:52:22Z</time>
      </trkpt>
      <trkpt lat="44.78368" lon="1.64989">
        <ele>281</ele>
        <time>2016-12-23T08:54:22Z</time>
      </trkpt>
      <trkpt lat="44.78344" lon="1.65">
        <ele>282</ele>
        <time>2016-12-23T08:56:22Z</time>
      </trkpt>
      <trkpt lat="44.78273" lon="1.65039">
        <ele>284</ele>
        <time>2016-12-23T08:58:22Z</time>
      </trkpt>
      <trkpt lat="44.78184" lon="1.6511">
        <ele>286</ele>
        <time>2016-12-23T09:00:22Z</time>
      </trkpt>
      <trkpt lat="44.78065" lon="1.65177">
        <ele>291</ele>
        <time>2016-12-23T09:02:22Z</time>
      </trkpt>
      <trkpt lat="44.78023" lon="1.65213">
        <ele>293</ele>
        <time>2016-12-23T09:04:22Z</time>
      </trkpt>
      <trkpt lat="44.77937" lon="1.65245">
        <ele>294</ele>
        <time>2016-12-23T09:06:22Z</time>
      </trkpt>
      <trkpt lat="44.77883" lon="1.65233">
        <ele>296</ele>
        <time>2016-12-23T09:08:22Z</time>
      </trkpt>
      <trkpt lat="44.77832" lon="1.65221">
        <ele>298</ele>
        <time>2016-12-23T09:10:22Z</time>
      </trkpt>
      <trkpt lat="44.77787" lon="1.65247">
        <ele>301</ele>
        <time>2016-12-23T09:12:22Z</time>
      </trkpt>
      <trkpt lat="44.77756" lon="1.65307">
        <ele>305</ele>
        <time>2016-12-23T09:14:22Z</time>
      </trkpt>
      <trkpt lat="44.77727" lon="1.65352">
        <ele>308</ele>
        <time>2016-12-23T09:16:22Z</time>
      </trkpt>
      <trkpt lat="44.77686" lon="1.654">
        <ele>311</ele>
        <time>2016-12-23T09:18:22Z</time>
      </trkpt>
      <trkpt lat="44.77628" lon="1.65404">
        <ele>311</ele>
        <time>2016-12-23T09:20:22Z</time>
      </trkpt>
      <trkpt lat="44.77608" lon="1.65407">
        <ele>311</ele>
        <time>2016-12-23T09:22:22Z</time>
      </trkpt>
      <trkpt lat="44.77579" lon="1.65448">
        <ele>312</ele>
        <time>2016-12-23T09:24:22Z</time>
      </trkpt>
      <trkpt lat="44.77516" lon="1.65541">
        <ele>315</ele>
        <time>2016-12-23T09:26:22Z</time>
      </trkpt>
      <trkpt lat="44.77488" lon="1.65614">
        <ele>317</ele>
        <time>2016-12-23T09:28:22Z</time>
      </trkpt>
      <trkpt lat="44.77472" lon="1.65709">
        <ele>319</ele>
        <time>2016-12-23T09:30:22Z</time>
      </trkpt>
      <trkpt lat="44.77446" lon="1.65782">
        <ele>321</ele>
        <time>2016-12-23T09:32:22Z</time>
      </trkpt>
      <trkpt lat="44.77417" lon="1.6587">
        <ele>321</ele>
        <time>2016-12-23T09:34:22Z</time>
      </trkpt>
      <trkpt lat="44.77449" lon="1.65902">
        <ele>315</ele>
        <time>2016-12-23T09:36:22Z</time>
      </trkpt>
      <trkpt lat="44.77483" lon="1.65923">
        <ele>310</ele>
        <time>2016-12-23T09:38:22Z</time>
      </trkpt>
      <trkpt lat="44.77517" lon="1.66017">
        <ele>306</ele>
        <time>2016-12-23T09:40:22Z</time>
      </trkpt>
      <trkpt lat="44.77558" lon="1.66162">
        <ele>303</ele>
        <time>2016-12-23T09:42:22Z</time>
      </trkpt>
      <trkpt lat="44.77552" lon="1.66276">
        <ele>297</ele>
        <time>2016-12-23T09:44:22Z</time>
      </trkpt>
      <trkpt lat="44.77526" lon="1.66418">
        <ele>298</ele>
        <time>2016-12-23T09:46:22Z</time>
      </trkpt>
      <trkpt lat="44.77491" lon="1.66523">
        <ele>298</ele>
        <time>2016-12-23T09:48:22Z</time>
      </trkpt>
      <trkpt lat="44.77447" lon="1.66688">
        <ele>301</ele>
        <time>2016-12-23T09:50:22Z</time>
      </trkpt>
      <trkpt lat="44.77407" lon="1.6683">
        <ele>302</ele>
        <time>2016-12-23T09:52:22Z</time>
      </trkpt>
      <trkpt lat="44.77388" lon="1.66919">
        <ele>301</ele>
        <time>2016-12-23T09:54:22Z</time>
      </trkpt>
      <trkpt lat="44.77388" lon="1.67029">
        <ele>304</ele>
        <time>2016-12-23T09:56:22Z</time>
      </trkpt>
      <trkpt lat="44.77396" lon="1.67165">
        <ele>309</ele>
        <time>2016-12-23T09:58:22Z</time>
      </trkpt>
      <trkpt lat="44.77366" lon="1.67374">
        <ele>309</ele>
        <time>2016-12-23T10:00:22Z</time>
      </trkpt>
      <trkpt lat="44.77357" lon="1.67405">
        <ele>308</ele>
        <time>2016-12-23T10:02:22Z</time>
      </trkpt>
      <trkpt lat="44.77351" lon="1.67503">
        <ele>308</ele>
        <time>2016-12-23T10:04:22Z</time>
      </trkpt>
      <trkpt lat="44.77352" lon="1.67636">
        <ele>312</ele>
        <time>2016-12-23T10:06:22Z</time>
      </trkpt>
      <trkpt lat="44.77354" lon="1.67734">
        <ele>313</ele>
        <time>2016-12-23T10:08:22Z</time>
      </trkpt>
      <trkpt lat="44.77348" lon="1.67822">
        <ele>314</ele>
        <time>2016-12-23T10:10:22Z</time>
      </trkpt>
      <trkpt lat="44.77342" lon="1.67948">
        <ele>320</ele>
        <time>2016-12-23T10:12:22Z</time>
      </trkpt>
      <trkpt lat="44.77286" lon="1.67955">
        <ele>315</ele>
        <time>2016-12-23T10:14:22Z</time>
      </trkpt>
      <trkpt lat="44.77207" lon="1.6795">
        <ele>311</ele>
        <time>2016-12-23T10:16:22Z</time>
      </trkpt>
      <trkpt lat="44.77104" lon="1.67954">
        <ele>315</ele>
        <time>2016-12-23T10:18:22Z</time>
      </trkpt>
      <trkpt lat="44.77093" lon="1.67961">
        <ele>315</ele>
        <time>2016-12-23T10:20:22Z</time>
      </trkpt>
      <trkpt lat="44.77093" lon="1.68049">
        <ele>315</ele>
        <time>2016-12-23T10:22:22Z</time>
      </trkpt>
      <trkpt lat="44.77078" lon="1.68106">
        <ele>316</ele>
        <time>2016-12-23T10:24:22Z</time>
      </trkpt>
      <trkpt lat="44.77073" lon="1.68138">
        <ele>316</ele>
        <time>2016-12-23T10:26:22Z</time>
      </trkpt>
      <trkpt lat="44.77069" lon="1.68132">
        <ele>316</ele>
        <time>2016-12-23T10:28:22Z</time>
      </trkpt>
      <trkpt lat="44.77043" lon="1.68242">
        <ele>316</ele>
        <time>2016-12-23T10:30:22Z</time>
      </trkpt>
      <trkpt lat="44.76913" lon="1.6831">
        <ele>322</ele>
        <time>2016-12-23T10:32:22Z</time>
      </trkpt>
      <trkpt lat="44.76848" lon="1.68352">
        <ele>329</ele>
        <time>2016-12-23T10:34:22Z</time>
      </trkpt>
      <trkpt lat="44.76776" lon="1.68346">
        <ele>334</ele>
        <time>2016-12-23T10:36:22Z</time>
      </trkpt>
      <trkpt lat="44.7674" lon="1.68369">
        <ele>335</ele>
        <time>2016-12-23T10:38:22Z</time>
      </trkpt>
      <trkpt lat="44.76691" lon="1.6848">
        <ele>328</ele>
        <time>2016-12-23T10:40:22Z</time>
      </trkpt>
      <trkpt lat="44.76662" lon="1.68537">
        <ele>324</ele>
        <time>2016-12-23T10:42:22Z</time>
      </trkpt>
      <trkpt lat="44.76615" lon="1.68632">
        <ele>327</ele>
        <time>2016-12-23T10:44:22Z</time>
      </trkpt>
      <trkpt lat="44.76557" lon="1.68652">
        <ele>331</ele>
        <time>2016-12-23T10:46:22Z</time>
      </trkpt>
      <trkpt lat="44.76485" lon="1.68713">
        <ele>336</ele>
        <time>2016-12-23T10:48:22Z</time>
      </trkpt>
      <trkpt lat="44.76468" lon="1.68764">
        <ele>336</ele>
        <time>2016-12-23T10:50:22Z</time>
      </trkpt>
      <trkpt lat="44.76445" lon="1.68776">
        <ele>336</ele>
        <time>2016-12-23T10:52:22Z</time>
      </trkpt>
      <trkpt lat="44.76391" lon="1.68771">
        <ele>338</ele>
        <time>2016-12-23T10:54:22Z</time>
      </trkpt>
      <trkpt lat="44.76367" lon="1.68771">
        <ele>339</ele>
        <time>2016-12-23T10:56:22Z</time>
      </trkpt>
      <trkpt lat="44.76306" lon="1.68699">
        <ele>342</ele>
        <time>2016-12-23T10:58:22Z</time>
      </trkpt>
      <trkpt lat="44.76228" lon="1.6858">
        <ele>354</ele>
        <time>2016-12-23T11:00:22Z</time>
      </trkpt>
      <trkpt lat="44.76156" lon="1.68489">
        <ele>363</ele>
        <time>2016-12-23T11:02:22Z</time>
      </trkpt>
      <trkpt lat="44.76111" lon="1.68447">
        <ele>365</ele>
        <time>2016-12-23T11:04:22Z</time>
      </trkpt>
      <trkpt lat="44.75984" lon="1.68346">
        <ele>367</ele>
        <time>2016-12-23T11:06:22Z</time>
      </trkpt>
      <trkpt lat="44.75946" lon="1.6829">
        <ele>367</ele>
        <time>2016-12-23T11:08:22Z</time>
      </trkpt>
      <trkpt lat="44.75896" lon="1.68234">
        <ele>371</ele>
        <time>2016-12-23T11:10:22Z</time>
      </trkpt>
      <trkpt lat="44.75873" lon="1.68183">
        <ele>374</ele>
        <time>2016-12-23T11:12:22Z</time>
      </trkpt>
      <trkpt lat="44.7583" lon="1.6808">
        <ele>380</ele>
        <time>2016-12-23T11:14:22Z</time>
      </trkpt>
      <trkpt lat="44.75791" lon="1.68023">
        <ele>383</ele>
        <time>2016-12-23T11:16:22Z</time>
      </trkpt>
      <trkpt lat="44.75766" lon="1.67983">
        <ele>385</ele>
        <time>2016-12-23T11:18:22Z</time>
      </trkpt>
      <trkpt lat="44.7573" lon="1.67926">
        <ele>387</ele>
        <time>2016-12-23T11:20:22Z</time>
      </trkpt>
      <trkpt lat="44.75709" lon="1.67848">
        <ele>389</ele>
        <time>2016-12-23T11:22:22Z</time>
      </trkpt>
      <trkpt lat="44.75691" lon="1.67807">
        <ele>391</ele>
        <time>2016-12-23T11:24:22Z</time>
      </trkpt>
      <trkpt lat="44.75639" lon="1.67744">
        <ele>394</ele>
        <time>2016-12-23T11:26:22Z</time>
      </trkpt>
      <trkpt lat="44.7562" lon="1.67691">
        <ele>393</ele>
        <time>2016-12-23T11:28:22Z</time>
      </trkpt>
      <trkpt lat="44.75593" lon="1.67609">
        <ele>392</ele>
        <time>2016-12-23T11:30:22Z</time>
      </trkpt>
      <trkpt lat="44.7557" lon="1.67452">
        <ele>389</ele>
        <time>2016-12-23T11:32:22Z</time>
      </trkpt>
      <trkpt lat="44.75522" lon="1.67408">
        <ele>387</ele>
        <time>2016-12-23T11:34:22Z</time>
      </trkpt>
      <trkpt lat="44.75486" lon="1.67349">
        <ele>387</ele>
        <time>2016-12-23T11:36:22Z</time>
      </trkpt>
      <trkpt lat="44.75454" lon="1.67321">
        <ele>386</ele>
        <time>2016-12-23T11:38:22Z</time>
      </trkpt>
      <trkpt lat="44.75393" lon="1.67255">
        <ele>384</ele>
        <time>2016-12-23T11:40:22Z</time>
      </trkpt>
      <trkpt lat="44.7535" lon="1.67173">
        <ele>382</ele>
        <time>2016-12-23T11:42:22Z</time>
      </trkpt>
      <trkpt lat="44.75304" lon="1.67051">
        <ele>377</ele>
        <time>2016-12-23T11:44:22Z</time>
      </trkpt>
      <trkpt lat="44.75279" lon="1.66994">
        <ele>374</ele>
        <time>2016-12-23T11:46:22Z</time>
      </trkpt>
      <trkpt lat="44.75287" lon="1.66852">
        <ele>374</ele>
        <time>2016-12-23T11:48:22Z</time>
      </trkpt>
      <trkpt lat="44.753" lon="1.66735">
        <ele>374</ele>
        <time>2016-12-23T11:50:22Z</time>
      </trkpt>
      <trkpt lat="44.75299" lon="1.66672">
        <ele>374</ele>
        <time>2016-12-23T11:52:22Z</time>
      </trkpt>
      <trkpt lat="44.75324" lon="1.66606">
        <ele>373</ele>
        <time>2016-12-23T11:54:22Z</time>
      </trkpt>
      <trkpt lat="44.75323" lon="1.66429">
        <ele>369</ele>
        <time>2016-12-23T11:56:22Z</time>
      </trkpt>
      <trkpt lat="44.75342" lon="1.66277">
        <ele>364</ele>
        <time>2016-12-23T11:58:22Z</time>
      </trkpt>
      <trkpt lat="44.75366" lon="1.66157">
        <ele>360</ele>
        <time>2016-12-23T12:00:22Z</time>
      </trkpt>
      <trkpt lat="44.75406" lon="1.66056">
        <ele>358</ele>
        <time>2016-12-23T12:02:22Z</time>
      </trkpt>
      <trkpt lat="44.75482" lon="1.65941">
        <ele>353</ele>
        <time>2016-12-23T12:04:22Z</time>
      </trkpt>
      <trkpt lat="44.75595" lon="1.6576">
        <ele>343</ele>
        <time>2016-12-23T12:06:22Z</time>
      </trkpt>
      <trkpt lat="44.75619" lon="1.65668">
        <ele>343</ele>
        <time>2016-12-23T12:08:22Z</time>
      </trkpt>
      <trkpt lat="44.75655" lon="1.65617">
        <ele>343</ele>
        <time>2016-12-23T12:10:22Z</time>
      </trkpt>
      <trkpt lat="44.75706" lon="1.65506">
        <ele>344</ele>
        <time>2016-12-23T12:12:22Z</time>
      </trkpt>
      <trkpt lat="44.75739" lon="1.65449">
        <ele>343</ele>
        <time>2016-12-23T12:14:22Z</time>
      </trkpt>
      <trkpt lat="44.75795" lon="1.65322">
        <ele>342</ele>
        <time>2016-12-23T12:16:22Z</time>
      </trkpt>
      <trkpt lat="44.7581" lon="1.65195">
        <ele>341</ele>
        <time>2016-12-23T12:18:22Z</time>
      </trkpt>
      <trkpt lat="44.75841" lon="1.65107">
        <ele>339</ele>
        <time>2016-12-23T12:20:22Z</time>
      </trkpt>
      <trkpt lat="44.75856" lon="1.65031">
        <ele>337</ele>
        <time>2016-12-23T12:22:22Z</time>
      </trkpt>
      <trkpt lat="44.75896" lon="1.6492">
        <ele>332</ele>
        <time>2016-12-23T12:24:22Z</time>
      </trkpt>
      <trkpt lat="44.75919" lon="1.64737">
        <ele>324</ele>
        <time>2016-12-23T12:26:22Z</time>
      </trkpt>
      <trkpt lat="44.75941" lon="1.64591">
        <ele>321</ele>
        <time>2016-12-23T12:28:22Z</time>
      </trkpt>
      <trkpt lat="44.76002" lon="1.64325">
        <ele>316</ele>
        <time>2016-12-23T12:30:22Z</time>
      </trkpt>
      <trkpt lat="44.75972" lon="1.64215">
        <ele>317</ele>
        <time>2016-12-23T12:32:22Z</time>
      </trkpt>
      <trkpt lat="44.75963" lon="1.6413">
        <ele>317</ele>
        <time>2016-12-23T12:34:22Z</time>
      </trkpt>
      <trkpt lat="44.75957" lon="1.63947">
        <ele>321</ele>
        <time>2016-12-23T12:36:22Z</time>
      </trkpt>
      <trkpt lat="44.7591" lon="1.64017">
        <ele>316</ele>
        <time>2016-12-23T12:38:22Z</time>
      </trkpt>
      <trkpt lat="44.75875" lon="1.64052">
        <ele>314</ele>
        <time>2016-12-23T12:40:22Z</time>
      </trkpt>
      <trkpt lat="44.7583" lon="1.64069">
        <ele>313</ele>
        <time>2016-12-23T12:42:22Z</time>
      </trkpt>
      <trkpt lat="44.75769" lon="1.64101">
        <ele>312</ele>
        <time>2016-12-23T12:44:22Z</time>
      </trkpt>
      <trkpt lat="44.75738" lon="1.64139">
        <ele>313</ele>
        <time>2016-12-23T12:46:22Z</time>
      </trkpt>
      <trkpt lat="44.75679" lon="1.64099">
        <ele>313</ele>
        <time>2016-12-23T12:48:22Z</time>
      </trkpt>
      <trkpt lat="44.75585" lon="1.64119">
        <ele>318</ele>
        <time>2016-12-23T12:50:22Z</time>
      </trkpt>
      <trkpt lat="44.75549" lon="1.64094">
        <ele>318</ele>
        <time>2016-12-23T12:52:22Z</time>
      </trkpt>
      <trkpt lat="44.7552" lon="1.64095">
        <ele>319</ele>
        <time>2016-12-23T12:54:22Z</time>
      </trkpt>
      <trkpt lat="44.75539" lon="1.64037">
        <ele>316</ele>
        <time>2016-12-23T12:56:22Z</time>
      </trkpt>
      <trkpt lat="44.75521" lon="1.63981">
        <ele>314</ele>
        <time>2016-12-23T12:58:22Z</time>
      </trkpt>
      <trkpt lat="44.7552" lon="1.63858">
        <ele>309</ele>
        <time>2016-12-23T13:00:22Z</time>
      </trkpt>
      <trkpt lat="44.7554" lon="1.63744">
        <ele>302</ele>
        <time>2016-12-23T13:02:22Z</time>
      </trkpt>
      <trkpt lat="44.75553" lon="1.63709">
        <ele>299</ele>
        <time>2016-12-23T13:04:22Z</time>
      </trkpt>
      <trkpt lat="44.75593" lon="1.6363">
        <ele>295</ele>
        <time>2016-12-23T13:06:22Z</time>
      </trkpt>
      <trkpt lat="44.75631" lon="1.63607">
        <ele>298</ele>
        <time>2016-12-23T13:08:22Z</time>
      </trkpt>
      <trkpt lat="44.75647" lon="1.63572">
        <ele>300</ele>
        <time>2016-12-23T13:10:22Z</time>
      </trkpt>
      <trkpt lat="44.75646" lon="1.63515">
        <ele>300</ele>
        <time>2016-12-23T13:12:22Z</time>
      </trkpt>
      <trkpt lat="44.75624" lon="1.63465">
        <ele>298</ele>
        <time>2016-12-23T13:14:22Z</time>
      </trkpt>
      <trkpt lat="44.75625" lon="1.63405">
        <ele>297</ele>
        <time>2016-12-23T13:16:22Z</time>
      </trkpt>
      <trkpt lat="44.75656" lon="1.63288">
        <ele>296</ele>
        <time>2016-12-23T13:18:22Z</time>
      </trkpt>
      <trkpt lat="44.75696" lon="1.63164">
        <ele>297</ele>
        <time>2016-12-23T13:20:22Z</time>
      </trkpt>
      <trkpt lat="44.75713" lon="1.63066">
        <ele>296</ele>
        <time>2016-12-23T13:22:22Z</time>
      </trkpt>
      <trkpt lat="44.75759" lon="1.62918">
        <ele>299</ele>
        <time>2016-12-23T13:24:22Z</time>
      </trkpt>
      <trkpt lat="44.75797" lon="1.62794">
        <ele>297</ele>
        <time>2016-12-23T13:26:22Z</time>
      </trkpt>
      <trkpt lat="44.75828" lon="1.62727">
        <ele>296</ele>
        <time>2016-12-23T13:28:22Z</time>
      </trkpt>
      <trkpt lat="44.75853" lon="1.62699">
        <ele>295</ele>
        <time>2016-12-23T13:30:22Z</time>
      </trkpt>
      <trkpt lat="44.75855" lon="1.6267">
        <ele>294</ele>
        <time>2016-12-23T13:32:22Z</time>
      </trkpt>
      <trkpt lat="44.75859" lon="1.62598">
        <ele>291</ele>
        <time>2016-12-23T13:34:22Z</time>
      </trkpt>
      <trkpt lat="44.7584" lon="1.62544">
        <ele>288</ele>
        <time>2016-12-23T13:36:22Z</time>
      </trkpt>
      <trkpt lat="44.75828" lon="1.62459">
        <ele>286</ele>
        <time>2016-12-23T13:38:22Z</time>
      </trkpt>
      <trkpt lat="44.75801" lon="1.62362">
        <ele>289</ele>
        <time>2016-12-23T13:40:22Z</time>
      </trkpt>
      <trkpt lat="44.75778" lon="1.62273">
        <ele>295</ele>
        <time>2016-12-23T13:42:22Z</time>
      </trkpt>
      <trkpt lat="44.75759" lon="1.62173">
        <ele>300</ele>
        <time>2016-12-23T13:44:22Z</time>
      </trkpt>
      <trkpt lat="44.75729" lon="1.62069">
        <ele>300</ele>
        <time>2016-12-23T13:46:22Z</time>
      </trkpt>
      <trkpt lat="44.75695" lon="1.61975">
        <ele>297</ele>
        <time>2016-12-23T13:48:22Z</time>
      </trkpt>
      <trkpt lat="44.75679" lon="1.61915">
        <ele>295</ele>
        <time>2016-12-23T13:50:22Z</time>
      </trkpt>
      <trkpt lat="44.75583" lon="1.61784">
        <ele>291</ele>
        <time>2016-12-23T13:52:22Z</time>
      </trkpt>
      <trkpt lat="44.75556" lon="1.61749">
        <ele>292</ele>
        <time>2016-12-23T13:54:22Z</time>
      </trkpt>
      <trkpt lat="44.75509" lon="1.61737">
        <ele>293</ele>
        <time>2016-12-23T13:56:22Z</time>
      </trkpt>
      <trkpt lat="44.75417" lon="1.61767">
        <ele>293</ele>
        <time>2016-12-23T13:58:22Z</time>
      </trkpt>
      <trkpt lat="44.75376" lon="1.61764">
        <ele>290</ele>
        <time>2016-12-23T14:00:22Z</time>
      </trkpt>
      <trkpt lat="44.75356" lon="1.61705">
        <ele>288</ele>
        <time>2016-12-23T14:02:22Z</time>
      </trkpt>
      <trkpt lat="44.75353" lon="1.61673">
        <ele>287</ele>
        <time>2016-12-23T14:04:22Z</time>
      </trkpt>
      <trkpt lat="44.75353" lon="1.61648">
        <ele>287</ele>
        <time>2016-12-23T14:06:22Z</time>
      </trkpt>
      <trkpt lat="44.75308" lon="1.61651">
        <ele>273</ele>
        <time>2016-12-23T14:08:22Z</time>
      </trkpt>
      <trkpt lat="44.75248" lon="1.61649">
        <ele>247</ele>
        <time>2016-12-23T14:10:22Z</time>
      </trkpt>
      <trkpt lat="44.75193" lon="1.6159">
        <ele>232</ele>
        <time>2016-12-23T14:12:22Z</time>
      </trkpt>
      <trkpt lat="44.75204" lon="1.61495">
        <ele>236</ele>
        <time>2016-12-23T14:14:22Z</time>
      </trkpt>
      <trkpt lat="44.75201" lon="1.61429">
        <ele>236</ele>
        <time>2016-12-23T14:16:22Z</time>
      </trkpt>
      <trkpt lat="44.75192" lon="1.6135">
        <ele>232</ele>
        <time>2016-12-23T14:18:22Z</time>
      </trkpt>
      <trkpt lat="44.75207" lon="1.61274">
        <ele>233</ele>
        <time>2016-12-23T14:20:22Z</time>
      </trkpt>
      <trkpt lat="44.75222" lon="1.61195">
        <ele>234</ele>
        <time>2016-12-23T14:22:22Z</time>
      </trkpt>
      <trkpt lat="44.75224" lon="1.611">
        <ele>231</ele>
        <time>2016-12-23T14:24:22Z</time>
      </trkpt>
      <trkpt lat="44.7525" lon="1.61008">
        <ele>223</ele>
        <time>2016-12-23T14:26:22Z</time>
      </trkpt>
      <trkpt lat="44.75281" lon="1.60935">
        <ele>226</ele>
        <time>2016-12-23T14:28:22Z</time>
      </trkpt>
      <trkpt lat="44.75312" lon="1.60866">
        <ele>227</ele>
        <time>2016-12-23T14:30:22Z</time>
      </trkpt>
      <trkpt lat="44.75321" lon="1.60774">
        <ele>222</ele>
        <time>2016-12-23T14:32:22Z</time>
      </trkpt>
      <trkpt lat="44.75304" lon="1.60692">
        <ele>217</ele>
        <time>2016-12-23T14:34:22Z</time>
      </trkpt>
      <trkpt lat="44.75306" lon="1.60635">
        <ele>216</ele>
        <time>2016-12-23T14:36:22Z</time>
      </trkpt>
      <trkpt lat="44.75324" lon="1.60594">
        <ele>214</ele>
        <time>2016-12-23T14:38:22Z</time>
      </trkpt>
      <trkpt lat="44.75393" lon="1.6054">
        <ele>215</ele>
        <time>2016-12-23T14:40:22Z</time>
      </trkpt>
      <trkpt lat="44.75489" lon="1.60475">
        <ele>210</ele>
        <time>2016-12-23T14:42:22Z</time>
      </trkpt>
      <trkpt lat="44.75566" lon="1.60424">
        <ele>201</ele>
        <time>2016-12-23T14:44:22Z</time>
      </trkpt>
      <trkpt lat="44.75558" lon="1.60373">
        <ele>202</ele>
        <time>2016-12-23T14:46:22Z</time>
      </trkpt>
      <trkpt lat="44.75529" lon="1.60298">
        <ele>206</ele>
        <time>2016-12-23T14:48:22Z</time>
      </trkpt>
      <trkpt lat="44.75494" lon="1.60201">
        <ele>204</ele>
        <time>2016-12-23T14:50:22Z</time>
      </trkpt>
      <trkpt lat="44.75445" lon="1.6017">
        <ele>205</ele>
        <time>2016-12-23T14:52:22Z</time>
      </trkpt>
      <trkpt lat="44.7538" lon="1.60196">
        <ele>213</ele>
        <time>2016-12-23T14:54:22Z</time>
      </trkpt>
      <trkpt lat="44.75291" lon="1.60112">
        <ele>213</ele>
        <time>2016-12-23T14:56:22Z</time>
      </trkpt>
      <trkpt lat="44.7523" lon="1.60005">
        <ele>209</ele>
        <time>2016-12-23T14:58:22Z</time>
      </trkpt>
      <trkpt lat="44.75108" lon="1.59906">
        <ele>211</ele>
        <time>2016-12-23T15:00:22Z</time>
      </trkpt>
      <trkpt lat="44.75015" lon="1.59869">
        <ele>215</ele>
        <time>2016-12-23T15:02:22Z</time>
      </trkpt>
      <trkpt lat="44.74871" lon="1.59814">
        <ele>218</ele>
        <time>2016-12-23T15:04:22Z</time>
      </trkpt>
      <trkpt lat="44.74781" lon="1.59834">
        <ele>216</ele>
        <time>2016-12-23T15:06:22Z</time>
      </trkpt>
      <trkpt lat="44.74681" lon="1.59896">
        <ele>217</ele>
        <time>2016-12-23T15:08:22Z</time>
      </trkpt>
      <trkpt lat="44.74565" lon="1.60052">
        <ele>222</ele>
        <time>2016-12-23T15:10:22Z</time>
      </trkpt>
      <trkpt lat="44.74539" lon="1.60071">
        <ele>223</ele>
        <time>2016-12-23T15:12:22Z</time>
      </trkpt>
      <trkpt lat="44.74505" lon="1.60078">
        <ele>221</ele>
        <time>2016-12-23T15:14:22Z</time>
      </trkpt>
      <trkpt lat="44.74491" lon="1.60091">
        <ele>222</ele>
        <time>2016-12-23T15:16:22Z</time>
      </trkpt>
      <trkpt lat="44.74433" lon="1.60192">
        <ele>227</ele>
        <time>2016-12-23T15:18:22Z</time>
      </trkpt>
      <trkpt lat="44.74343" lon="1.6026">
        <ele>224</ele>
        <time>2016-12-23T15:20:22Z</time>
      </trkpt>
      <trkpt lat="44.74312" lon="1.60314">
        <ele>227</ele>
        <time>2016-12-23T15:22:22Z</time>
      </trkpt>
      <trkpt lat="44.74284" lon="1.60399">
        <ele>231</ele>
        <time>2016-12-23T15:24:22Z</time>
      </trkpt>
      <trkpt lat="44.74201" lon="1.60467">
        <ele>229</ele>
        <time>2016-12-23T15:26:22Z</time>
      </trkpt>
      <trkpt lat="44.74132" lon="1.60525">
        <ele>229</ele>
        <time>2016-12-23T15:28:22Z</time>
      </trkpt>
      <trkpt lat="44.74118" lon="1.60575">
        <ele>229</ele>
        <time>2016-12-23T15:30:22Z</time>
      </trkpt>
      <trkpt lat="44.74132" lon="1.60619">
        <ele>232</ele>
        <time>2016-12-23T15:32:22Z</time>
      </trkpt>
      <trkpt lat="44.74122" lon="1.60698">
        <ele>237</ele>
        <time>2016-12-23T15:34:22Z</time>
      </trkpt>
      <trkpt lat="44.74043" lon="1.60747">
        <ele>229</ele>
        <time>2016-12-23T15:36:22Z</time>
      </trkpt>
      <trkpt lat="44.74" lon="1.60757">
        <ele>224</ele>
        <time>2016-12-23T15:38:22Z</time>
      </trkpt>
      <trkpt lat="44.73958" lon="1.6082">
        <ele>228</ele>
        <time>2016-12-23T15:40:22Z</time>
      </trkpt>
      <trkpt lat="44.73918" lon="1.60855">
        <ele>225</ele>
        <time>2016-12-23T15:42:22Z</time>
      </trkpt>
      <trkpt lat="44.73874" lon="1.61004">
        <ele>233</ele>
        <time>2016-12-23T15:44:22Z</time>
      </trkpt>
      <trkpt lat="44.73848" lon="1.6109">
        <ele>227</ele>
        <time>2016-12-23T15:46:22Z</time>
      </trkpt>
      <trkpt lat="44.73835" lon="1.61194">
        <ele>227</ele>
        <time>2016-12-23T15:48:22Z</time>
      </trkpt>
      <trkpt lat="44.73846" lon="1.61251">
        <ele>230</ele>
        <time>2016-12-23T15:50:22Z</time>
      </trkpt>
      <trkpt lat="44.73847" lon="1.61323">
        <ele>232</ele>
        <time>2016-12-23T15:52:22Z</time>
      </trkpt>
      <trkpt lat="44.73802" lon="1.6139">
        <ele>233</ele>
        <time>2016-12-23T15:54:22Z</time>
      </trkpt>
      <trkpt lat="44.73758" lon="1.61429">
        <ele>235</ele>
        <time>2016-12-23T15:56:22Z</time>
      </trkpt>
      <trkpt lat="44.73762" lon="1.61488">
        <ele>233</ele>
        <time>2016-12-23T15:58:22Z</time>
      </trkpt>
      <trkpt lat="44.73763" lon="1.61504">
        <ele>233</ele>
        <time>2016-12-23T16:00:22Z</time>
      </trkpt>
      <trkpt lat="44.73713" lon="1.61527">
        <ele>237</ele>
        <time>2016-12-23T16:02:22Z</time>
      </trkpt>
      <trkpt lat="44.73662" lon="1.61531">
        <ele>240</ele>
        <time>2016-12-23T16:04:22Z</time>
      </trkpt>
      <trkpt lat="44.73608" lon="1.61576">
        <ele>236</ele>
        <time>2016-12-23T16:06:22Z</time>
      </trkpt>
      <trkpt lat="44.7359" lon="1.61614">
        <ele>236</ele>
        <time>2016-12-23T16:08:22Z</time>
      </trkpt>
      <trkpt lat="44.73595" lon="1.61721">
        <ele>247</ele>
        <time>2016-12-23T16:10:22Z</time>
      </trkpt>
      <trkpt lat="44.73591" lon="1.618">
        <ele>250</ele>
        <time>2016-12-23T16:12:22Z</time>
      </trkpt>
      <trkpt lat="44.7354" lon="1.61886">
        <ele>244</ele>
        <time>2016-12-23T16:14:22Z</time>
      </trkpt>
      <trkpt lat="44.73561" lon="1.61993">
        <ele>256</ele>
        <time>2016-12-23T16:16:22Z</time>
      </trkpt>
      <trkpt lat="44.73532" lon="1.62059">
        <ele>252</ele>
        <time>2016-12-23T16:18:22Z</time>
      </trkpt>
      <trkpt lat="44.73474" lon="1.62085">
        <ele>241</ele>
        <time>2016-12-23T16:20:22Z</time>
      </trkpt>
      <trkpt lat="44.73438" lon="1.6207">
        <ele>237</ele>
        <time>2016-12-23T16:22:22Z</time>
      </trkpt>
      <trkpt lat="44.73395" lon="1.62033">
        <ele>237</ele>
        <time>2016-12-23T16:24:22Z</time>
      </trkpt>
      <trkpt lat="44.73377" lon="1.62011">
        <ele>238</ele>
        <time>2016-12-23T16:26:22Z</time>
      </trkpt>
      <trkpt lat="44.73343" lon="1.61958">
        <ele>242</ele>
        <time>2016-12-23T16:28:22Z</time>
      </trkpt>
      <trkpt lat="44.73302" lon="1.61898">
        <ele>249</ele>
        <time>2016-12-23T16:30:22Z</time>
      </trkpt>
      <trkpt lat="44.73277" lon="1.61883">
        <ele>251</ele>
        <time>2016-12-23T16:32:22Z</time>
      </trkpt>
      <trkpt lat="44.73225" lon="1.61858">
        <ele>252</ele>
        <time>2016-12-23T16:34:22Z</time>
      </trkpt>
      <trkpt lat="44.73196" lon="1.61836">
        <ele>251</ele>
        <time>2016-12-23T16:36:22Z</time>
      </trkpt>
      <trkpt lat="44.73162" lon="1.61834">
        <ele>252</ele>
        <time>2016-12-23T16:38:22Z</time>
      </trkpt>
      <trkpt lat="44.73122" lon="1.61878">
        <ele>260</ele>
        <time>2016-12-23T16:40:22Z</time>
      </trkpt>
      <trkpt lat="44.7307" lon="1.61926">
        <ele>263</ele>
        <time>2016-12-23T16:42:22Z</time>
      </trkpt>
      <trkpt lat="44.73044" lon="1.61946">
        <ele>266</ele>
        <time>2016-12-23T16:44:22Z</time>
      </trkpt>
      <trkpt lat="44.73003" lon="1.61965">
        <ele>266</ele>
        <time>2016-12-23T16:46:22Z</time>
      </trkpt>
      <trkpt lat="44.72961" lon="1.61969">
        <ele>266</ele>
        <time>2016-12-23T16:48:22Z</time>
      </trkpt>
      <trkpt lat="44.7292" lon="1.61991">
        <ele>265</ele>
        <time>2016-12-23T16:50:22Z</time>
      </trkpt>
      <trkpt lat="44.72869" lon="1.62011">
        <ele>266</ele>
        <time>2016-12-23T16:52:22Z</time>
      </trkpt>
      <trkpt lat="44.72824" lon="1.62024">
        <ele>267</ele>
        <time>2016-12-23T16:54:22Z</time>
      </trkpt>
      <trkpt lat="44.72738" lon="1.62025">
        <ele>264</ele>
        <time>2016-12-23T16:56:22Z</time>
      </trkpt>
      <trkpt lat="44.72686" lon="1.62001">
        <ele>264</ele>
        <time>2016-12-23T16:58:22Z</time>
      </trkpt>
      <trkpt lat="44.72657" lon="1.61973">
        <ele>267</ele>
        <time>2016-12-23T17:00:22Z</time>
      </trkpt>
      <trkpt lat="44.7263" lon="1.61932">
        <ele>271</ele>
        <time>2016-12-23T17:02:22Z</time>
      </trkpt>
      <trkpt lat="44.72598" lon="1.61882">
        <ele>273</ele>
        <time>2016-12-23T17:04:22Z</time>
      </trkpt>
      <trkpt lat="44.72566" lon="1.61829">
        <ele>271</ele>
        <time>2016-12-23T17:06:22Z</time>
      </trkpt>
      <trkpt lat="44.72541" lon="1.61797">
        <ele>272</ele>
        <time>2016-12-23T17:08:22Z</time>
      </trkpt>
      <trkpt lat="44.72503" lon="1.61785">
        <ele>271</ele>
        <time>2016-12-23T17:10:22Z</time>
      </trkpt>
      <trkpt lat="44.7248" lon="1.6177">
        <ele>271</ele>
        <time>2016-12-23T17:12:22Z</time>
      </trkpt>
      <trkpt lat="44.72471" lon="1.61786">
        <ele>272</ele>
        <time>2016-12-23T17:14:22Z</time>
      </trkpt>
      <trkpt lat="44.72454" lon="1.61821">
        <ele>273</ele>
        <time>2016-12-23T17:16:22Z</time>
      </trkpt>
      <trkpt lat="44.72434" lon="1.61846">
        <ele>277</ele>
        <time>2016-12-23T17:18:22Z</time>
      </trkpt>
      <trkpt lat="44.72393" lon="1.6185">
        <ele>278</ele>
        <time>2016-12-23T17:20:22Z</time>
      </trkpt>
      <trkpt lat="44.7235" lon="1.61844">
        <ele>276</ele>
        <time>2016-12-23T17:22:22Z</time>
      </trkpt>
      <trkpt lat="44.7231" lon="1.61819">
        <ele>278</ele>
        <time>2016-12-23T17:24:22Z</time>
      </trkpt>
      <trkpt lat="44.72265" lon="1.61782">
        <ele>284</ele>
        <time>2016-12-23T17:26:22Z</time>
      </trkpt>
      <trkpt lat="44.72242" lon="1.61716">
        <ele>285</ele>
        <time>2016-12-23T17:28:22Z</time>
      </trkpt>
      <trkpt lat="44.7223" lon="1.6166">
        <ele>287</ele>
        <time>2016-12-23T17:30:22Z</time>
      </trkpt>
      <trkpt lat="44.72209" lon="1.61565">
        <ele>289</ele>
        <time>2016-12-23T17:32:22Z</time>
      </trkpt>
      <trkpt lat="44.72189" lon="1.61506">
        <ele>290</ele>
        <time>2016-12-23T17:34:22Z</time>
      </trkpt>
      <trkpt lat="44.72139" lon="1.61478">
        <ele>295</ele>
        <time>2016-12-23T17:36:22Z</time>
      </trkpt>
      <trkpt lat="44.7208" lon="1.6146">
        <ele>299</ele>
        <time>2016-12-23T17:38:22Z</time>
      </trkpt>
      <trkpt lat="44.7202" lon="1.61454">
        <ele>304</ele>
        <time>2016-12-23T17:40:22Z</time>
      </trkpt>
      <trkpt lat="44.71938" lon="1.61433">
        <ele>311</ele>
        <time>2016-12-23T17:42:22Z</time>
      </trkpt>
      <trkpt lat="44.71844" lon="1.6139">
        <ele>318</ele>
        <time>2016-12-23T17:44:22Z</time>
      </trkpt>
      <trkpt lat="44.71733" lon="1.61322">
        <ele>324</ele>
        <time>2016-12-23T17:46:22Z</time>
      </trkpt>
      <trkpt lat="44.71688" lon="1.61263">
        <ele>324</ele>
        <time>2016-12-23T17:48:22Z</time>
      </trkpt>
      <trkpt lat="44.71636" lon="1.61241">
        <ele>328</ele>
        <time>2016-12-23T17:50:22Z</time>
      </trkpt>
      <trkpt lat="44.71544" lon="1.61221">
        <ele>336</ele>
        <time>2016-12-23T17:52:22Z</time>
      </trkpt>
      <trkpt lat="44.71485" lon="1.61187">
        <ele>339</ele>
        <time>2016-12-23T17:54:22Z</time>
      </trkpt>
      <trkpt lat="44.71399" lon="1.6115">
        <ele>339</ele>
        <time>2016-12-23T17:56:22Z</time>
      </trkpt>
      <trkpt lat="44.71334" lon="1.611">
        <ele>344</ele>
        <time>2016-12-23T17:58:22Z</time>
      </trkpt>
      <trkpt lat="44.71248" lon="1.61111">
        <ele>348</ele>
        <time>2016-12-23T18:00:22Z</time>
      </trkpt>
      <trkpt lat="44.7124" lon="1.61212">
        <ele>347</ele>
        <time>2016-12-23T18:02:22Z</time>
      </trkpt>
      <trkpt lat="44.71231" lon="1.61272">
        <ele>347</ele>
        <time>2016-12-23T18:04:22Z</time>
      </trkpt>
      <trkpt lat="44.71227" lon="1.61329">
        <ele>348</ele>
        <time>2016-12-23T18:06:22Z</time>
      </trkpt>
      <trkpt lat="44.71171" lon="1.61323">
        <ele>347</ele>
        <time>2016-12-23T18:08:22Z</time>
      </trkpt>
      <trkpt lat="44.71113" lon="1.61365">
        <ele>347</ele>
        <time>2016-12-23T18:10:22Z</time>
      </trkpt>
      <trkpt lat="44.71081" lon="1.61381">
        <ele>346</ele>
        <time>2016-12-23T18:12:22Z</time>
      </trkpt>
      <trkpt lat="44.71059" lon="1.61397">
        <ele>346</ele>
        <time>2016-12-23T18:14:22Z</time>
      </trkpt>
      <trkpt lat="44.71043" lon="1.61419">
        <ele>345</ele>
        <time>2016-12-23T18:16:22Z</time>
      </trkpt>
      <trkpt lat="44.71017" lon="1.61451">
        <ele>345</ele>
        <time>2016-12-23T18:18:22Z</time>
      </trkpt>
      <trkpt lat="44.71006" lon="1.61467">
        <ele>345</ele>
        <time>2016-12-23T18:20:22Z</time>
      </trkpt>
      <trkpt lat="44.70976" lon="1.6148">
        <ele>345</ele>
        <time>2016-12-23T18:22:22Z</time>
      </trkpt>
      <trkpt lat="44.70958" lon="1.61496">
        <ele>346</ele>
        <time>2016-12-23T18:24:22Z</time>
      </trkpt>
      <trkpt lat="44.7095" lon="1.61518">
        <ele>345</ele>
        <time>2016-12-23T18:26:22Z</time>
      </trkpt>
      <trkpt lat="44.70927" lon="1.61519">
        <ele>345</ele>
        <time>2016-12-23T18:28:22Z</time>
      </trkpt>
      <trkpt lat="44.70878" lon="1.61535">
        <ele>344</ele>
        <time>2016-12-23T18:30:22Z</time>
      </trkpt>
      <trkpt lat="44.70802" lon="1.61564">
        <ele>341</ele>
        <time>2016-12-23T18:32:22Z</time>
      </trkpt>
      <trkpt lat="44.70736" lon="1.61581">
        <ele>342</ele>
        <time>2016-12-23T18:34:22Z</time>
      </trkpt>
      <trkpt lat="44.70642" lon="1.61623">
        <ele>339</ele>
        <time>2016-12-23T18:36:22Z</time>
      </trkpt>
      <trkpt lat="44.70544" lon="1.61719">
        <ele>340</ele>
        <time>2016-12-23T18:38:22Z</time>
      </trkpt>
      <trkpt lat="44.70289" lon="1.61956">
        <ele>344</ele>
        <time>2016-12-23T18:40:22Z</time>
      </trkpt>
      <trkpt lat="44.70314" lon="1.62031">
        <ele>345</ele>
        <time>2016-12-23T18:42:22Z</time>
      </trkpt>
      <trkpt lat="44.70238" lon="1.62092">
        <ele>349</ele>
        <time>2016-12-23T18:44:22Z</time>
      </trkpt>
      <trkpt lat="44.70151" lon="1.62162">
        <ele>353</ele>
        <time>2016-12-23T18:46:22Z</time>
      </trkpt>
      <trkpt lat="44.7005" lon="1.62236">
        <ele>355</ele>
        <time>2016-12-23T18:48:22Z</time>
      </trkpt>
      <trkpt lat="44.69972" lon="1.62306">
        <ele>359</ele>
        <time>2016-12-23T18:50:22Z</time>
      </trkpt>
      <trkpt lat="44.69914" lon="1.62348">
        <ele>362</ele>
        <time>2016-12-23T18:52:22Z</time>
      </trkpt>
      <trkpt lat="44.69927" lon="1.62332">
        <ele>362</ele>
        <time>2016-12-23T18:54:22Z</time>
      </trkpt>
      <trkpt lat="44.69932" lon="1.6232">
        <ele>361</ele>
        <time>2016-12-23T18:56:22Z</time>
      </trkpt>
      <trkpt lat="44.69804" lon="1.6246">
        <ele>366</ele>
        <time>2016-12-23T18:58:22Z</time>
      </trkpt>
      <trkpt lat="44.69746" lon="1.62527">
        <ele>367</ele>
        <time>2016-12-23T19:00:22Z</time>
      </trkpt>
      <trkpt lat="44.69686" lon="1.626">
        <ele>368</ele>
        <time>2016-12-23T19:02:22Z</time>
      </trkpt>
      <trkpt lat="44.69637" lon="1.6268">
        <ele>367</ele>
        <time>2016-12-23T19:04:22Z</time>
      </trkpt>
      <trkpt lat="44.69579" lon="1.62737">
        <ele>365</ele>
        <time>2016-12-23T19:06:22Z</time>
      </trkpt>
      <trkpt lat="44.69569" lon="1.62851">
        <ele>368</ele>
        <time>2016-12-23T19:08:22Z</time>
      </trkpt>
      <trkpt lat="44.69567" lon="1.62901">
        <ele>369</ele>
        <time>2016-12-23T19:10:22Z</time>
      </trkpt>
      <trkpt lat="44.69511" lon="1.62902">
        <ele>369</ele>
        <time>2016-12-23T19:12:22Z</time>
      </trkpt>
      <trkpt lat="44.69452" lon="1.62928">
        <ele>370</ele>
        <time>2016-12-23T19:14:22Z</time>
      </trkpt>
      <trkpt lat="44.69407" lon="1.62963">
        <ele>371</ele>
        <time>2016-12-23T19:16:22Z</time>
      </trkpt>
      <trkpt lat="44.6936" lon="1.62995">
        <ele>371</ele>
        <time>2016-12-23T19:18:22Z</time>
      </trkpt>
      <trkpt lat="44.6927" lon="1.62914">
        <ele>365</ele>
        <time>2016-12-23T19:20:22Z</time>
      </trkpt>
      <trkpt lat="44.6922" lon="1.62871">
        <ele>359</ele>
        <time>2016-12-23T19:22:22Z</time>
      </trkpt>
      <trkpt lat="44.69371" lon="1.625">
        <ele>351</ele>
        <time>2016-12-23T19:24:22Z</time>
      </trkpt>
      <trkpt lat="44.68983" lon="1.62039">
        <ele>347</ele>
        <time>2016-12-23T19:26:22Z</time>
      </trkpt>
      <trkpt lat="44.68715" lon="1.63391">
        <ele>353</ele>
        <time>2016-12-23T19:28:22Z</time>
      </trkpt>
      <trkpt lat="44.68516" lon="1.63551">
        <ele>364</ele>
        <time>2016-12-23T19:30:22Z</time>
      </trkpt>
      <trkpt lat="44.68452" lon="1.63618">
        <ele>370</ele>
        <time>2016-12-23T19:32:22Z</time>
      </trkpt>
      <trkpt lat="44.68391" lon="1.63676">
        <ele>373</ele>
        <time>2016-12-23T19:34:22Z</time>
      </trkpt>
      <trkpt lat="44.68356" lon="1.63777">
        <ele>374</ele>
        <time>2016-12-23T19:36:22Z</time>
      </trkpt>
      <trkpt lat="44.68323" lon="1.6391">
        <ele>377</ele>
        <time>2016-12-23T19:38:22Z</time>
      </trkpt>
      <trkpt lat="44.68321" lon="1.63966">
        <ele>377</ele>
        <time>2016-12-23T19:40:22Z</time>
      </trkpt>
      <trkpt lat="44.68229" lon="1.63999">
        <ele>376</ele>
        <time>2016-12-23T19:42:22Z</time>
      </trkpt>
      <trkpt lat="44.68175" lon="1.64022">
        <ele>372</ele>
        <time>2016-12-23T19:44:22Z</time>
      </trkpt>
      <trkpt lat="44.68133" lon="1.64063">
        <ele>370</ele>
        <time>2016-12-23T19:46:22Z</time>
      </trkpt>
      <trkpt lat="44.68079" lon="1.64089">
        <ele>368</ele>
        <time>2016-12-23T19:48:22Z</time>
      </trkpt>
      <trkpt lat="44.68023" lon="1.64109">
        <ele>366</ele>
        <time>2016-12-23T19:50:22Z</time>
      </trkpt>
      <trkpt lat="44.67978" lon="1.6415">
        <ele>365</ele>
        <time>2016-12-23T19:52:22Z</time>
      </trkpt>
      <trkpt lat="44.67936" lon="1.64186">
        <ele>364</ele>
        <time>2016-12-23T19:54:22Z</time>
      </trkpt>
      <trkpt lat="44.67852" lon="1.64174">
        <ele>366</ele>
        <time>2016-12-23T19:56:22Z</time>
      </trkpt>
      <trkpt lat="44.67727" lon="1.64169">
        <ele>373</ele>
        <time>2016-12-23T19:58:22Z</time>
      </trkpt>
      <trkpt lat="44.67679" lon="1.64154">
        <ele>376</ele>
        <time>2016-12-23T20:00:22Z</time>
      </trkpt>
      <trkpt lat="44.6765" lon="1.64173">
        <ele>378</ele>
        <time>2016-12-23T20:02:22Z</time>
      </trkpt>
      <trkpt lat="44.67623" lon="1.64177">
        <ele>380</ele>
        <time>2016-12-23T20:04:22Z</time>
      </trkpt>
      <trkpt lat="44.67592" lon="1.64174">
        <ele>382</ele>
        <time>2016-12-23T20:06:22Z</time>
      </trkpt>
      <trkpt lat="44.67568" lon="1.64162">
        <ele>383</ele>
        <time>2016-12-23T20:08:22Z</time>
      </trkpt>
      <trkpt lat="44.67552" lon="1.64156">
        <ele>383</ele>
        <time>2016-12-23T20:10:22Z</time>
      </trkpt>
      <trkpt lat="44.67534" lon="1.6415">
        <ele>383</ele>
        <time>2016-12-23T20:12:22Z</time>
      </trkpt>
      <trkpt lat="44.67467" lon="1.64169">
        <ele>383</ele>
        <time>2016-12-23T20:14:22Z</time>
      </trkpt>
      <trkpt lat="44.67439" lon="1.64252">
        <ele>386</ele>
        <time>2016-12-23T20:16:22Z</time>
      </trkpt>
      <trkpt lat="44.67422" lon="1.64378">
        <ele>389</ele>
        <time>2016-12-23T20:18:22Z</time>
      </trkpt>
      <trkpt lat="44.67393" lon="1.64457">
        <ele>388</ele>
        <time>2016-12-23T20:20:22Z</time>
      </trkpt>
      <trkpt lat="44.67353" lon="1.64549">
        <ele>386</ele>
        <time>2016-12-23T20:22:22Z</time>
      </trkpt>
      <trkpt lat="44.67318" lon="1.64584">
        <ele>386</ele>
        <time>2016-12-23T20:24:22Z</time>
      </trkpt>
      <trkpt lat="44.67264" lon="1.6461">
        <ele>384</ele>
        <time>2016-12-23T20:26:22Z</time>
      </trkpt>
      <trkpt lat="44.67253" lon="1.64664">
        <ele>383</ele>
        <time>2016-12-23T20:28:22Z</time>
      </trkpt>
      <trkpt lat="44.67206" lon="1.64661">
        <ele>383</ele>
        <time>2016-12-23T20:30:22Z</time>
      </trkpt>
      <trkpt lat="44.67148" lon="1.64709">
        <ele>382</ele>
        <time>2016-12-23T20:32:22Z</time>
      </trkpt>
      <trkpt lat="44.6711" lon="1.64782">
        <ele>380</ele>
        <time>2016-12-23T20:34:22Z</time>
      </trkpt>
      <trkpt lat="44.67083" lon="1.64773">
        <ele>378</ele>
        <time>2016-12-23T20:36:22Z</time>
      </trkpt>
      <trkpt lat="44.67026" lon="1.64736">
        <ele>376</ele>
        <time>2016-12-23T20:38:22Z</time>
      </trkpt>
      <trkpt lat="44.66938" lon="1.64652">
        <ele>374</ele>
        <time>2016-12-23T20:40:22Z</time>
      </trkpt>
      <trkpt lat="44.66843" lon="1.64555">
        <ele>370</ele>
        <time>2016-12-23T20:42:22Z</time>
      </trkpt>
      <trkpt lat="44.66784" lon="1.64509">
        <ele>369</ele>
        <time>2016-12-23T20:44:22Z</time>
      </trkpt>
      <trkpt lat="44.66751" lon="1.64515">
        <ele>369</ele>
        <time>2016-12-23T20:46:22Z</time>
      </trkpt>
      <trkpt lat="44.66704" lon="1.64595">
        <ele>368</ele>
        <time>2016-12-23T20:48:22Z</time>
      </trkpt>
      <trkpt lat="44.66648" lon="1.64617">
        <ele>367</ele>
        <time>2016-12-23T20:50:22Z</time>
      </trkpt>
      <trkpt lat="44.6661" lon="1.64637">
        <ele>366</ele>
        <time>2016-12-23T20:52:22Z</time>
      </trkpt>
      <trkpt lat="44.66574" lon="1.64631">
        <ele>365</ele>
        <time>2016-12-23T20:54:22Z</time>
      </trkpt>
      <trkpt lat="44.66527" lon="1.64795">
        <ele>364</ele>
        <time>2016-12-23T20:56:22Z</time>
      </trkpt>
      <trkpt lat="44.66483" lon="1.64912">
        <ele>363</ele>
        <time>2016-12-23T20:58:22Z</time>
      </trkpt>
      <trkpt lat="44.66473" lon="1.65149">
        <ele>368</ele>
        <time>2016-12-23T21:00:22Z</time>
      </trkpt>
      <trkpt lat="44.66447" lon="1.65159">
        <ele>367</ele>
        <time>2016-12-23T21:02:22Z</time>
      </trkpt>
      <trkpt lat="44.66406" lon="1.6521">
        <ele>366</ele>
        <time>2016-12-23T21:04:22Z</time>
      </trkpt>
      <trkpt lat="44.66398" lon="1.65266">
        <ele>368</ele>
        <time>2016-12-23T21:06:22Z</time>
      </trkpt>
      <trkpt lat="44.66412" lon="1.65348">
        <ele>372</ele>
        <time>2016-12-23T21:08:22Z</time>
      </trkpt>
      <trkpt lat="44.66455" lon="1.65458">
        <ele>376</ele>
        <time>2016-12-23T21:10:22Z</time>
      </trkpt>
      <trkpt lat="44.66442" lon="1.65553">
        <ele>379</ele>
        <time>2016-12-23T21:12:22Z</time>
      </trkpt>
      <trkpt lat="44.66443" lon="1.65619">
        <ele>381</ele>
        <time>2016-12-23T21:14:22Z</time>
      </trkpt>
      <trkpt lat="44.66459" lon="1.65716">
        <ele>385</ele>
        <time>2016-12-23T21:16:22Z</time>
      </trkpt>
      <trkpt lat="44.66469" lon="1.65811">
        <ele>388</ele>
        <time>2016-12-23T21:18:22Z</time>
      </trkpt>
      <trkpt lat="44.66464" lon="1.65855">
        <ele>389</ele>
        <time>2016-12-23T21:20:22Z</time>
      </trkpt>
      <trkpt lat="44.6644" lon="1.65953">
        <ele>391</ele>
        <time>2016-12-23T21:22:22Z</time>
      </trkpt>
      <trkpt lat="44.66438" lon="1.65972">
        <ele>391</ele>
        <time>2016-12-23T21:24:22Z</time>
      </trkpt>
      <trkpt lat="44.66472" lon="1.66009">
        <ele>393</ele>
        <time>2016-12-23T21:26:22Z</time>
      </trkpt>
      <trkpt lat="44.66529" lon="1.66068">
        <ele>396</ele>
        <time>2016-12-23T21:28:22Z</time>
      </trkpt>
      <trkpt lat="44.66492" lon="1.66099">
        <ele>394</ele>
        <time>2016-12-23T21:30:22Z</time>
      </trkpt>
      <trkpt lat="44.66456" lon="1.66115">
        <ele>392</ele>
        <time>2016-12-23T21:32:22Z</time>
      </trkpt>
      <trkpt lat="44.66386" lon="1.66054">
        <ele>388</ele>
        <time>2016-12-23T21:34:22Z</time>
      </trkpt>
      <trkpt lat="44.66354" lon="1.66023">
        <ele>387</ele>
        <time>2016-12-23T21:36:22Z</time>
      </trkpt>
      <trkpt lat="44.66269" lon="1.65971">
        <ele>382</ele>
        <time>2016-12-23T21:38:22Z</time>
      </trkpt>
      <trkpt lat="44.66251" lon="1.6587">
        <ele>378</ele>
        <time>2016-12-23T21:40:22Z</time>
      </trkpt>
      <trkpt lat="44.66227" lon="1.65763">
        <ele>373</ele>
        <time>2016-12-23T21:42:22Z</time>
      </trkpt>
      <trkpt lat="44.662" lon="1.65653">
        <ele>369</ele>
        <time>2016-12-23T21:44:22Z</time>
      </trkpt>
      <trkpt lat="44.66166" lon="1.65553">
        <ele>367</ele>
        <time>2016-12-23T21:46:22Z</time>
      </trkpt>
      <trkpt lat="44.66115" lon="1.65415">
        <ele>365</ele>
        <time>2016-12-23T21:48:22Z</time>
      </trkpt>
      <trkpt lat="44.66074" lon="1.65311">
        <ele>365</ele>
        <time>2016-12-23T21:50:22Z</time>
      </trkpt>
      <trkpt lat="44.6606" lon="1.65258">
        <ele>364</ele>
        <time>2016-12-23T21:52:22Z</time>
      </trkpt>
      <trkpt lat="44.66042" lon="1.65189">
        <ele>363</ele>
        <time>2016-12-23T21:54:22Z</time>
      </trkpt>
      <trkpt lat="44.66008" lon="1.65129">
        <ele>361</ele>
        <time>2016-12-23T21:56:22Z</time>
      </trkpt>
      <trkpt lat="44.6599" lon="1.65095">
        <ele>360</ele>
        <time>2016-12-23T21:58:22Z</time>
      </trkpt>
      <trkpt lat="44.6596" lon="1.65048">
        <ele>359</ele>
        <time>2016-12-23T22:00:22Z</time>
      </trkpt>
      <trkpt lat="44.65926" lon="1.64941">
        <ele>360</ele>
        <time>2016-12-23T22:02:22Z</time>
      </trkpt>
      <trkpt lat="44.65894" lon="1.64831">
        <ele>358</ele>
        <time>2016-12-23T22:04:22Z</time>
      </trkpt>
      <trkpt lat="44.65843" lon="1.64637">
        <ele>351</ele>
        <time>2016-12-23T22:06:22Z</time>
      </trkpt>
      <trkpt lat="44.65804" lon="1.64492">
        <ele>352</ele>
        <time>2016-12-23T22:08:22Z</time>
      </trkpt>
      <trkpt lat="44.6579" lon="1.64442">
        <ele>353</ele>
        <time>2016-12-23T22:10:22Z</time>
      </trkpt>
      <trkpt lat="44.65765" lon="1.64446">
        <ele>354</ele>
        <time>2016-12-23T22:12:22Z</time>
      </trkpt>
      <trkpt lat="44.65741" lon="1.64446">
        <ele>355</ele>
        <time>2016-12-23T22:14:22Z</time>
      </trkpt>
      <trkpt lat="44.65705" lon="1.64478">
        <ele>355</ele>
        <time>2016-12-23T22:16:22Z</time>
      </trkpt>
      <trkpt lat="44.65637" lon="1.64472">
        <ele>354</ele>
        <time>2016-12-23T22:18:22Z</time>
      </trkpt>
      <trkpt lat="44.655" lon="1.64436">
        <ele>354</ele>
        <time>2016-12-23T22:20:22Z</time>
      </trkpt>
      <trkpt lat="44.65387" lon="1.64397">
        <ele>352</ele>
        <time>2016-12-23T22:22:22Z</time>
      </trkpt>
      <trkpt lat="44.65293" lon="1.64403">
        <ele>353</ele>
        <time>2016-12-23T22:24:22Z</time>
      </trkpt>
      <trkpt lat="44.65182" lon="1.64398">
        <ele>352</ele>
        <time>2016-12-23T22:26:22Z</time>
      </trkpt>
      <trkpt lat="44.65112" lon="1.64398">
        <ele>352</ele>
        <time>2016-12-23T22:28:22Z</time>
      </trkpt>
      <trkpt lat="44.65041" lon="1.64384">
        <ele>354</ele>
        <time>2016-12-23T22:30:22Z</time>
      </trkpt>
      <trkpt lat="44.64962" lon="1.64364">
        <ele>358</ele>
        <time>2016-12-23T22:32:22Z</time>
      </trkpt>
      <trkpt lat="44.64888" lon="1.64334">
        <ele>362</ele>
        <time>2016-12-23T22:34:22Z</time>
      </trkpt>
      <trkpt lat="44.64856" lon="1.64309">
        <ele>363</ele>
        <time>2016-12-23T22:36:22Z</time>
      </trkpt>
      <trkpt lat="44.64786" lon="1.64288">
        <ele>363</ele>
        <time>2016-12-23T22:38:22Z</time>
      </trkpt>
      <trkpt lat="44.64732" lon="1.64266">
        <ele>361</ele>
        <time>2016-12-23T22:40:22Z</time>
      </trkpt>
      <trkpt lat="44.64679" lon="1.64279">
        <ele>359</ele>
        <time>2016-12-23T22:42:22Z</time>
      </trkpt>
      <trkpt lat="44.64611" lon="1.64293">
        <ele>355</ele>
        <time>2016-12-23T22:44:22Z</time>
      </trkpt>
      <trkpt lat="44.6455" lon="1.643">
        <ele>351</ele>
        <time>2016-12-23T22:46:22Z</time>
      </trkpt>
      <trkpt lat="44.64456" lon="1.64355">
        <ele>350</ele>
        <time>2016-12-23T22:48:22Z</time>
      </trkpt>
      <trkpt lat="44.64398" lon="1.64399">
        <ele>351</ele>
        <time>2016-12-23T22:50:22Z</time>
      </trkpt>
      <trkpt lat="44.64349" lon="1.64454">
        <ele>349</ele>
        <time>2016-12-23T22:52:22Z</time>
      </trkpt>
      <trkpt lat="44.64306" lon="1.64492">
        <ele>348</ele>
        <time>2016-12-23T22:54:22Z</time>
      </trkpt>
      <trkpt lat="44.64277" lon="1.64552">
        <ele>348</ele>
        <time>2016-12-23T22:56:22Z</time>
      </trkpt>
      <trkpt lat="44.64273" lon="1.64593">
        <ele>348</ele>
        <time>2016-12-23T22:58:22Z</time>
      </trkpt>
      <trkpt lat="44.64222" lon="1.64682">
        <ele>344</ele>
        <time>2016-12-23T23:00:22Z</time>
      </trkpt>
      <trkpt lat="44.64162" lon="1.64755">
        <ele>342</ele>
        <time>2016-12-23T23:02:22Z</time>
      </trkpt>
      <trkpt lat="44.64061" lon="1.64845">
        <ele>343</ele>
        <time>2016-12-23T23:04:22Z</time>
      </trkpt>
      <trkpt lat="44.64041" lon="1.64857">
        <ele>344</ele>
        <time>2016-12-23T23:06:22Z</time>
      </trkpt>
      <trkpt lat="44.63936" lon="1.6495">
        <ele>346</ele>
        <time>2016-12-23T23:08:22Z</time>
      </trkpt>
      <trkpt lat="44.63867" lon="1.65017">
        <ele>349</ele>
        <time>2016-12-23T23:10:22Z</time>
      </trkpt>
      <trkpt lat="44.63806" lon="1.65093">
        <ele>353</ele>
        <time>2016-12-23T23:12:22Z</time>
      </trkpt>
      <trkpt lat="44.63762" lon="1.65188">
        <ele>358</ele>
        <time>2016-12-23T23:14:22Z</time>
      </trkpt>
      <trkpt lat="44.63722" lon="1.65245">
        <ele>360</ele>
        <time>2016-12-23T23:16:22Z</time>
      </trkpt>
      <trkpt lat="44.63668" lon="1.65268">
        <ele>362</ele>
        <time>2016-12-23T23:18:22Z</time>
      </trkpt>
      <trkpt lat="44.6363" lon="1.65234">
        <ele>362</ele>
        <time>2016-12-23T23:20:22Z</time>
      </trkpt>
      <trkpt lat="44.63607" lon="1.65193">
        <ele>362</ele>
        <time>2016-12-23T23:22:22Z</time>
      </trkpt>
      <trkpt lat="44.63598" lon="1.65153">
        <ele>361</ele>
        <time>2016-12-23T23:24:22Z</time>
      </trkpt>
      <trkpt lat="44.63575" lon="1.6508">
        <ele>359</ele>
        <time>2016-12-23T23:26:22Z</time>
      </trkpt>
      <trkpt lat="44.63549" lon="1.64983">
        <ele>358</ele>
        <time>2016-12-23T23:28:22Z</time>
      </trkpt>
      <trkpt lat="44.63502" lon="1.64936">
        <ele>358</ele>
        <time>2016-12-23T23:30:22Z</time>
      </trkpt>
      <trkpt lat="44.6347" lon="1.64902">
        <ele>359</ele>
        <time>2016-12-23T23:32:22Z</time>
      </trkpt>
      <trkpt lat="44.63432" lon="1.64865">
        <ele>361</ele>
        <time>2016-12-23T23:34:22Z</time>
      </trkpt>
      <trkpt lat="44.63357" lon="1.64828">
        <ele>371</ele>
        <time>2016-12-23T23:36:22Z</time>
      </trkpt>
      <trkpt lat="44.63301" lon="1.64803">
        <ele>379</ele>
        <time>2016-12-23T23:38:22Z</time>
      </trkpt>
      <trkpt lat="44.63225" lon="1.64817">
        <ele>385</ele>
        <time>2016-12-23T23:40:22Z</time>
      </trkpt>
      <trkpt lat="44.63175" lon="1.64786">
        <ele>391</ele>
        <time>2016-12-23T23:42:22Z</time>
      </trkpt>
      <trkpt lat="44.63141" lon="1.64749">
        <ele>398</ele>
        <time>2016-12-23T23:44:22Z</time>
      </trkpt>
      <trkpt lat="44.63076" lon="1.64746">
        <ele>397</ele>
        <time>2016-12-23T23:46:22Z</time>
      </trkpt>
      <trkpt lat="44.62995" lon="1.64738">
        <ele>402</ele>
        <time>2016-12-23T23:48:22Z</time>
      </trkpt>
      <trkpt lat="44.62936" lon="1.64736">
        <ele>406</ele>
        <time>2016-12-23T23:50:22Z</time>
      </trkpt>
      <trkpt lat="44.62882" lon="1.6472">
        <ele>408</ele>
        <time>2016-12-23T23:52:22Z</time>
      </trkpt>
      <trkpt lat="44.62801" lon="1.64677">
        <ele>413</ele>
        <time>2016-12-23T23:54:22Z</time>
      </trkpt>
      <trkpt lat="44.62733" lon="1.64612">
        <ele>415</ele>
        <time>2016-12-23T23:56:22Z</time>
      </trkpt>
      <trkpt lat="44.62692" lon="1.64562">
        <ele>416</ele>
        <time>2016-12-23T23:58:22Z</time>
      </trkpt>
      <trkpt lat="44.62647" lon="1.64528">
        <ele>417</ele>
        <time>2016-12-24T00:00:22Z</time>
      </trkpt>
      <trkpt lat="44.62588" lon="1.64466">
        <ele>414</ele>
        <time>2016-12-24T00:02:22Z</time>
      </trkpt>
      <trkpt lat="44.62543" lon="1.64441">
        <ele>411</ele>
        <time>2016-12-24T00:04:22Z</time>
      </trkpt>
      <trkpt lat="44.62523" lon="1.64401">
        <ele>409</ele>
        <time>2016-12-24T00:06:22Z</time>
      </trkpt>
      <trkpt lat="44.62467" lon="1.64408">
        <ele>407</ele>
        <time>2016-12-24T00:08:22Z</time>
      </trkpt>
      <trkpt lat="44.62428" lon="1.64417">
        <ele>405</ele>
        <time>2016-12-24T00:10:22Z</time>
      </trkpt>
      <trkpt lat="44.62379" lon="1.64412">
        <ele>399</ele>
        <time>2016-12-24T00:12:22Z</time>
      </trkpt>
      <trkpt lat="44.62356" lon="1.64387">
        <ele>395</ele>
        <time>2016-12-24T00:14:22Z</time>
      </trkpt>
      <trkpt lat="44.6232" lon="1.64359">
        <ele>390</ele>
        <time>2016-12-24T00:16:22Z</time>
      </trkpt>
      <trkpt lat="44.62261" lon="1.64294">
        <ele>381</ele>
        <time>2016-12-24T00:18:22Z</time>
      </trkpt>
      <trkpt lat="44.62167" lon="1.6427">
        <ele>371</ele>
        <time>2016-12-24T00:20:22Z</time>
      </trkpt>
      <trkpt lat="44.62133" lon="1.64267">
        <ele>369</ele>
        <time>2016-12-24T00:22:22Z</time>
      </trkpt>
      <trkpt lat="44.62147" lon="1.64326">
        <ele>368</ele>
        <time>2016-12-24T00:24:22Z</time>
      </trkpt>
      <trkpt lat="44.62111" lon="1.64346">
        <ele>364</ele>
        <time>2016-12-24T00:26:22Z</time>
      </trkpt>
      <trkpt lat="44.62082" lon="1.64352">
        <ele>361</ele>
        <time>2016-12-24T00:28:22Z</time>
      </trkpt>
      <trkpt lat="44.62024" lon="1.64419">
        <ele>356</ele>
        <time>2016-12-24T00:30:22Z</time>
      </trkpt>
      <trkpt lat="44.61977" lon="1.6448">
        <ele>354</ele>
        <time>2016-12-24T00:32:22Z</time>
      </trkpt>
      <trkpt lat="44.61903" lon="1.6449">
        <ele>351</ele>
        <time>2016-12-24T00:34:22Z</time>
      </trkpt>
      <trkpt lat="44.61883" lon="1.64575">
        <ele>345</ele>
        <time>2016-12-24T00:36:22Z</time>
      </trkpt>
      <trkpt lat="44.61836" lon="1.64664">
        <ele>347</ele>
        <time>2016-12-24T00:38:22Z</time>
      </trkpt>
      <trkpt lat="44.6183" lon="1.6474">
        <ele>353</ele>
        <time>2016-12-24T00:40:22Z</time>
      </trkpt>
      <trkpt lat="44.61829" lon="1.64938">
        <ele>360</ele>
        <time>2016-12-24T00:42:22Z</time>
      </trkpt>
      <trkpt lat="44.61834" lon="1.65051">
        <ele>360</ele>
        <time>2016-12-24T00:44:22Z</time>
      </trkpt>
      <trkpt lat="44.61804" lon="1.65181">
        <ele>362</ele>
        <time>2016-12-24T00:46:22Z</time>
      </trkpt>
      <trkpt lat="44.61794" lon="1.65417">
        <ele>372</ele>
        <time>2016-12-24T00:48:22Z</time>
      </trkpt>
      <trkpt lat="44.61795" lon="1.65546">
        <ele>370</ele>
        <time>2016-12-24T00:50:22Z</time>
      </trkpt>
      <trkpt lat="44.61759" lon="1.65691">
        <ele>369</ele>
        <time>2016-12-24T00:52:22Z</time>
      </trkpt>
      <trkpt lat="44.6176" lon="1.65735">
        <ele>370</ele>
        <time>2016-12-24T00:54:22Z</time>
      </trkpt>
      <trkpt lat="44.61774" lon="1.65889">
        <ele>380</ele>
        <time>2016-12-24T00:56:22Z</time>
      </trkpt>
      <trkpt lat="44.61768" lon="1.66056">
        <ele>390</ele>
        <time>2016-12-24T00:58:22Z</time>
      </trkpt>
      <trkpt lat="44.61738" lon="1.66192">
        <ele>387</ele>
        <time>2016-12-24T01:00:22Z</time>
      </trkpt>
      <trkpt lat="44.6173" lon="1.6635">
        <ele>388</ele>
        <time>2016-12-24T01:02:22Z</time>
      </trkpt>
      <trkpt lat="44.6171" lon="1.66463">
        <ele>387</ele>
        <time>2016-12-24T01:04:22Z</time>
      </trkpt>
      <trkpt lat="44.61689" lon="1.66621">
        <ele>384</ele>
        <time>2016-12-24T01:06:22Z</time>
      </trkpt>
      <trkpt lat="44.61639" lon="1.66889">
        <ele>380</ele>
        <time>2016-12-24T01:08:22Z</time>
      </trkpt>
      <trkpt lat="44.61597" lon="1.67107">
        <ele>382</ele>
        <time>2016-12-24T01:10:22Z</time>
      </trkpt>
      <trkpt lat="44.61546" lon="1.67258">
        <ele>382</ele>
        <time>2016-12-24T01:12:22Z</time>
      </trkpt>
      <trkpt lat="44.61505" lon="1.67407">
        <ele>382</ele>
        <time>2016-12-24T01:14:22Z</time>
      </trkpt>
      <trkpt lat="44.6147" lon="1.67599">
        <ele>380</ele>
        <time>2016-12-24T01:16:22Z</time>
      </trkpt>
      <trkpt lat="44.61427" lon="1.67578">
        <ele>381</ele>
        <time>2016-12-24T01:18:22Z</time>
      </trkpt>
      <trkpt lat="44.61404" lon="1.67512">
        <ele>382</ele>
        <time>2016-12-24T01:20:22Z</time>
      </trkpt>
      <trkpt lat="44.61406" lon="1.67411">
        <ele>382</ele>
        <time>2016-12-24T01:22:22Z</time>
      </trkpt>
      <trkpt lat="44.61414" lon="1.67285">
        <ele>389</ele>
        <time>2016-12-24T01:24:22Z</time>
      </trkpt>
      <trkpt lat="44.61422" lon="1.67165">
        <ele>395</ele>
        <time>2016-12-24T01:26:22Z</time>
      </trkpt>
      <trkpt lat="44.61406" lon="1.67118">
        <ele>399</ele>
        <time>2016-12-24T01:28:22Z</time>
      </trkpt>
      <trkpt lat="44.61343" lon="1.67069">
        <ele>408</ele>
        <time>2016-12-24T01:30:22Z</time>
      </trkpt>
      <trkpt lat="44.61277" lon="1.67013">
        <ele>417</ele>
        <time>2016-12-24T01:32:22Z</time>
      </trkpt>
      <trkpt lat="44.61223" lon="1.66985">
        <ele>422</ele>
        <time>2016-12-24T01:34:22Z</time>
      </trkpt>
      <trkpt lat="44.61121" lon="1.67163">
        <ele>419</ele>
        <time>2016-12-24T01:36:22Z</time>
      </trkpt>
      <trkpt lat="44.61032" lon="1.67321">
        <ele>421</ele>
        <time>2016-12-24T01:38:22Z</time>
      </trkpt>
      <trkpt lat="44.60979" lon="1.67419">
        <ele>426</ele>
        <time>2016-12-24T01:40:22Z</time>
      </trkpt>
      <trkpt lat="44.60847" lon="1.67597">
        <ele>424</ele>
        <time>2016-12-24T01:42:22Z</time>
      </trkpt>
      <trkpt lat="44.60799" lon="1.67783">
        <ele>418</ele>
        <time>2016-12-24T01:44:22Z</time>
      </trkpt>
      <trkpt lat="44.60722" lon="1.68042">
        <ele>395</ele>
        <time>2016-12-24T01:46:22Z</time>
      </trkpt>
      <trkpt lat="44.6068" lon="1.68172">
        <ele>390</ele>
        <time>2016-12-24T01:48:22Z</time>
      </trkpt>
      <trkpt lat="44.60682" lon="1.68203">
        <ele>388</ele>
        <time>2016-12-24T01:50:22Z</time>
      </trkpt>
      <trkpt lat="44.60662" lon="1.68307">
        <ele>386</ele>
        <time>2016-12-24T01:52:22Z</time>
      </trkpt>
      <trkpt lat="44.60679" lon="1.68465">
        <ele>388</ele>
        <time>2016-12-24T01:54:22Z</time>
      </trkpt>
      <trkpt lat="44.60691" lon="1.68603">
        <ele>391</ele>
        <time>2016-12-24T01:56:22Z</time>
      </trkpt>
      <trkpt lat="44.60627" lon="1.68783">
        <ele>383</ele>
        <time>2016-12-24T01:58:22Z</time>
      </trkpt>
      <trkpt lat="44.60594" lon="1.68938">
        <ele>378</ele>
        <time>2016-12-24T02:00:22Z</time>
      </trkpt>
      <trkpt lat="44.6054" lon="1.6896">
        <ele>375</ele>
        <time>2016-12-24T02:02:22Z</time>
      </trkpt>
      <trkpt lat="44.60502" lon="1.68967">
        <ele>373</ele>
        <time>2016-12-24T02:04:22Z</time>
      </trkpt>
      <trkpt lat="44.60471" lon="1.68964">
        <ele>371</ele>
        <time>2016-12-24T02:06:22Z</time>
      </trkpt>
      <trkpt lat="44.60435" lon="1.6894">
        <ele>369</ele>
        <time>2016-12-24T02:08:22Z</time>
      </trkpt>
      <trkpt lat="44.60405" lon="1.68868">
        <ele>368</ele>
        <time>2016-12-24T02:10:22Z</time>
      </trkpt>
      <trkpt lat="44.60353" lon="1.68805">
        <ele>368</ele>
        <time>2016-12-24T02:12:22Z</time>
      </trkpt>
      <trkpt lat="44.60278" lon="1.68768">
        <ele>367</ele>
        <time>2016-12-24T02:14:22Z</time>
      </trkpt>
      <trkpt lat="44.60263" lon="1.6886">
        <ele>366</ele>
        <time>2016-12-24T02:16:22Z</time>
      </trkpt>
      <trkpt lat="44.60189" lon="1.68886">
        <ele>363</ele>
        <time>2016-12-24T02:18:22Z</time>
      </trkpt>
      <trkpt lat="44.60158" lon="1.6893">
        <ele>361</ele>
        <time>2016-12-24T02:20:22Z</time>
      </trkpt>
      <trkpt lat="44.60102" lon="1.68899">
        <ele>358</ele>
        <time>2016-12-24T02:22:22Z</time>
      </trkpt>
      <trkpt lat="44.60059" lon="1.68947">
        <ele>355</ele>
        <time>2016-12-24T02:24:22Z</time>
      </trkpt>
      <trkpt lat="44.60003" lon="1.68932">
        <ele>349</ele>
        <time>2016-12-24T02:26:22Z</time>
      </trkpt>
      <trkpt lat="44.59938" lon="1.68942">
        <ele>344</ele>
        <time>2016-12-24T02:28:22Z</time>
      </trkpt>
      <trkpt lat="44.59859" lon="1.68956">
        <ele>337</ele>
        <time>2016-12-24T02:30:22Z</time>
      </trkpt>
      <trkpt lat="44.59763" lon="1.68985">
        <ele>331</ele>
        <time>2016-12-24T02:32:22Z</time>
      </trkpt>
      <trkpt lat="44.597" lon="1.69039">
        <ele>328</ele>
        <time>2016-12-24T02:34:22Z</time>
      </trkpt>
      <trkpt lat="44.59606" lon="1.69056">
        <ele>324</ele>
        <time>2016-12-24T02:36:22Z</time>
      </trkpt>
      <trkpt lat="44.59505" lon="1.69174">
        <ele>318</ele>
        <time>2016-12-24T02:38:22Z</time>
      </trkpt>
      <trkpt lat="44.59441" lon="1.69291">
        <ele>313</ele>
        <time>2016-12-24T02:40:22Z</time>
      </trkpt>
      <trkpt lat="44.59376" lon="1.69373">
        <ele>308</ele>
        <time>2016-12-24T02:42:22Z</time>
      </trkpt>
      <trkpt lat="44.5932" lon="1.69437">
        <ele>306</ele>
        <time>2016-12-24T02:44:22Z</time>
      </trkpt>
      <trkpt lat="44.59277" lon="1.69469">
        <ele>303</ele>
        <time>2016-12-24T02:46:22Z</time>
      </trkpt>
      <trkpt lat="44.59233" lon="1.69554">
        <ele>301</ele>
        <time>2016-12-24T02:48:22Z</time>
      </trkpt>
      <trkpt lat="44.59188" lon="1.69577">
        <ele>299</ele>
        <time>2016-12-24T02:50:22Z</time>
      </trkpt>
      <trkpt lat="44.59137" lon="1.69634">
        <ele>297</ele>
        <time>2016-12-24T02:52:22Z</time>
      </trkpt>
      <trkpt lat="44.5908" lon="1.69622">
        <ele>295</ele>
        <time>2016-12-24T02:54:22Z</time>
      </trkpt>
      <trkpt lat="44.59056" lon="1.69657">
        <ele>294</ele>
        <time>2016-12-24T02:56:22Z</time>
      </trkpt>
      <trkpt lat="44.59009" lon="1.69664">
        <ele>292</ele>
        <time>2016-12-24T02:58:22Z</time>
      </trkpt>
      <trkpt lat="44.58926" lon="1.69706">
        <ele>293</ele>
        <time>2016-12-24T03:00:22Z</time>
      </trkpt>
      <trkpt lat="44.58863" lon="1.69751">
        <ele>293</ele>
        <time>2016-12-24T03:02:22Z</time>
      </trkpt>
      <trkpt lat="44.58821" lon="1.69798">
        <ele>293</ele>
        <time>2016-12-24T03:04:22Z</time>
      </trkpt>
      <trkpt lat="44.58754" lon="1.69868">
        <ele>295</ele>
        <time>2016-12-24T03:06:22Z</time>
      </trkpt>
      <trkpt lat="44.58754" lon="1.69909">
        <ele>295</ele>
        <time>2016-12-24T03:08:22Z</time>
      </trkpt>
      <trkpt lat="44.58788" lon="1.69969">
        <ele>295</ele>
        <time>2016-12-24T03:10:22Z</time>
      </trkpt>
      <trkpt lat="44.58804" lon="1.70041">
        <ele>298</ele>
        <time>2016-12-24T03:12:22Z</time>
      </trkpt>
      <trkpt lat="44.58805" lon="1.70116">
        <ele>301</ele>
        <time>2016-12-24T03:14:22Z</time>
      </trkpt>
      <trkpt lat="44.5875" lon="1.70085">
        <ele>303</ele>
        <time>2016-12-24T03:16:22Z</time>
      </trkpt>
      <trkpt lat="44.58685" lon="1.70099">
        <ele>304</ele>
        <time>2016-12-24T03:18:22Z</time>
      </trkpt>
      <trkpt lat="44.58636" lon="1.7015">
        <ele>305</ele>
        <time>2016-12-24T03:20:22Z</time>
      </trkpt>
      <trkpt lat="44.58559" lon="1.70125">
        <ele>303</ele>
        <time>2016-12-24T03:22:22Z</time>
      </trkpt>
      <trkpt lat="44.58467" lon="1.70101">
        <ele>304</ele>
        <time>2016-12-24T03:24:22Z</time>
      </trkpt>
      <trkpt lat="44.58398" lon="1.70118">
        <ele>304</ele>
        <time>2016-12-24T03:26:22Z</time>
      </trkpt>
      <trkpt lat="44.58342" lon="1.70153">
        <ele>303</ele>
        <time>2016-12-24T03:28:22Z</time>
      </trkpt>
      <trkpt lat="44.58319" lon="1.70125">
        <ele>304</ele>
        <time>2016-12-24T03:30:22Z</time>
      </trkpt>
      <trkpt lat="44.58294" lon="1.70087">
        <ele>305</ele>
        <time>2016-12-24T03:32:22Z</time>
      </trkpt>
      <trkpt lat="44.58238" lon="1.70098">
        <ele>303</ele>
        <time>2016-12-24T03:34:22Z</time>
      </trkpt>
      <trkpt lat="44.58195" lon="1.70129">
        <ele>303</ele>
        <time>2016-12-24T03:36:22Z</time>
      </trkpt>
      <trkpt lat="44.58151" lon="1.70187">
        <ele>303</ele>
        <time>2016-12-24T03:38:22Z</time>
      </trkpt>
      <trkpt lat="44.58095" lon="1.7025">
        <ele>304</ele>
        <time>2016-12-24T03:40:22Z</time>
      </trkpt>
      <trkpt lat="44.58028" lon="1.70339">
        <ele>310</ele>
        <time>2016-12-24T03:42:22Z</time>
      </trkpt>
      <trkpt lat="44.57968" lon="1.70409">
        <ele>317</ele>
        <time>2016-12-24T03:44:22Z</time>
      </trkpt>
      <trkpt lat="44.57896" lon="1.70479">
        <ele>321</ele>
        <time>2016-12-24T03:46:22Z</time>
      </trkpt>
      <trkpt lat="44.57854" lon="1.70577">
        <ele>326</ele>
        <time>2016-12-24T03:48:22Z</time>
      </trkpt>
      <trkpt lat="44.57673" lon="1.7072">
        <ele>316</ele>
        <time>2016-12-24T03:50:22Z</time>
      </trkpt>
      <trkpt lat="44.57628" lon="1.70765">
        <ele>315</ele>
        <time>2016-12-24T03:52:22Z</time>
      </trkpt>
      <trkpt lat="44.57567" lon="1.708">
        <ele>314</ele>
        <time>2016-12-24T03:54:22Z</time>
      </trkpt>
      <trkpt lat="44.57507" lon="1.70842">
        <ele>314</ele>
        <time>2016-12-24T03:56:22Z</time>
      </trkpt>
      <trkpt lat="44.57471" lon="1.70867">
        <ele>312</ele>
        <time>2016-12-24T03:58:22Z</time>
      </trkpt>
      <trkpt lat="44.57406" lon="1.70937">
        <ele>306</ele>
        <time>2016-12-24T04:00:22Z</time>
      </trkpt>
      <trkpt lat="44.57346" lon="1.71026">
        <ele>302</ele>
        <time>2016-12-24T04:02:22Z</time>
      </trkpt>
      <trkpt lat="44.57329" lon="1.71108">
        <ele>300</ele>
        <time>2016-12-24T04:04:22Z</time>
      </trkpt>
      <trkpt lat="44.57268" lon="1.71153">
        <ele>295</ele>
        <time>2016-12-24T04:06:22Z</time>
      </trkpt>
      <trkpt lat="44.57235" lon="1.71241">
        <ele>296</ele>
        <time>2016-12-24T04:08:22Z</time>
      </trkpt>
      <trkpt lat="44.57208" lon="1.7132">
        <ele>297</ele>
        <time>2016-12-24T04:10:22Z</time>
      </trkpt>
      <trkpt lat="44.57168" lon="1.71402">
        <ele>296</ele>
        <time>2016-12-24T04:12:22Z</time>
      </trkpt>
      <trkpt lat="44.57133" lon="1.71437">
        <ele>297</ele>
        <time>2016-12-24T04:14:22Z</time>
      </trkpt>
      <trkpt lat="44.57085" lon="1.71463">
        <ele>297</ele>
        <time>2016-12-24T04:16:22Z</time>
      </trkpt>
      <trkpt lat="44.57021" lon="1.71536">
        <ele>297</ele>
        <time>2016-12-24T04:18:22Z</time>
      </trkpt>
      <trkpt lat="44.56992" lon="1.71643">
        <ele>295</ele>
        <time>2016-12-24T04:20:22Z</time>
      </trkpt>
      <trkpt lat="44.56927" lon="1.7177">
        <ele>288</ele>
        <time>2016-12-24T04:22:22Z</time>
      </trkpt>
      <trkpt lat="44.56892" lon="1.7183">
        <ele>284</ele>
        <time>2016-12-24T04:24:22Z</time>
      </trkpt>
      <trkpt lat="44.56834" lon="1.71884">
        <ele>282</ele>
        <time>2016-12-24T04:26:22Z</time>
      </trkpt>
      <trkpt lat="44.56792" lon="1.71973">
        <ele>283</ele>
        <time>2016-12-24T04:28:22Z</time>
      </trkpt>
      <trkpt lat="44.56697" lon="1.71933">
        <ele>290</ele>
        <time>2016-12-24T04:30:22Z</time>
      </trkpt>
      <trkpt lat="44.5664" lon="1.71899">
        <ele>293</ele>
        <time>2016-12-24T04:32:22Z</time>
      </trkpt>
      <trkpt lat="44.566" lon="1.71918">
        <ele>296</ele>
        <time>2016-12-24T04:34:22Z</time>
      </trkpt>
      <trkpt lat="44.56573" lon="1.71966">
        <ele>298</ele>
        <time>2016-12-24T04:36:22Z</time>
      </trkpt>
      <trkpt lat="44.5656" lon="1.72013">
        <ele>300</ele>
        <time>2016-12-24T04:38:22Z</time>
      </trkpt>
      <trkpt lat="44.56565" lon="1.7207">
        <ele>302</ele>
        <time>2016-12-24T04:40:22Z</time>
      </trkpt>
      <trkpt lat="44.56568" lon="1.72195">
        <ele>311</ele>
        <time>2016-12-24T04:42:22Z</time>
      </trkpt>
      <trkpt lat="44.56605" lon="1.72336">
        <ele>321</ele>
        <time>2016-12-24T04:44:22Z</time>
      </trkpt>
      <trkpt lat="44.56589" lon="1.72403">
        <ele>328</ele>
        <time>2016-12-24T04:46:22Z</time>
      </trkpt>
      <trkpt lat="44.56565" lon="1.72438">
        <ele>335</ele>
        <time>2016-12-24T04:48:22Z</time>
      </trkpt>
      <trkpt lat="44.56574" lon="1.72551">
        <ele>343</ele>
        <time>2016-12-24T04:50:22Z</time>
      </trkpt>
      <trkpt lat="44.5658" lon="1.72658">
        <ele>352</ele>
        <time>2016-12-24T04:52:22Z</time>
      </trkpt>
      <trkpt lat="44.56605" lon="1.72736">
        <ele>354</ele>
        <time>2016-12-24T04:54:22Z</time>
      </trkpt>
      <trkpt lat="44.56577" lon="1.73007">
        <ele>362</ele>
        <time>2016-12-24T04:56:22Z</time>
      </trkpt>
      <trkpt lat="44.56593" lon="1.73057">
        <ele>363</ele>
        <time>2016-12-24T04:58:22Z</time>
      </trkpt>
      <trkpt lat="44.56596" lon="1.7312">
        <ele>364</ele>
        <time>2016-12-24T05:00:22Z</time>
      </trkpt>
      <trkpt lat="44.5658" lon="1.73192">
        <ele>366</ele>
        <time>2016-12-24T05:02:22Z</time>
      </trkpt>
      <trkpt lat="44.56592" lon="1.7333">
        <ele>366</ele>
        <time>2016-12-24T05:04:22Z</time>
      </trkpt>
      <trkpt lat="44.56606" lon="1.73434">
        <ele>370</ele>
        <time>2016-12-24T05:06:22Z</time>
      </trkpt>
      <trkpt lat="44.56645" lon="1.73525">
        <ele>371</ele>
        <time>2016-12-24T05:08:22Z</time>
      </trkpt>
      <trkpt lat="44.5665" lon="1.73676">
        <ele>372</ele>
        <time>2016-12-24T05:10:22Z</time>
      </trkpt>
      <trkpt lat="44.5664" lon="1.73814">
        <ele>364</ele>
        <time>2016-12-24T05:12:22Z</time>
      </trkpt>
      <trkpt lat="44.56591" lon="1.73994">
        <ele>342</ele>
        <time>2016-12-24T05:14:22Z</time>
      </trkpt>
      <trkpt lat="44.56603" lon="1.74063">
        <ele>334</ele>
        <time>2016-12-24T05:16:22Z</time>
      </trkpt>
      <trkpt lat="44.56693" lon="1.74103">
        <ele>330</ele>
        <time>2016-12-24T05:18:22Z</time>
      </trkpt>
      <trkpt lat="44.56742" lon="1.74084">
        <ele>334</ele>
        <time>2016-12-24T05:20:22Z</time>
      </trkpt>
      <trkpt lat="44.56781" lon="1.74108">
        <ele>329</ele>
        <time>2016-12-24T05:22:22Z</time>
      </trkpt>
      <trkpt lat="44.56819" lon="1.74121">
        <ele>326</ele>
        <time>2016-12-24T05:24:22Z</time>
      </trkpt>
      <trkpt lat="44.56887" lon="1.74202">
        <ele>320</ele>
        <time>2016-12-24T05:26:22Z</time>
      </trkpt>
      <trkpt lat="44.56831" lon="1.74249">
        <ele>312</ele>
        <time>2016-12-24T05:28:22Z</time>
      </trkpt>
      <trkpt lat="44.56807" lon="1.74319">
        <ele>303</ele>
        <time>2016-12-24T05:30:22Z</time>
      </trkpt>
      <trkpt lat="44.56774" lon="1.74467">
        <ele>287</ele>
        <time>2016-12-24T05:32:22Z</time>
      </trkpt>
      <trkpt lat="44.56747" lon="1.74559">
        <ele>281</ele>
        <time>2016-12-24T05:34:22Z</time>
      </trkpt>
      <trkpt lat="44.56665" lon="1.74641">
        <ele>273</ele>
        <time>2016-12-24T05:36:22Z</time>
      </trkpt>
      <trkpt lat="44.56593" lon="1.74787">
        <ele>266</ele>
        <time>2016-12-24T05:38:22Z</time>
      </trkpt>
      <trkpt lat="44.56563" lon="1.74935">
        <ele>255</ele>
        <time>2016-12-24T05:40:22Z</time>
      </trkpt>
      <trkpt lat="44.56509" lon="1.75052">
        <ele>246</ele>
        <time>2016-12-24T05:42:22Z</time>
      </trkpt>
      <trkpt lat="44.56476" lon="1.75143">
        <ele>239</ele>
        <time>2016-12-24T05:44:22Z</time>
      </trkpt>
      <trkpt lat="44.5644" lon="1.75178">
        <ele>232</ele>
        <time>2016-12-24T05:46:22Z</time>
      </trkpt>
      <trkpt lat="44.56497" lon="1.75231">
        <ele>226</ele>
        <time>2016-12-24T05:48:22Z</time>
      </trkpt>
      <trkpt lat="44.56607" lon="1.75252">
        <ele>223</ele>
        <time>2016-12-24T05:50:22Z</time>
      </trkpt>
      <trkpt lat="44.56572" lon="1.75325">
        <ele>230</ele>
        <time>2016-12-24T05:52:22Z</time>
      </trkpt>
      <trkpt lat="44.56495" lon="1.75363">
        <ele>230</ele>
        <time>2016-12-24T05:54:22Z</time>
      </trkpt>
      <trkpt lat="44.5643" lon="1.75373">
        <ele>235</ele>
        <time>2016-12-24T05:56:22Z</time>
      </trkpt>
      <trkpt lat="44.56376" lon="1.75386">
        <ele>230</ele>
        <time>2016-12-24T05:58:22Z</time>
      </trkpt>
      <trkpt lat="44.56352" lon="1.75453">
        <ele>241</ele>
        <time>2016-12-24T06:00:22Z</time>
      </trkpt>
      <trkpt lat="44.56292" lon="1.75541">
        <ele>252</ele>
        <time>2016-12-24T06:02:22Z</time>
      </trkpt>
      <trkpt lat="44.56236" lon="1.7563">
        <ele>261</ele>
        <time>2016-12-24T06:04:22Z</time>
      </trkpt>
      <trkpt lat="44.56163" lon="1.75788">
        <ele>274</ele>
        <time>2016-12-24T06:06:22Z</time>
      </trkpt>
      <trkpt lat="44.56082" lon="1.75902">
        <ele>284</ele>
        <time>2016-12-24T06:08:22Z</time>
      </trkpt>
      <trkpt lat="44.56031" lon="1.75947">
        <ele>289</ele>
        <time>2016-12-24T06:10:22Z</time>
      </trkpt>
      <trkpt lat="44.56002" lon="1.76013">
        <ele>290</ele>
        <time>2016-12-24T06:12:22Z</time>
      </trkpt>
      <trkpt lat="44.55955" lon="1.7607">
        <ele>289</ele>
        <time>2016-12-24T06:14:22Z</time>
      </trkpt>
      <trkpt lat="44.55903" lon="1.76108">
        <ele>289</ele>
        <time>2016-12-24T06:16:22Z</time>
      </trkpt>
      <trkpt lat="44.5589" lon="1.76156">
        <ele>288</ele>
        <time>2016-12-24T06:18:22Z</time>
      </trkpt>
      <trkpt lat="44.55837" lon="1.76257">
        <ele>286</ele>
        <time>2016-12-24T06:20:22Z</time>
      </trkpt>
      <trkpt lat="44.55797" lon="1.7637">
        <ele>280</ele>
        <time>2016-12-24T06:22:22Z</time>
      </trkpt>
      <trkpt lat="44.55761" lon="1.76487">
        <ele>272</ele>
        <time>2016-12-24T06:24:22Z</time>
      </trkpt>
      <trkpt lat="44.55719" lon="1.76598">
        <ele>261</ele>
        <time>2016-12-24T06:26:22Z</time>
      </trkpt>
      <trkpt lat="44.55701" lon="1.76617">
        <ele>258</ele>
        <time>2016-12-24T06:28:22Z</time>
      </trkpt>
      <trkpt lat="44.55686" lon="1.76639">
        <ele>254</ele>
        <time>2016-12-24T06:30:22Z</time>
      </trkpt>
      <trkpt lat="44.5563" lon="1.76636">
        <ele>247</ele>
        <time>2016-12-24T06:32:22Z</time>
      </trkpt>
      <trkpt lat="44.55593" lon="1.76615">
        <ele>244</ele>
        <time>2016-12-24T06:34:22Z</time>
      </trkpt>
      <trkpt lat="44.55564" lon="1.76574">
        <ele>246</ele>
        <time>2016-12-24T06:36:22Z</time>
      </trkpt>
      <trkpt lat="44.55562" lon="1.76527">
        <ele>253</ele>
        <time>2016-12-24T06:38:22Z</time>
      </trkpt>
      <trkpt lat="44.5553" lon="1.76446">
        <ele>260</ele>
        <time>2016-12-24T06:40:22Z</time>
      </trkpt>
      <trkpt lat="44.55424" lon="1.76431">
        <ele>258</ele>
        <time>2016-12-24T06:42:22Z</time>
      </trkpt>
      <trkpt lat="44.55383" lon="1.76419">
        <ele>251</ele>
        <time>2016-12-24T06:44:22Z</time>
      </trkpt>
      <trkpt lat="44.55347" lon="1.76347">
        <ele>250</ele>
        <time>2016-12-24T06:46:22Z</time>
      </trkpt>
      <trkpt lat="44.55317" lon="1.76243">
        <ele>254</ele>
        <time>2016-12-24T06:48:22Z</time>
      </trkpt>
      <trkpt lat="44.55252" lon="1.76184">
        <ele>245</ele>
        <time>2016-12-24T06:50:22Z</time>
      </trkpt>
      <trkpt lat="44.55236" lon="1.76166">
        <ele>240</ele>
        <time>2016-12-24T06:52:22Z</time>
      </trkpt>
      <trkpt lat="44.55247" lon="1.76137">
        <ele>248</ele>
        <time>2016-12-24T06:54:22Z</time>
      </trkpt>
      <trkpt lat="44.55224" lon="1.76074">
        <ele>246</ele>
        <time>2016-12-24T06:56:22Z</time>
      </trkpt>
      <trkpt lat="44.55192" lon="1.76031">
        <ele>244</ele>
        <time>2016-12-24T06:58:22Z</time>
      </trkpt>
      <trkpt lat="44.55192" lon="1.7599">
        <ele>250</ele>
        <time>2016-12-24T07:00:22Z</time>
      </trkpt>
      <trkpt lat="44.55147" lon="1.75924">
        <ele>249</ele>
        <time>2016-12-24T07:02:22Z</time>
      </trkpt>
      <trkpt lat="44.55137" lon="1.75799">
        <ele>247</ele>
        <time>2016-12-24T07:04:22Z</time>
      </trkpt>
      <trkpt lat="44.55106" lon="1.75742">
        <ele>248</ele>
        <time>2016-12-24T07:06:22Z</time>
      </trkpt>
      <trkpt lat="44.55105" lon="1.75711">
        <ele>249</ele>
        <time>2016-12-24T07:08:22Z</time>
      </trkpt>
      <trkpt lat="44.55096" lon="1.7568">
        <ele>251</ele>
        <time>2016-12-24T07:10:22Z</time>
      </trkpt>
      <trkpt lat="44.55094" lon="1.75651">
        <ele>252</ele>
        <time>2016-12-24T07:12:22Z</time>
      </trkpt>
      <trkpt lat="44.55078" lon="1.75629">
        <ele>254</ele>
        <time>2016-12-24T07:14:22Z</time>
      </trkpt>
      <trkpt lat="44.55073" lon="1.75532">
        <ele>260</ele>
        <time>2016-12-24T07:16:22Z</time>
      </trkpt>
      <trkpt lat="44.55068" lon="1.75491">
        <ele>261</ele>
        <time>2016-12-24T07:18:22Z</time>
      </trkpt>
      <trkpt lat="44.55073" lon="1.75469">
        <ele>262</ele>
        <time>2016-12-24T07:20:22Z</time>
      </trkpt>
      <trkpt lat="44.55061" lon="1.75432">
        <ele>263</ele>
        <time>2016-12-24T07:22:22Z</time>
      </trkpt>
      <trkpt lat="44.55059" lon="1.75397">
        <ele>264</ele>
        <time>2016-12-24T07:24:22Z</time>
      </trkpt>
      <trkpt lat="44.55059" lon="1.75375">
        <ele>264</ele>
        <time>2016-12-24T07:26:22Z</time>
      </trkpt>
      <trkpt lat="44.55047" lon="1.75309">
        <ele>262</ele>
        <time>2016-12-24T07:28:22Z</time>
      </trkpt>
      <trkpt lat="44.55053" lon="1.75256">
        <ele>261</ele>
        <time>2016-12-24T07:30:22Z</time>
      </trkpt>
      <trkpt lat="44.55047" lon="1.7524">
        <ele>259</ele>
        <time>2016-12-24T07:32:22Z</time>
      </trkpt>
      <trkpt lat="44.55073" lon="1.75177">
        <ele>257</ele>
        <time>2016-12-24T07:34:22Z</time>
      </trkpt>
      <trkpt lat="44.55055" lon="1.75114">
        <ele>251</ele>
        <time>2016-12-24T07:36:22Z</time>
      </trkpt>
      <trkpt lat="44.55066" lon="1.75086">
        <ele>250</ele>
        <time>2016-12-24T07:38:22Z</time>
      </trkpt>
      <trkpt lat="44.55073" lon="1.7507">
        <ele>250</ele>
        <time>2016-12-24T07:40:22Z</time>
      </trkpt>
      <trkpt lat="44.55075" lon="1.75026">
        <ele>245</ele>
        <time>2016-12-24T07:42:22Z</time>
      </trkpt>
      <trkpt lat="44.55074" lon="1.74954">
        <ele>231</ele>
        <time>2016-12-24T07:44:22Z</time>
      </trkpt>
      <trkpt lat="44.55117" lon="1.74915">
        <ele>225</ele>
        <time>2016-12-24T07:46:22Z</time>
      </trkpt>
      <trkpt lat="44.55085" lon="1.74878">
        <ele>207</ele>
        <time>2016-12-24T07:48:22Z</time>
      </trkpt>
      <trkpt lat="44.5509" lon="1.74862">
        <ele>201</ele>
        <time>2016-12-24T07:50:22Z</time>
      </trkpt>
      <trkpt lat="44.55152" lon="1.74827">
        <ele>196</ele>
        <time>2016-12-24T07:52:22Z</time>
      </trkpt>
      <trkpt lat="44.55085" lon="1.7478">
        <ele>177</ele>
        <time>2016-12-24T07:54:22Z</time>
      </trkpt>
      <trkpt lat="44.55062" lon="1.74762">
        <ele>173</ele>
        <time>2016-12-24T07:56:22Z</time>
      </trkpt>
      <trkpt lat="44.55019" lon="1.74784">
        <ele>176</ele>
        <time>2016-12-24T07:58:22Z</time>
      </trkpt>
      <trkpt lat="44.54977" lon="1.74782">
        <ele>176</ele>
        <time>2016-12-24T08:00:22Z</time>
      </trkpt>
      <trkpt lat="44.54965" lon="1.74753">
        <ele>176</ele>
        <time>2016-12-24T08:02:22Z</time>
      </trkpt>
      <trkpt lat="44.54994" lon="1.74719">
        <ele>177</ele>
        <time>2016-12-24T08:04:22Z</time>
      </trkpt>
      <trkpt lat="44.54992" lon="1.747">
        <ele>181</ele>
        <time>2016-12-24T08:06:22Z</time>
      </trkpt>
      <trkpt lat="44.5494" lon="1.74703">
        <ele>192</ele>
        <time>2016-12-24T08:08:22Z</time>
      </trkpt>
      <trkpt lat="44.54983" lon="1.7464">
        <ele>194</ele>
        <time>2016-12-24T08:10:22Z</time>
      </trkpt>
      <trkpt lat="44.54971" lon="1.74571">
        <ele>207</ele>
        <time>2016-12-24T08:12:22Z</time>
      </trkpt>
      <trkpt lat="44.54989" lon="1.74492">
        <ele>213</ele>
        <time>2016-12-24T08:14:22Z</time>
      </trkpt>
      <trkpt lat="44.54906" lon="1.74578">
        <ele>224</ele>
        <time>2016-12-24T08:16:22Z</time>
      </trkpt>
      <trkpt lat="44.54872" lon="1.74516">
        <ele>235</ele>
        <time>2016-12-24T08:18:22Z</time>
      </trkpt>
      <trkpt lat="44.54806" lon="1.74447">
        <ele>250</ele>
        <time>2016-12-24T08:20:22Z</time>
      </trkpt>
      <trkpt lat="44.54819" lon="1.74371">
        <ele>257</ele>
        <time>2016-12-24T08:22:22Z</time>
      </trkpt>
      <trkpt lat="44.54756" lon="1.74347">
        <ele>266</ele>
        <time>2016-12-24T08:24:22Z</time>
      </trkpt>
      <trkpt lat="44.54695" lon="1.74168">
        <ele>285</ele>
        <time>2016-12-24T08:26:22Z</time>
      </trkpt>
      <trkpt lat="44.54724" lon="1.74146">
        <ele>285</ele>
        <time>2016-12-24T08:28:22Z</time>
      </trkpt>
      <trkpt lat="44.54733" lon="1.74105">
        <ele>287</ele>
        <time>2016-12-24T08:30:22Z</time>
      </trkpt>
      <trkpt lat="44.54726" lon="1.74067">
        <ele>289</ele>
        <time>2016-12-24T08:32:22Z</time>
      </trkpt>
      <trkpt lat="44.54692" lon="1.74005">
        <ele>293</ele>
        <time>2016-12-24T08:34:22Z</time>
      </trkpt>
      <trkpt lat="44.54669" lon="1.73977">
        <ele>294</ele>
        <time>2016-12-24T08:36:22Z</time>
      </trkpt>
      <trkpt lat="44.54613" lon="1.73952">
        <ele>291</ele>
        <time>2016-12-24T08:38:22Z</time>
      </trkpt>
      <trkpt lat="44.54581" lon="1.73905">
        <ele>290</ele>
        <time>2016-12-24T08:40:22Z</time>
      </trkpt>
      <trkpt lat="44.54464" lon="1.73869">
        <ele>285</ele>
        <time>2016-12-24T08:42:22Z</time>
      </trkpt>
      <trkpt lat="44.54443" lon="1.73819">
        <ele>285</ele>
        <time>2016-12-24T08:44:22Z</time>
      </trkpt>
      <trkpt lat="44.54389" lon="1.73819">
        <ele>282</ele>
        <time>2016-12-24T08:46:22Z</time>
      </trkpt>
      <trkpt lat="44.5438" lon="1.73757">
        <ele>279</ele>
        <time>2016-12-24T08:48:22Z</time>
      </trkpt>
      <trkpt lat="44.54386" lon="1.73691">
        <ele>274</ele>
        <time>2016-12-24T08:50:22Z</time>
      </trkpt>
      <trkpt lat="44.54388" lon="1.73647">
        <ele>270</ele>
        <time>2016-12-24T08:52:22Z</time>
      </trkpt>
      <trkpt lat="44.54352" lon="1.73597">
        <ele>262</ele>
        <time>2016-12-24T08:54:22Z</time>
      </trkpt>
      <trkpt lat="44.54312" lon="1.73663">
        <ele>268</ele>
        <time>2016-12-24T08:56:22Z</time>
      </trkpt>
      <trkpt lat="44.54229" lon="1.73695">
        <ele>265</ele>
        <time>2016-12-24T08:58:22Z</time>
      </trkpt>
      <trkpt lat="44.54164" lon="1.73737">
        <ele>264</ele>
        <time>2016-12-24T09:00:22Z</time>
      </trkpt>
      <trkpt lat="44.5414" lon="1.73857">
        <ele>264</ele>
        <time>2016-12-24T09:02:22Z</time>
      </trkpt>
      <trkpt lat="44.5403" lon="1.73839">
        <ele>267</ele>
        <time>2016-12-24T09:04:22Z</time>
      </trkpt>
      <trkpt lat="44.54034" lon="1.73786">
        <ele>268</ele>
        <time>2016-12-24T09:06:22Z</time>
      </trkpt>
      <trkpt lat="44.5404" lon="1.73713">
        <ele>266</ele>
        <time>2016-12-24T09:08:22Z</time>
      </trkpt>
      <trkpt lat="44.54037" lon="1.73628">
        <ele>262</ele>
        <time>2016-12-24T09:10:22Z</time>
      </trkpt>
      <trkpt lat="44.53997" lon="1.73556">
        <ele>258</ele>
        <time>2016-12-24T09:12:22Z</time>
      </trkpt>
      <trkpt lat="44.53992" lon="1.735">
        <ele>251</ele>
        <time>2016-12-24T09:14:22Z</time>
      </trkpt>
      <trkpt lat="44.54016" lon="1.73371">
        <ele>231</ele>
        <time>2016-12-24T09:16:22Z</time>
      </trkpt>
      <trkpt lat="44.54137" lon="1.73385">
        <ele>231</ele>
        <time>2016-12-24T09:18:22Z</time>
      </trkpt>
      <trkpt lat="44.5415" lon="1.73325">
        <ele>229</ele>
        <time>2016-12-24T09:20:22Z</time>
      </trkpt>
      <trkpt lat="44.5408" lon="1.73247">
        <ele>228</ele>
        <time>2016-12-24T09:22:22Z</time>
      </trkpt>
      <trkpt lat="44.54062" lon="1.7315">
        <ele>235</ele>
        <time>2016-12-24T09:24:22Z</time>
      </trkpt>
      <trkpt lat="44.53954" lon="1.73145">
        <ele>229</ele>
        <time>2016-12-24T09:26:22Z</time>
      </trkpt>
      <trkpt lat="44.53863" lon="1.73058">
        <ele>232</ele>
        <time>2016-12-24T09:28:22Z</time>
      </trkpt>
      <trkpt lat="44.53841" lon="1.73071">
        <ele>229</ele>
        <time>2016-12-24T09:30:22Z</time>
      </trkpt>
      <trkpt lat="44.53792" lon="1.73128">
        <ele>228</ele>
        <time>2016-12-24T09:32:22Z</time>
      </trkpt>
      <trkpt lat="44.53754" lon="1.73157">
        <ele>229</ele>
        <time>2016-12-24T09:34:22Z</time>
      </trkpt>
      <trkpt lat="44.5372" lon="1.73119">
        <ele>233</ele>
        <time>2016-12-24T09:36:22Z</time>
      </trkpt>
      <trkpt lat="44.53677" lon="1.73047">
        <ele>242</ele>
        <time>2016-12-24T09:38:22Z</time>
      </trkpt>
      <trkpt lat="44.5362" lon="1.72929">
        <ele>259</ele>
        <time>2016-12-24T09:40:22Z</time>
      </trkpt>
      <trkpt lat="44.53577" lon="1.7286">
        <ele>269</ele>
        <time>2016-12-24T09:42:22Z</time>
      </trkpt>
      <trkpt lat="44.53523" lon="1.72857">
        <ele>272</ele>
        <time>2016-12-24T09:44:22Z</time>
      </trkpt>
      <trkpt lat="44.53572" lon="1.72803">
        <ele>275</ele>
        <time>2016-12-24T09:46:22Z</time>
      </trkpt>
      <trkpt lat="44.53585" lon="1.72759">
        <ele>279</ele>
        <time>2016-12-24T09:48:22Z</time>
      </trkpt>
      <trkpt lat="44.53565" lon="1.72712">
        <ele>285</ele>
        <time>2016-12-24T09:50:22Z</time>
      </trkpt>
      <trkpt lat="44.5352" lon="1.72681">
        <ele>290</ele>
        <time>2016-12-24T09:52:22Z</time>
      </trkpt>
      <trkpt lat="44.53477" lon="1.72644">
        <ele>291</ele>
        <time>2016-12-24T09:54:22Z</time>
      </trkpt>
      <trkpt lat="44.53485" lon="1.72572">
        <ele>294</ele>
        <time>2016-12-24T09:56:22Z</time>
      </trkpt>
      <trkpt lat="44.53486" lon="1.72386">
        <ele>297</ele>
        <time>2016-12-24T09:58:22Z</time>
      </trkpt>
      <trkpt lat="44.53448" lon="1.72343">
        <ele>296</ele>
        <time>2016-12-24T10:00:22Z</time>
      </trkpt>
      <trkpt lat="44.53463" lon="1.72283">
        <ele>294</ele>
        <time>2016-12-24T10:02:22Z</time>
      </trkpt>
      <trkpt lat="44.53464" lon="1.72063">
        <ele>272</ele>
        <time>2016-12-24T10:04:22Z</time>
      </trkpt>
      <trkpt lat="44.53493" lon="1.72031">
        <ele>269</ele>
        <time>2016-12-24T10:06:22Z</time>
      </trkpt>
      <trkpt lat="44.53507" lon="1.71981">
        <ele>267</ele>
        <time>2016-12-24T10:08:22Z</time>
      </trkpt>
      <trkpt lat="44.53511" lon="1.71914">
        <ele>268</ele>
        <time>2016-12-24T10:10:22Z</time>
      </trkpt>
      <trkpt lat="44.53497" lon="1.71839">
        <ele>272</ele>
        <time>2016-12-24T10:12:22Z</time>
      </trkpt>
      <trkpt lat="44.53472" lon="1.71792">
        <ele>273</ele>
        <time>2016-12-24T10:14:22Z</time>
      </trkpt>
      <trkpt lat="44.5348" lon="1.71714">
        <ele>279</ele>
        <time>2016-12-24T10:16:22Z</time>
      </trkpt>
      <trkpt lat="44.53485" lon="1.71663">
        <ele>282</ele>
        <time>2016-12-24T10:18:22Z</time>
      </trkpt>
      <trkpt lat="44.53491" lon="1.71616">
        <ele>285</ele>
        <time>2016-12-24T10:20:22Z</time>
      </trkpt>
      <trkpt lat="44.53502" lon="1.71525">
        <ele>290</ele>
        <time>2016-12-24T10:22:22Z</time>
      </trkpt>
      <trkpt lat="44.53517" lon="1.71459">
        <ele>296</ele>
        <time>2016-12-24T10:24:22Z</time>
      </trkpt>
      <trkpt lat="44.53517" lon="1.71402">
        <ele>300</ele>
        <time>2016-12-24T10:26:22Z</time>
      </trkpt>
      <trkpt lat="44.53492" lon="1.71333">
        <ele>301</ele>
        <time>2016-12-24T10:28:22Z</time>
      </trkpt>
      <trkpt lat="44.53433" lon="1.71255">
        <ele>295</ele>
        <time>2016-12-24T10:30:22Z</time>
      </trkpt>
      <trkpt lat="44.53403" lon="1.71196">
        <ele>289</ele>
        <time>2016-12-24T10:32:22Z</time>
      </trkpt>
      <trkpt lat="44.53392" lon="1.71143">
        <ele>283</ele>
        <time>2016-12-24T10:34:22Z</time>
      </trkpt>
      <trkpt lat="44.53398" lon="1.71054">
        <ele>274</ele>
        <time>2016-12-24T10:36:22Z</time>
      </trkpt>
      <trkpt lat="44.53406" lon="1.70944">
        <ele>264</ele>
        <time>2016-12-24T10:38:22Z</time>
      </trkpt>
      <trkpt lat="44.53431" lon="1.70881">
        <ele>260</ele>
        <time>2016-12-24T10:40:22Z</time>
      </trkpt>
      <trkpt lat="44.53435" lon="1.70862">
        <ele>258</ele>
        <time>2016-12-24T10:42:22Z</time>
      </trkpt>
      <trkpt lat="44.53437" lon="1.7079">
        <ele>251</ele>
        <time>2016-12-24T10:44:22Z</time>
      </trkpt>
      <trkpt lat="44.53435" lon="1.70771">
        <ele>250</ele>
        <time>2016-12-24T10:46:22Z</time>
      </trkpt>
      <trkpt lat="44.53387" lon="1.7068">
        <ele>239</ele>
        <time>2016-12-24T10:48:22Z</time>
      </trkpt>
      <trkpt lat="44.53376" lon="1.70671">
        <ele>238</ele>
        <time>2016-12-24T10:50:22Z</time>
      </trkpt>
      <trkpt lat="44.53362" lon="1.70668">
        <ele>237</ele>
        <time>2016-12-24T10:52:22Z</time>
      </trkpt>
      <trkpt lat="44.5336" lon="1.70637">
        <ele>238</ele>
        <time>2016-12-24T10:54:22Z</time>
      </trkpt>
      <trkpt lat="44.53321" lon="1.70606">
        <ele>238</ele>
        <time>2016-12-24T10:56:22Z</time>
      </trkpt>
      <trkpt lat="44.53303" lon="1.70603">
        <ele>238</ele>
        <time>2016-12-24T10:58:22Z</time>
      </trkpt>
      <trkpt lat="44.53235" lon="1.7055">
        <ele>240</ele>
        <time>2016-12-24T11:00:22Z</time>
      </trkpt>
      <trkpt lat="44.53179" lon="1.70541">
        <ele>242</ele>
        <time>2016-12-24T11:02:22Z</time>
      </trkpt>
      <trkpt lat="44.53143" lon="1.70447">
        <ele>251</ele>
        <time>2016-12-24T11:04:22Z</time>
      </trkpt>
      <trkpt lat="44.53084" lon="1.70348">
        <ele>259</ele>
        <time>2016-12-24T11:06:22Z</time>
      </trkpt>
      <trkpt lat="44.53022" lon="1.70235">
        <ele>265</ele>
        <time>2016-12-24T11:08:22Z</time>
      </trkpt>
      <trkpt lat="44.53015" lon="1.70113">
        <ele>266</ele>
        <time>2016-12-24T11:10:22Z</time>
      </trkpt>
      <trkpt lat="44.5303" lon="1.70046">
        <ele>262</ele>
        <time>2016-12-24T11:12:22Z</time>
      </trkpt>
      <trkpt lat="44.53079" lon="1.69983">
        <ele>259</ele>
        <time>2016-12-24T11:14:22Z</time>
      </trkpt>
      <trkpt lat="44.53155" lon="1.69916">
        <ele>253</ele>
        <time>2016-12-24T11:16:22Z</time>
      </trkpt>
      <trkpt lat="44.53182" lon="1.69903">
        <ele>253</ele>
        <time>2016-12-24T11:18:22Z</time>
      </trkpt>
      <trkpt lat="44.53196" lon="1.69894">
        <ele>253</ele>
        <time>2016-12-24T11:20:22Z</time>
      </trkpt>
      <trkpt lat="44.53198" lon="1.69859">
        <ele>250</ele>
        <time>2016-12-24T11:22:22Z</time>
      </trkpt>
      <trkpt lat="44.53112" lon="1.6986">
        <ele>247</ele>
        <time>2016-12-24T11:24:22Z</time>
      </trkpt>
      <trkpt lat="44.53022" lon="1.6987">
        <ele>245</ele>
        <time>2016-12-24T11:26:22Z</time>
      </trkpt>
      <trkpt lat="44.52948" lon="1.69849">
        <ele>242</ele>
        <time>2016-12-24T11:28:22Z</time>
      </trkpt>
      <trkpt lat="44.52903" lon="1.69825">
        <ele>240</ele>
        <time>2016-12-24T11:30:22Z</time>
      </trkpt>
      <trkpt lat="44.52813" lon="1.69826">
        <ele>238</ele>
        <time>2016-12-24T11:32:22Z</time>
      </trkpt>
      <trkpt lat="44.52723" lon="1.69802">
        <ele>239</ele>
        <time>2016-12-24T11:34:22Z</time>
      </trkpt>
      <trkpt lat="44.52644" lon="1.69711">
        <ele>233</ele>
        <time>2016-12-24T11:36:22Z</time>
      </trkpt>
      <trkpt lat="44.52535" lon="1.69621">
        <ele>225</ele>
        <time>2016-12-24T11:38:22Z</time>
      </trkpt>
      <trkpt lat="44.52546" lon="1.69549">
        <ele>225</ele>
        <time>2016-12-24T11:40:22Z</time>
      </trkpt>
      <trkpt lat="44.52543" lon="1.6947">
        <ele>229</ele>
        <time>2016-12-24T11:42:22Z</time>
      </trkpt>
      <trkpt lat="44.52548" lon="1.69389">
        <ele>235</ele>
        <time>2016-12-24T11:44:22Z</time>
      </trkpt>
      <trkpt lat="44.52565" lon="1.69257">
        <ele>247</ele>
        <time>2016-12-24T11:46:22Z</time>
      </trkpt>
      <trkpt lat="44.52575" lon="1.69124">
        <ele>252</ele>
        <time>2016-12-24T11:48:22Z</time>
      </trkpt>
      <trkpt lat="44.52568" lon="1.69033">
        <ele>254</ele>
        <time>2016-12-24T11:50:22Z</time>
      </trkpt>
      <trkpt lat="44.52581" lon="1.68973">
        <ele>256</ele>
        <time>2016-12-24T11:52:22Z</time>
      </trkpt>
      <trkpt lat="44.52612" lon="1.68932">
        <ele>258</ele>
        <time>2016-12-24T11:54:22Z</time>
      </trkpt>
      <trkpt lat="44.5263" lon="1.68923">
        <ele>260</ele>
        <time>2016-12-24T11:56:22Z</time>
      </trkpt>
      <trkpt lat="44.52663" lon="1.68819">
        <ele>264</ele>
        <time>2016-12-24T11:58:22Z</time>
      </trkpt>
      <trkpt lat="44.52708" lon="1.68717">
        <ele>265</ele>
        <time>2016-12-24T12:00:22Z</time>
      </trkpt>
      <trkpt lat="44.52725" lon="1.68648">
        <ele>262</ele>
        <time>2016-12-24T12:02:22Z</time>
      </trkpt>
      <trkpt lat="44.52743" lon="1.6856">
        <ele>255</ele>
        <time>2016-12-24T12:04:22Z</time>
      </trkpt>
      <trkpt lat="44.52772" lon="1.6849">
        <ele>248</ele>
        <time>2016-12-24T12:06:22Z</time>
      </trkpt>
      <trkpt lat="44.52778" lon="1.68456">
        <ele>243</ele>
        <time>2016-12-24T12:08:22Z</time>
      </trkpt>
      <trkpt lat="44.52755" lon="1.68409">
        <ele>241</ele>
        <time>2016-12-24T12:10:22Z</time>
      </trkpt>
      <trkpt lat="44.5275" lon="1.68334">
        <ele>235</ele>
        <time>2016-12-24T12:12:22Z</time>
      </trkpt>
      <trkpt lat="44.5275" lon="1.68274">
        <ele>230</ele>
        <time>2016-12-24T12:14:22Z</time>
      </trkpt>
      <trkpt lat="44.52777" lon="1.6827">
        <ele>227</ele>
        <time>2016-12-24T12:16:22Z</time>
      </trkpt>
      <trkpt lat="44.52818" lon="1.68298">
        <ele>225</ele>
        <time>2016-12-24T12:18:22Z</time>
      </trkpt>
      <trkpt lat="44.52851" lon="1.68291">
        <ele>225</ele>
        <time>2016-12-24T12:20:22Z</time>
      </trkpt>
      <trkpt lat="44.52858" lon="1.68222">
        <ele>226</ele>
        <time>2016-12-24T12:22:22Z</time>
      </trkpt>
      <trkpt lat="44.52835" lon="1.68153">
        <ele>224</ele>
        <time>2016-12-24T12:24:22Z</time>
      </trkpt>
      <trkpt lat="44.5285" lon="1.6809">
        <ele>224</ele>
        <time>2016-12-24T12:26:22Z</time>
      </trkpt>
      <trkpt lat="44.52915" lon="1.68024">
        <ele>225</ele>
        <time>2016-12-24T12:28:22Z</time>
      </trkpt>
      <trkpt lat="44.52955" lon="1.67941">
        <ele>217</ele>
        <time>2016-12-24T12:30:22Z</time>
      </trkpt>
      <trkpt lat="44.52984" lon="1.67897">
        <ele>215</ele>
        <time>2016-12-24T12:32:22Z</time>
      </trkpt>
      <trkpt lat="44.53024" lon="1.6789">
        <ele>215</ele>
        <time>2016-12-24T12:34:22Z</time>
      </trkpt>
      <trkpt lat="44.5304" lon="1.67887">
        <ele>216</ele>
        <time>2016-12-24T12:36:22Z</time>
      </trkpt>
      <trkpt lat="44.5304" lon="1.67856">
        <ele>217</ele>
        <time>2016-12-24T12:38:22Z</time>
      </trkpt>
      <trkpt lat="44.52995" lon="1.67799">
        <ele>222</ele>
        <time>2016-12-24T12:40:22Z</time>
      </trkpt>
      <trkpt lat="44.52934" lon="1.67781">
        <ele>224</ele>
        <time>2016-12-24T12:42:22Z</time>
      </trkpt>
      <trkpt lat="44.52893" lon="1.67766">
        <ele>226</ele>
        <time>2016-12-24T12:44:22Z</time>
      </trkpt>
      <trkpt lat="44.5285" lon="1.67704">
        <ele>228</ele>
        <time>2016-12-24T12:46:22Z</time>
      </trkpt>
      <trkpt lat="44.52803" lon="1.67673">
        <ele>225</ele>
        <time>2016-12-24T12:48:22Z</time>
      </trkpt>
      <trkpt lat="44.52775" lon="1.67635">
        <ele>226</ele>
        <time>2016-12-24T12:50:22Z</time>
      </trkpt>
      <trkpt lat="44.5275" lon="1.67589">
        <ele>227</ele>
        <time>2016-12-24T12:52:22Z</time>
      </trkpt>
      <trkpt lat="44.52734" lon="1.67539">
        <ele>225</ele>
        <time>2016-12-24T12:54:22Z</time>
      </trkpt>
      <trkpt lat="44.52754" lon="1.67441">
        <ele>228</ele>
        <time>2016-12-24T12:56:22Z</time>
      </trkpt>
      <trkpt lat="44.5276" lon="1.67384">
        <ele>231</ele>
        <time>2016-12-24T12:58:22Z</time>
      </trkpt>
      <trkpt lat="44.52733" lon="1.67322">
        <ele>234</ele>
        <time>2016-12-24T13:00:22Z</time>
      </trkpt>
      <trkpt lat="44.52732" lon="1.6719">
        <ele>241</ele>
        <time>2016-12-24T13:02:22Z</time>
      </trkpt>
      <trkpt lat="44.5268" lon="1.67105">
        <ele>249</ele>
        <time>2016-12-24T13:04:22Z</time>
      </trkpt>
      <trkpt lat="44.52698" lon="1.67036">
        <ele>250</ele>
        <time>2016-12-24T13:06:22Z</time>
      </trkpt>
      <trkpt lat="44.52693" lon="1.66976">
        <ele>248</ele>
        <time>2016-12-24T13:08:22Z</time>
      </trkpt>
      <trkpt lat="44.52726" lon="1.66847">
        <ele>251</ele>
        <time>2016-12-24T13:10:22Z</time>
      </trkpt>
      <trkpt lat="44.52723" lon="1.66728">
        <ele>245</ele>
        <time>2016-12-24T13:12:22Z</time>
      </trkpt>
      <trkpt lat="44.52705" lon="1.66706">
        <ele>242</ele>
        <time>2016-12-24T13:14:22Z</time>
      </trkpt>
      <trkpt lat="44.5268" lon="1.66656">
        <ele>241</ele>
        <time>2016-12-24T13:16:22Z</time>
      </trkpt>
      <trkpt lat="44.52634" lon="1.66587">
        <ele>249</ele>
        <time>2016-12-24T13:18:22Z</time>
      </trkpt>
      <trkpt lat="44.5258" lon="1.66506">
        <ele>253</ele>
        <time>2016-12-24T13:20:22Z</time>
      </trkpt>
      <trkpt lat="44.5255" lon="1.66438">
        <ele>259</ele>
        <time>2016-12-24T13:22:22Z</time>
      </trkpt>
      <trkpt lat="44.52493" lon="1.66375">
        <ele>265</ele>
        <time>2016-12-24T13:24:22Z</time>
      </trkpt>
      <trkpt lat="44.52448" lon="1.66219">
        <ele>274</ele>
        <time>2016-12-24T13:26:22Z</time>
      </trkpt>
      <trkpt lat="44.52367" lon="1.66242">
        <ele>273</ele>
        <time>2016-12-24T13:28:22Z</time>
      </trkpt>
      <trkpt lat="44.52357" lon="1.66201">
        <ele>273</ele>
        <time>2016-12-24T13:30:22Z</time>
      </trkpt>
      <trkpt lat="44.52359" lon="1.66107">
        <ele>272</ele>
        <time>2016-12-24T13:32:22Z</time>
      </trkpt>
      <trkpt lat="44.52303" lon="1.66098">
        <ele>266</ele>
        <time>2016-12-24T13:34:22Z</time>
      </trkpt>
      <trkpt lat="44.52251" lon="1.66055">
        <ele>259</ele>
        <time>2016-12-24T13:36:22Z</time>
      </trkpt>
      <trkpt lat="44.52228" lon="1.65976">
        <ele>256</ele>
        <time>2016-12-24T13:38:22Z</time>
      </trkpt>
      <trkpt lat="44.52232" lon="1.65945">
        <ele>256</ele>
        <time>2016-12-24T13:40:22Z</time>
      </trkpt>
      <trkpt lat="44.52216" lon="1.65882">
        <ele>254</ele>
        <time>2016-12-24T13:42:22Z</time>
      </trkpt>
      <trkpt lat="44.52182" lon="1.65845">
        <ele>249</ele>
        <time>2016-12-24T13:44:22Z</time>
      </trkpt>
      <trkpt lat="44.52089" lon="1.65701">
        <ele>243</ele>
        <time>2016-12-24T13:46:22Z</time>
      </trkpt>
      <trkpt lat="44.52019" lon="1.65627">
        <ele>241</ele>
        <time>2016-12-24T13:48:22Z</time>
      </trkpt>
      <trkpt lat="44.51999" lon="1.65611">
        <ele>240</ele>
        <time>2016-12-24T13:50:22Z</time>
      </trkpt>
      <trkpt lat="44.51976" lon="1.6558">
        <ele>239</ele>
        <time>2016-12-24T13:52:22Z</time>
      </trkpt>
      <trkpt lat="44.51859" lon="1.65509">
        <ele>235</ele>
        <time>2016-12-24T13:54:22Z</time>
      </trkpt>
      <trkpt lat="44.51768" lon="1.65413">
        <ele>230</ele>
        <time>2016-12-24T13:56:22Z</time>
      </trkpt>
      <trkpt lat="44.51696" lon="1.65382">
        <ele>225</ele>
        <time>2016-12-24T13:58:22Z</time>
      </trkpt>
      <trkpt lat="44.51621" lon="1.65299">
        <ele>223</ele>
        <time>2016-12-24T14:00:22Z</time>
      </trkpt>
      <trkpt lat="44.51576" lon="1.65217">
        <ele>218</ele>
        <time>2016-12-24T14:02:22Z</time>
      </trkpt>
      <trkpt lat="44.51508" lon="1.65118">
        <ele>210</ele>
        <time>2016-12-24T14:04:22Z</time>
      </trkpt>
      <trkpt lat="44.51431" lon="1.65009">
        <ele>198</ele>
        <time>2016-12-24T14:06:22Z</time>
      </trkpt>
      <trkpt lat="44.51451" lon="1.65018">
        <ele>202</ele>
        <time>2016-12-24T14:08:22Z</time>
      </trkpt>
      <trkpt lat="44.51371" lon="1.64868">
        <ele>178</ele>
        <time>2016-12-24T14:10:22Z</time>
      </trkpt>
      <trkpt lat="44.51331" lon="1.64856">
        <ele>171</ele>
        <time>2016-12-24T14:12:22Z</time>
      </trkpt>
      <trkpt lat="44.51227" lon="1.64854">
        <ele>167</ele>
        <time>2016-12-24T14:14:22Z</time>
      </trkpt>
      <trkpt lat="44.51191" lon="1.64782">
        <ele>176</ele>
        <time>2016-12-24T14:16:22Z</time>
      </trkpt>
      <trkpt lat="44.51133" lon="1.64836">
        <ele>171</ele>
        <time>2016-12-24T14:18:22Z</time>
      </trkpt>
      <trkpt lat="44.51072" lon="1.64903">
        <ele>165</ele>
        <time>2016-12-24T14:20:22Z</time>
      </trkpt>
      <trkpt lat="44.51018" lon="1.64888">
        <ele>169</ele>
        <time>2016-12-24T14:22:22Z</time>
      </trkpt>
      <trkpt lat="44.50946" lon="1.64905">
        <ele>170</ele>
        <time>2016-12-24T14:24:22Z</time>
      </trkpt>
      <trkpt lat="44.50909" lon="1.64946">
        <ele>167</ele>
        <time>2016-12-24T14:26:22Z</time>
      </trkpt>
      <trkpt lat="44.50839" lon="1.65">
        <ele>159</ele>
        <time>2016-12-24T14:28:22Z</time>
      </trkpt>
      <trkpt lat="44.50797" lon="1.65038">
        <ele>162</ele>
        <time>2016-12-24T14:30:22Z</time>
      </trkpt>
      <trkpt lat="44.50741" lon="1.65055">
        <ele>167</ele>
        <time>2016-12-24T14:32:22Z</time>
      </trkpt>
      <trkpt lat="44.50685" lon="1.65134">
        <ele>167</ele>
        <time>2016-12-24T14:34:22Z</time>
      </trkpt>
      <trkpt lat="44.50573" lon="1.65201">
        <ele>171</ele>
        <time>2016-12-24T14:36:22Z</time>
      </trkpt>
      <trkpt lat="44.50501" lon="1.65268">
        <ele>170</ele>
        <time>2016-12-24T14:38:22Z</time>
      </trkpt>
      <trkpt lat="44.50496" lon="1.65183">
        <ele>187</ele>
        <time>2016-12-24T14:40:22Z</time>
      </trkpt>
      <trkpt lat="44.50557" lon="1.65139">
        <ele>192</ele>
        <time>2016-12-24T14:42:22Z</time>
      </trkpt>
      <trkpt lat="44.50619" lon="1.65075">
        <ele>201</ele>
        <time>2016-12-24T14:44:22Z</time>
      </trkpt>
      <trkpt lat="44.50646" lon="1.65024">
        <ele>211</ele>
        <time>2016-12-24T14:46:22Z</time>
      </trkpt>
      <trkpt lat="44.50675" lon="1.64946">
        <ele>224</ele>
        <time>2016-12-24T14:48:22Z</time>
      </trkpt>
      <trkpt lat="44.50717" lon="1.64885">
        <ele>227</ele>
        <time>2016-12-24T14:50:22Z</time>
      </trkpt>
      <trkpt lat="44.50732" lon="1.64819">
        <ele>241</ele>
        <time>2016-12-24T14:52:22Z</time>
      </trkpt>
      <trkpt lat="44.50759" lon="1.64743">
        <ele>250</ele>
        <time>2016-12-24T14:54:22Z</time>
      </trkpt>
      <trkpt lat="44.50758" lon="1.64593">
        <ele>273</ele>
        <time>2016-12-24T14:56:22Z</time>
      </trkpt>
      <trkpt lat="44.50744" lon="1.64511">
        <ele>282</ele>
        <time>2016-12-24T14:58:22Z</time>
      </trkpt>
      <trkpt lat="44.50744" lon="1.64481">
        <ele>285</ele>
        <time>2016-12-24T15:00:22Z</time>
      </trkpt>
      <trkpt lat="44.50785" lon="1.64485">
        <ele>282</ele>
        <time>2016-12-24T15:02:22Z</time>
      </trkpt>
      <trkpt lat="44.50834" lon="1.64496">
        <ele>279</ele>
        <time>2016-12-24T15:04:22Z</time>
      </trkpt>
      <trkpt lat="44.50783" lon="1.64438">
        <ele>287</ele>
        <time>2016-12-24T15:06:22Z</time>
      </trkpt>
      <trkpt lat="44.50797" lon="1.64432">
        <ele>288</ele>
        <time>2016-12-24T15:08:22Z</time>
      </trkpt>
      <trkpt lat="44.5084" lon="1.64431">
        <ele>287</ele>
        <time>2016-12-24T15:10:22Z</time>
      </trkpt>
      <trkpt lat="44.50856" lon="1.64397">
        <ele>288</ele>
        <time>2016-12-24T15:12:22Z</time>
      </trkpt>
      <trkpt lat="44.50808" lon="1.64375">
        <ele>294</ele>
        <time>2016-12-24T15:14:22Z</time>
      </trkpt>
      <trkpt lat="44.50792" lon="1.64313">
        <ele>300</ele>
        <time>2016-12-24T15:16:22Z</time>
      </trkpt>
      <trkpt lat="44.50762" lon="1.64234">
        <ele>306</ele>
        <time>2016-12-24T15:18:22Z</time>
      </trkpt>
      <trkpt lat="44.5071" lon="1.64092">
        <ele>319</ele>
        <time>2016-12-24T15:20:22Z</time>
      </trkpt>
      <trkpt lat="44.50697" lon="1.64017">
        <ele>320</ele>
        <time>2016-12-24T15:22:22Z</time>
      </trkpt>
      <trkpt lat="44.50674" lon="1.63962">
        <ele>322</ele>
        <time>2016-12-24T15:24:22Z</time>
      </trkpt>
      <trkpt lat="44.50669" lon="1.63888">
        <ele>321</ele>
        <time>2016-12-24T15:26:22Z</time>
      </trkpt>
      <trkpt lat="44.507" lon="1.63739">
        <ele>319</ele>
        <time>2016-12-24T15:28:22Z</time>
      </trkpt>
      <trkpt lat="44.50748" lon="1.636">
        <ele>318</ele>
        <time>2016-12-24T15:30:22Z</time>
      </trkpt>
      <trkpt lat="44.50798" lon="1.63513">
        <ele>319</ele>
        <time>2016-12-24T15:32:22Z</time>
      </trkpt>
      <trkpt lat="44.50792" lon="1.63472">
        <ele>321</ele>
        <time>2016-12-24T15:34:22Z</time>
      </trkpt>
      <trkpt lat="44.50805" lon="1.6348">
        <ele>320</ele>
        <time>2016-12-24T15:36:22Z</time>
      </trkpt>
      <trkpt lat="44.50816" lon="1.63433">
        <ele>321</ele>
        <time>2016-12-24T15:38:22Z</time>
      </trkpt>
      <trkpt lat="44.508" lon="1.63361">
        <ele>321</ele>
        <time>2016-12-24T15:40:22Z</time>
      </trkpt>
      <trkpt lat="44.50784" lon="1.63317">
        <ele>319</ele>
        <time>2016-12-24T15:42:22Z</time>
      </trkpt>
      <trkpt lat="44.50788" lon="1.63248">
        <ele>316</ele>
        <time>2016-12-24T15:44:22Z</time>
      </trkpt>
      <trkpt lat="44.50764" lon="1.63072">
        <ele>314</ele>
        <time>2016-12-24T15:46:22Z</time>
      </trkpt>
      <trkpt lat="44.50766" lon="1.62975">
        <ele>314</ele>
        <time>2016-12-24T15:48:22Z</time>
      </trkpt>
      <trkpt lat="44.50754" lon="1.62959">
        <ele>315</ele>
        <time>2016-12-24T15:50:22Z</time>
      </trkpt>
      <trkpt lat="44.50742" lon="1.62874">
        <ele>315</ele>
        <time>2016-12-24T15:52:22Z</time>
      </trkpt>
      <trkpt lat="44.50735" lon="1.62799">
        <ele>317</ele>
        <time>2016-12-24T15:54:22Z</time>
      </trkpt>
      <trkpt lat="44.5073" lon="1.6273">
        <ele>320</ele>
        <time>2016-12-24T15:56:22Z</time>
      </trkpt>
      <trkpt lat="44.50705" lon="1.62617">
        <ele>319</ele>
        <time>2016-12-24T15:58:22Z</time>
      </trkpt>
      <trkpt lat="44.50689" lon="1.62567">
        <ele>318</ele>
        <time>2016-12-24T16:00:22Z</time>
      </trkpt>
      <trkpt lat="44.50673" lon="1.62511">
        <ele>319</ele>
        <time>2016-12-24T16:02:22Z</time>
      </trkpt>
      <trkpt lat="44.50666" lon="1.62457">
        <ele>323</ele>
        <time>2016-12-24T16:04:22Z</time>
      </trkpt>
      <trkpt lat="44.5062" lon="1.62408">
        <ele>326</ele>
        <time>2016-12-24T16:06:22Z</time>
      </trkpt>
      <trkpt lat="44.50586" lon="1.62348">
        <ele>332</ele>
        <time>2016-12-24T16:08:22Z</time>
      </trkpt>
      <trkpt lat="44.50577" lon="1.62327">
        <ele>333</ele>
        <time>2016-12-24T16:10:22Z</time>
      </trkpt>
      <trkpt lat="44.50602" lon="1.62307">
        <ele>334</ele>
        <time>2016-12-24T16:12:22Z</time>
      </trkpt>
      <trkpt lat="44.50612" lon="1.62248">
        <ele>337</ele>
        <time>2016-12-24T16:14:22Z</time>
      </trkpt>
      <trkpt lat="44.50617" lon="1.62197">
        <ele>338</ele>
        <time>2016-12-24T16:16:22Z</time>
      </trkpt>
      <trkpt lat="44.50623" lon="1.62109">
        <ele>338</ele>
        <time>2016-12-24T16:18:22Z</time>
      </trkpt>
      <trkpt lat="44.50636" lon="1.62043">
        <ele>339</ele>
        <time>2016-12-24T16:20:22Z</time>
      </trkpt>
      <trkpt lat="44.50638" lon="1.61964">
        <ele>339</ele>
        <time>2016-12-24T16:22:22Z</time>
      </trkpt>
      <trkpt lat="44.50668" lon="1.61867">
        <ele>339</ele>
        <time>2016-12-24T16:24:22Z</time>
      </trkpt>
      <trkpt lat="44.50668" lon="1.61776">
        <ele>337</ele>
        <time>2016-12-24T16:26:22Z</time>
      </trkpt>
      <trkpt lat="44.50665" lon="1.61637">
        <ele>333</ele>
        <time>2016-12-24T16:28:22Z</time>
      </trkpt>
      <trkpt lat="44.50671" lon="1.61543">
        <ele>331</ele>
        <time>2016-12-24T16:30:22Z</time>
      </trkpt>
      <trkpt lat="44.50686" lon="1.61449">
        <ele>332</ele>
        <time>2016-12-24T16:32:22Z</time>
      </trkpt>
      <trkpt lat="44.50688" lon="1.61411">
        <ele>333</ele>
        <time>2016-12-24T16:34:22Z</time>
      </trkpt>
      <trkpt lat="44.50672" lon="1.61345">
        <ele>332</ele>
        <time>2016-12-24T16:36:22Z</time>
      </trkpt>
      <trkpt lat="44.50656" lon="1.61286">
        <ele>332</ele>
        <time>2016-12-24T16:38:22Z</time>
      </trkpt>
      <trkpt lat="44.50648" lon="1.61207">
        <ele>331</ele>
        <time>2016-12-24T16:40:22Z</time>
      </trkpt>
      <trkpt lat="44.50659" lon="1.61182">
        <ele>330</ele>
        <time>2016-12-24T16:42:22Z</time>
      </trkpt>
      <trkpt lat="44.50646" lon="1.61116">
        <ele>328</ele>
        <time>2016-12-24T16:44:22Z</time>
      </trkpt>
      <trkpt lat="44.50649" lon="1.61019">
        <ele>327</ele>
        <time>2016-12-24T16:46:22Z</time>
      </trkpt>
      <trkpt lat="44.50676" lon="1.60905">
        <ele>327</ele>
        <time>2016-12-24T16:48:22Z</time>
      </trkpt>
      <trkpt lat="44.50678" lon="1.60871">
        <ele>327</ele>
        <time>2016-12-24T16:50:22Z</time>
      </trkpt>
      <trkpt lat="44.50683" lon="1.60723">
        <ele>328</ele>
        <time>2016-12-24T16:52:22Z</time>
      </trkpt>
      <trkpt lat="44.5069" lon="1.60628">
        <ele>328</ele>
        <time>2016-12-24T16:54:22Z</time>
      </trkpt>
      <trkpt lat="44.50689" lon="1.60522">
        <ele>328</ele>
        <time>2016-12-24T16:56:22Z</time>
      </trkpt>
      <trkpt lat="44.50677" lon="1.6045">
        <ele>326</ele>
        <time>2016-12-24T16:58:22Z</time>
      </trkpt>
      <trkpt lat="44.50701" lon="1.60336">
        <ele>324</ele>
        <time>2016-12-24T17:00:22Z</time>
      </trkpt>
      <trkpt lat="44.50716" lon="1.60261">
        <ele>324</ele>
        <time>2016-12-24T17:02:22Z</time>
      </trkpt>
      <trkpt lat="44.50732" lon="1.60191">
        <ele>324</ele>
        <time>2016-12-24T17:04:22Z</time>
      </trkpt>
      <trkpt lat="44.50736" lon="1.60138">
        <ele>324</ele>
        <time>2016-12-24T17:06:22Z</time>
      </trkpt>
      <trkpt lat="44.50722" lon="1.60037">
        <ele>324</ele>
        <time>2016-12-24T17:08:22Z</time>
      </trkpt>
      <trkpt lat="44.50725" lon="1.5994">
        <ele>329</ele>
        <time>2016-12-24T17:10:22Z</time>
      </trkpt>
      <trkpt lat="44.50736" lon="1.59827">
        <ele>328</ele>
        <time>2016-12-24T17:12:22Z</time>
      </trkpt>
      <trkpt lat="44.50749" lon="1.59704">
        <ele>322</ele>
        <time>2016-12-24T17:14:22Z</time>
      </trkpt>
      <trkpt lat="44.50759" lon="1.59622">
        <ele>319</ele>
        <time>2016-12-24T17:16:22Z</time>
      </trkpt>
      <trkpt lat="44.50775" lon="1.59587">
        <ele>317</ele>
        <time>2016-12-24T17:18:22Z</time>
      </trkpt>
      <trkpt lat="44.50835" lon="1.59514">
        <ele>311</ele>
        <time>2016-12-24T17:20:22Z</time>
      </trkpt>
      <trkpt lat="44.50861" lon="1.59442">
        <ele>306</ele>
        <time>2016-12-24T17:22:22Z</time>
      </trkpt>
      <trkpt lat="44.50881" lon="1.5936">
        <ele>305</ele>
        <time>2016-12-24T17:24:22Z</time>
      </trkpt>
      <trkpt lat="44.5089" lon="1.59316">
        <ele>306</ele>
        <time>2016-12-24T17:26:22Z</time>
      </trkpt>
      <trkpt lat="44.50883" lon="1.5924">
        <ele>310</ele>
        <time>2016-12-24T17:28:22Z</time>
      </trkpt>
      <trkpt lat="44.50853" lon="1.59153">
        <ele>312</ele>
        <time>2016-12-24T17:30:22Z</time>
      </trkpt>
      <trkpt lat="44.5083" lon="1.59053">
        <ele>311</ele>
        <time>2016-12-24T17:32:22Z</time>
      </trkpt>
      <trkpt lat="44.50827" lon="1.5899">
        <ele>310</ele>
        <time>2016-12-24T17:34:22Z</time>
      </trkpt>
      <trkpt lat="44.50831" lon="1.58936">
        <ele>308</ele>
        <time>2016-12-24T17:36:22Z</time>
      </trkpt>
      <trkpt lat="44.5086" lon="1.58845">
        <ele>302</ele>
        <time>2016-12-24T17:38:22Z</time>
      </trkpt>
      <trkpt lat="44.50909" lon="1.58772">
        <ele>297</ele>
        <time>2016-12-24T17:40:22Z</time>
      </trkpt>
      <trkpt lat="44.50922" lon="1.58731">
        <ele>296</ele>
        <time>2016-12-24T17:42:22Z</time>
      </trkpt>
      <trkpt lat="44.50901" lon="1.58684">
        <ele>294</ele>
        <time>2016-12-24T17:44:22Z</time>
      </trkpt>
      <trkpt lat="44.50867" lon="1.586">
        <ele>291</ele>
        <time>2016-12-24T17:46:22Z</time>
      </trkpt>
      <trkpt lat="44.50833" lon="1.58537">
        <ele>292</ele>
        <time>2016-12-24T17:48:22Z</time>
      </trkpt>
      <trkpt lat="44.50832" lon="1.5849">
        <ele>296</ele>
        <time>2016-12-24T17:50:22Z</time>
      </trkpt>
      <trkpt lat="44.50834" lon="1.58393">
        <ele>303</ele>
        <time>2016-12-24T17:52:22Z</time>
      </trkpt>
      <trkpt lat="44.50843" lon="1.58355">
        <ele>307</ele>
        <time>2016-12-24T17:54:22Z</time>
      </trkpt>
      <trkpt lat="44.50854" lon="1.58286">
        <ele>313</ele>
        <time>2016-12-24T17:56:22Z</time>
      </trkpt>
      <trkpt lat="44.50837" lon="1.58226">
        <ele>317</ele>
        <time>2016-12-24T17:58:22Z</time>
      </trkpt>
      <trkpt lat="44.5088" lon="1.58166">
        <ele>321</ele>
        <time>2016-12-24T18:00:22Z</time>
      </trkpt>
      <trkpt lat="44.5096" lon="1.58118">
        <ele>326</ele>
        <time>2016-12-24T18:02:22Z</time>
      </trkpt>
      <trkpt lat="44.51007" lon="1.5807">
        <ele>331</ele>
        <time>2016-12-24T18:04:22Z</time>
      </trkpt>
      <trkpt lat="44.51056" lon="1.58009">
        <ele>336</ele>
        <time>2016-12-24T18:06:22Z</time>
      </trkpt>
      <trkpt lat="44.51086" lon="1.58066">
        <ele>337</ele>
        <time>2016-12-24T18:08:22Z</time>
      </trkpt>
      <trkpt lat="44.51101" lon="1.5805">
        <ele>340</ele>
        <time>2016-12-24T18:10:22Z</time>
      </trkpt>
      <trkpt lat="44.51112" lon="1.57965">
        <ele>343</ele>
        <time>2016-12-24T18:12:22Z</time>
      </trkpt>
      <trkpt lat="44.51204" lon="1.5786">
        <ele>349</ele>
        <time>2016-12-24T18:14:22Z</time>
      </trkpt>
      <trkpt lat="44.5128" lon="1.57796">
        <ele>349</ele>
        <time>2016-12-24T18:16:22Z</time>
      </trkpt>
      <trkpt lat="44.51308" lon="1.57745">
        <ele>348</ele>
        <time>2016-12-24T18:18:22Z</time>
      </trkpt>
      <trkpt lat="44.51341" lon="1.57619">
        <ele>344</ele>
        <time>2016-12-24T18:20:22Z</time>
      </trkpt>
      <trkpt lat="44.51388" lon="1.57527">
        <ele>344</ele>
        <time>2016-12-24T18:22:22Z</time>
      </trkpt>
      <trkpt lat="44.51444" lon="1.57454">
        <ele>342</ele>
        <time>2016-12-24T18:24:22Z</time>
      </trkpt>
      <trkpt lat="44.51519" lon="1.57362">
        <ele>335</ele>
        <time>2016-12-24T18:26:22Z</time>
      </trkpt>
      <trkpt lat="44.51577" lon="1.57292">
        <ele>332</ele>
        <time>2016-12-24T18:28:22Z</time>
      </trkpt>
      <trkpt lat="44.51598" lon="1.57273">
        <ele>330</ele>
        <time>2016-12-24T18:30:22Z</time>
      </trkpt>
      <trkpt lat="44.51653" lon="1.57159">
        <ele>322</ele>
        <time>2016-12-24T18:32:22Z</time>
      </trkpt>
      <trkpt lat="44.517" lon="1.57086">
        <ele>318</ele>
        <time>2016-12-24T18:34:22Z</time>
      </trkpt>
      <trkpt lat="44.51742" lon="1.57032">
        <ele>318</ele>
        <time>2016-12-24T18:36:22Z</time>
      </trkpt>
      <trkpt lat="44.51766" lon="1.56947">
        <ele>318</ele>
        <time>2016-12-24T18:38:22Z</time>
      </trkpt>
      <trkpt lat="44.51777" lon="1.56875">
        <ele>320</ele>
        <time>2016-12-24T18:40:22Z</time>
      </trkpt>
      <trkpt lat="44.51774" lon="1.56828">
        <ele>319</ele>
        <time>2016-12-24T18:42:22Z</time>
      </trkpt>
      <trkpt lat="44.51774" lon="1.5674">
        <ele>317</ele>
        <time>2016-12-24T18:44:22Z</time>
      </trkpt>
      <trkpt lat="44.51766" lon="1.56636">
        <ele>315</ele>
        <time>2016-12-24T18:46:22Z</time>
      </trkpt>
      <trkpt lat="44.51747" lon="1.56479">
        <ele>307</ele>
        <time>2016-12-24T18:48:22Z</time>
      </trkpt>
      <trkpt lat="44.51737" lon="1.56341">
        <ele>292</ele>
        <time>2016-12-24T18:50:22Z</time>
      </trkpt>
      <trkpt lat="44.5177" lon="1.56284">
        <ele>284</ele>
        <time>2016-12-24T18:52:22Z</time>
      </trkpt>
      <trkpt lat="44.51797" lon="1.56227">
        <ele>274</ele>
        <time>2016-12-24T18:54:22Z</time>
      </trkpt>
      <trkpt lat="44.51831" lon="1.56205">
        <ele>266</ele>
        <time>2016-12-24T18:56:22Z</time>
      </trkpt>
      <trkpt lat="44.5188" lon="1.56248">
        <ele>255</ele>
        <time>2016-12-24T18:58:22Z</time>
      </trkpt>
      <trkpt lat="44.5187" lon="1.56339">
        <ele>263</ele>
        <time>2016-12-24T19:00:22Z</time>
      </trkpt>
      <trkpt lat="44.51861" lon="1.56361">
        <ele>270</ele>
        <time>2016-12-24T19:02:22Z</time>
      </trkpt>
      <trkpt lat="44.51899" lon="1.56336">
        <ele>253</ele>
        <time>2016-12-24T19:04:22Z</time>
      </trkpt>
      <trkpt lat="44.51932" lon="1.56301">
        <ele>244</ele>
        <time>2016-12-24T19:06:22Z</time>
      </trkpt>
      <trkpt lat="44.51995" lon="1.56265">
        <ele>232</ele>
        <time>2016-12-24T19:08:22Z</time>
      </trkpt>
      <trkpt lat="44.51988" lon="1.56177">
        <ele>219</ele>
        <time>2016-12-24T19:10:22Z</time>
      </trkpt>
      <trkpt lat="44.52001" lon="1.56092">
        <ele>203</ele>
        <time>2016-12-24T19:12:22Z</time>
      </trkpt>
      <trkpt lat="44.51991" lon="1.56026">
        <ele>194</ele>
        <time>2016-12-24T19:14:22Z</time>
      </trkpt>
      <trkpt lat="44.51955" lon="1.55958">
        <ele>185</ele>
        <time>2016-12-24T19:16:22Z</time>
      </trkpt>
      <trkpt lat="44.5193" lon="1.55886">
        <ele>170</ele>
        <time>2016-12-24T19:18:22Z</time>
      </trkpt>
      <trkpt lat="44.51994" lon="1.55844">
        <ele>168</ele>
        <time>2016-12-24T19:20:22Z</time>
      </trkpt>
      <trkpt lat="44.52035" lon="1.55844">
        <ele>176</ele>
        <time>2016-12-24T19:22:22Z</time>
      </trkpt>
      <trkpt lat="44.52104" lon="1.55758">
        <ele>168</ele>
        <time>2016-12-24T19:24:22Z</time>
      </trkpt>
      <trkpt lat="44.52155" lon="1.55729">
        <ele>170</ele>
        <time>2016-12-24T19:26:22Z</time>
      </trkpt>
      <trkpt lat="44.52234" lon="1.55709">
        <ele>173</ele>
        <time>2016-12-24T19:28:22Z</time>
      </trkpt>
      <trkpt lat="44.52306" lon="1.55686">
        <ele>171</ele>
        <time>2016-12-24T19:30:22Z</time>
      </trkpt>
      <trkpt lat="44.52405" lon="1.55688">
        <ele>170</ele>
        <time>2016-12-24T19:32:22Z</time>
      </trkpt>
      <trkpt lat="44.52495" lon="1.55715">
        <ele>172</ele>
        <time>2016-12-24T19:34:22Z</time>
      </trkpt>
      <trkpt lat="44.52542" lon="1.55733">
        <ele>175</ele>
        <time>2016-12-24T19:36:22Z</time>
      </trkpt>
      <trkpt lat="44.52632" lon="1.55735">
        <ele>173</ele>
        <time>2016-12-24T19:38:22Z</time>
      </trkpt>
      <trkpt lat="44.52682" lon="1.55731">
        <ele>173</ele>
        <time>2016-12-24T19:40:22Z</time>
      </trkpt>
      <trkpt lat="44.52715" lon="1.55718">
        <ele>174</ele>
        <time>2016-12-24T19:42:22Z</time>
      </trkpt>
      <trkpt lat="44.52753" lon="1.55661">
        <ele>172</ele>
        <time>2016-12-24T19:44:22Z</time>
      </trkpt>
      <trkpt lat="44.52762" lon="1.55588">
        <ele>172</ele>
        <time>2016-12-24T19:46:22Z</time>
      </trkpt>
      <trkpt lat="44.52781" lon="1.55506">
        <ele>169</ele>
        <time>2016-12-24T19:48:22Z</time>
      </trkpt>
      <trkpt lat="44.52815" lon="1.55446">
        <ele>168</ele>
        <time>2016-12-24T19:50:22Z</time>
      </trkpt>
      <trkpt lat="44.52873" lon="1.55449">
        <ele>167</ele>
        <time>2016-12-24T19:52:22Z</time>
      </trkpt>
      <trkpt lat="44.52878" lon="1.55511">
        <ele>172</ele>
        <time>2016-12-24T19:54:22Z</time>
      </trkpt>
      <trkpt lat="44.52939" lon="1.55595">
        <ele>189</ele>
        <time>2016-12-24T19:56:22Z</time>
      </trkpt>
      <trkpt lat="44.52975" lon="1.55626">
        <ele>198</ele>
        <time>2016-12-24T19:58:22Z</time>
      </trkpt>
      <trkpt lat="44.53016" lon="1.5561">
        <ele>187</ele>
        <time>2016-12-24T20:00:22Z</time>
      </trkpt>
      <trkpt lat="44.53074" lon="1.55581">
        <ele>175</ele>
        <time>2016-12-24T20:02:22Z</time>
      </trkpt>
      <trkpt lat="44.53031" lon="1.55478">
        <ele>169</ele>
        <time>2016-12-24T20:04:22Z</time>
      </trkpt>
      <trkpt lat="44.53084" lon="1.55424">
        <ele>173</ele>
        <time>2016-12-24T20:06:22Z</time>
      </trkpt>
      <trkpt lat="44.53136" lon="1.55398">
        <ele>181</ele>
        <time>2016-12-24T20:08:22Z</time>
      </trkpt>
      <trkpt lat="44.53192" lon="1.55444">
        <ele>175</ele>
        <time>2016-12-24T20:10:22Z</time>
      </trkpt>
      <trkpt lat="44.53233" lon="1.55538">
        <ele>173</ele>
        <time>2016-12-24T20:12:22Z</time>
      </trkpt>
      <trkpt lat="44.53277" lon="1.55672">
        <ele>173</ele>
        <time>2016-12-24T20:14:22Z</time>
      </trkpt>
      <trkpt lat="44.53383" lon="1.55746">
        <ele>176</ele>
        <time>2016-12-24T20:16:22Z</time>
      </trkpt>
      <trkpt lat="44.53446" lon="1.55767">
        <ele>185</ele>
        <time>2016-12-24T20:18:22Z</time>
      </trkpt>
      <trkpt lat="44.53505" lon="1.55779">
        <ele>191</ele>
        <time>2016-12-24T20:20:22Z</time>
      </trkpt>
      <trkpt lat="44.53566" lon="1.55778">
        <ele>190</ele>
        <time>2016-12-24T20:22:22Z</time>
      </trkpt>
      <trkpt lat="44.53613" lon="1.55793">
        <ele>191</ele>
        <time>2016-12-24T20:24:22Z</time>
      </trkpt>
      <trkpt lat="44.53633" lon="1.55815">
        <ele>192</ele>
        <time>2016-12-24T20:26:22Z</time>
      </trkpt>
      <trkpt lat="44.53653" lon="1.5579">
        <ele>183</ele>
        <time>2016-12-24T20:28:22Z</time>
      </trkpt>
      <trkpt lat="44.53653" lon="1.55765">
        <ele>178</ele>
        <time>2016-12-24T20:30:22Z</time>
      </trkpt>
      <trkpt lat="44.53698" lon="1.55714">
        <ele>177</ele>
        <time>2016-12-24T20:32:22Z</time>
      </trkpt>
      <trkpt lat="44.53725" lon="1.55691">
        <ele>178</ele>
        <time>2016-12-24T20:34:22Z</time>
      </trkpt>
      <trkpt lat="44.53756" lon="1.55697">
        <ele>180</ele>
        <time>2016-12-24T20:36:22Z</time>
      </trkpt>
      <trkpt lat="44.5376" lon="1.55659">
        <ele>180</ele>
        <time>2016-12-24T20:38:22Z</time>
      </trkpt>
      <trkpt lat="44.53778" lon="1.55618">
        <ele>182</ele>
        <time>2016-12-24T20:40:22Z</time>
      </trkpt>
      <trkpt lat="44.53769" lon="1.55559">
        <ele>189</ele>
        <time>2016-12-24T20:42:22Z</time>
      </trkpt>
      <trkpt lat="44.53834" lon="1.55526">
        <ele>194</ele>
        <time>2016-12-24T20:44:22Z</time>
      </trkpt>
      <trkpt lat="44.53885" lon="1.55504">
        <ele>189</ele>
        <time>2016-12-24T20:46:22Z</time>
      </trkpt>
      <trkpt lat="44.53912" lon="1.55466">
        <ele>188</ele>
        <time>2016-12-24T20:48:22Z</time>
      </trkpt>
      <trkpt lat="44.53934" lon="1.55415">
        <ele>191</ele>
        <time>2016-12-24T20:50:22Z</time>
      </trkpt>
      <trkpt lat="44.53963" lon="1.55402">
        <ele>189</ele>
        <time>2016-12-24T20:52:22Z</time>
      </trkpt>
      <trkpt lat="44.54003" lon="1.5531">
        <ele>193</ele>
        <time>2016-12-24T20:54:22Z</time>
      </trkpt>
      <trkpt lat="44.54039" lon="1.55313">
        <ele>190</ele>
        <time>2016-12-24T20:56:22Z</time>
      </trkpt>
      <trkpt lat="44.54093" lon="1.55331">
        <ele>183</ele>
        <time>2016-12-24T20:58:22Z</time>
      </trkpt>
      <trkpt lat="44.54144" lon="1.55283">
        <ele>186</ele>
        <time>2016-12-24T21:00:22Z</time>
      </trkpt>
      <trkpt lat="44.54169" lon="1.55236">
        <ele>187</ele>
        <time>2016-12-24T21:02:22Z</time>
      </trkpt>
      <trkpt lat="44.54187" lon="1.55207">
        <ele>190</ele>
        <time>2016-12-24T21:04:22Z</time>
      </trkpt>
      <trkpt lat="44.54231" lon="1.55169">
        <ele>188</ele>
        <time>2016-12-24T21:06:22Z</time>
      </trkpt>
      <trkpt lat="44.54258" lon="1.5514">
        <ele>185</ele>
        <time>2016-12-24T21:08:22Z</time>
      </trkpt>
      <trkpt lat="44.54269" lon="1.55112">
        <ele>186</ele>
        <time>2016-12-24T21:10:22Z</time>
      </trkpt>
      <trkpt lat="44.54255" lon="1.55055">
        <ele>190</ele>
        <time>2016-12-24T21:12:22Z</time>
      </trkpt>
      <trkpt lat="44.54246" lon="1.54996">
        <ele>198</ele>
        <time>2016-12-24T21:14:22Z</time>
      </trkpt>
      <trkpt lat="44.54261" lon="1.54939">
        <ele>200</ele>
        <time>2016-12-24T21:16:22Z</time>
      </trkpt>
      <trkpt lat="44.54283" lon="1.54888">
        <ele>198</ele>
        <time>2016-12-24T21:18:22Z</time>
      </trkpt>
      <trkpt lat="44.54303" lon="1.54853">
        <ele>194</ele>
        <time>2016-12-24T21:20:22Z</time>
      </trkpt>
      <trkpt lat="44.54312" lon="1.54806">
        <ele>192</ele>
        <time>2016-12-24T21:22:22Z</time>
      </trkpt>
      <trkpt lat="44.54323" lon="1.54734">
        <ele>189</ele>
        <time>2016-12-24T21:24:22Z</time>
      </trkpt>
      <trkpt lat="44.54302" lon="1.54677">
        <ele>188</ele>
        <time>2016-12-24T21:26:22Z</time>
      </trkpt>
      <trkpt lat="44.54281" lon="1.54637">
        <ele>189</ele>
        <time>2016-12-24T21:28:22Z</time>
      </trkpt>
      <trkpt lat="44.54259" lon="1.54637">
        <ele>189</ele>
        <time>2016-12-24T21:30:22Z</time>
      </trkpt>
      <trkpt lat="44.54241" lon="1.54678">
        <ele>192</ele>
        <time>2016-12-24T21:32:22Z</time>
      </trkpt>
      <trkpt lat="44.54212" lon="1.5471">
        <ele>200</ele>
        <time>2016-12-24T21:34:22Z</time>
      </trkpt>
      <trkpt lat="44.54158" lon="1.54692">
        <ele>197</ele>
        <time>2016-12-24T21:36:22Z</time>
      </trkpt>
      <trkpt lat="44.54142" lon="1.54664">
        <ele>195</ele>
        <time>2016-12-24T21:38:22Z</time>
      </trkpt>
      <trkpt lat="44.54115" lon="1.54614">
        <ele>195</ele>
        <time>2016-12-24T21:40:22Z</time>
      </trkpt>
      <trkpt lat="44.54088" lon="1.54595">
        <ele>194</ele>
        <time>2016-12-24T21:42:22Z</time>
      </trkpt>
      <trkpt lat="44.54049" lon="1.5452">
        <ele>199</ele>
        <time>2016-12-24T21:44:22Z</time>
      </trkpt>
      <trkpt lat="44.54067" lon="1.54495">
        <ele>193</ele>
        <time>2016-12-24T21:46:22Z</time>
      </trkpt>
      <trkpt lat="44.54075" lon="1.54404">
        <ele>196</ele>
        <time>2016-12-24T21:48:22Z</time>
      </trkpt>
      <trkpt lat="44.54095" lon="1.54319">
        <ele>201</ele>
        <time>2016-12-24T21:50:22Z</time>
      </trkpt>
      <trkpt lat="44.54067" lon="1.54244">
        <ele>199</ele>
        <time>2016-12-24T21:52:22Z</time>
      </trkpt>
      <trkpt lat="44.54035" lon="1.5415">
        <ele>200</ele>
        <time>2016-12-24T21:54:22Z</time>
      </trkpt>
      <trkpt lat="44.54037" lon="1.54068">
        <ele>201</ele>
        <time>2016-12-24T21:56:22Z</time>
      </trkpt>
      <trkpt lat="44.54065" lon="1.53967">
        <ele>203</ele>
        <time>2016-12-24T21:58:22Z</time>
      </trkpt>
      <trkpt lat="44.54096" lon="1.539">
        <ele>202</ele>
        <time>2016-12-24T22:00:22Z</time>
      </trkpt>
      <trkpt lat="44.54141" lon="1.53828">
        <ele>199</ele>
        <time>2016-12-24T22:02:22Z</time>
      </trkpt>
      <trkpt lat="44.54177" lon="1.53818">
        <ele>200</ele>
        <time>2016-12-24T22:04:22Z</time>
      </trkpt>
      <trkpt lat="44.54199" lon="1.53833">
        <ele>204</ele>
        <time>2016-12-24T22:06:22Z</time>
      </trkpt>
      <trkpt lat="44.54228" lon="1.53779">
        <ele>206</ele>
        <time>2016-12-24T22:08:22Z</time>
      </trkpt>
      <trkpt lat="44.54239" lon="1.53719">
        <ele>204</ele>
        <time>2016-12-24T22:10:22Z</time>
      </trkpt>
      <trkpt lat="44.54261" lon="1.53615">
        <ele>204</ele>
        <time>2016-12-24T22:12:22Z</time>
      </trkpt>
      <trkpt lat="44.543" lon="1.5347">
        <ele>201</ele>
        <time>2016-12-24T22:14:22Z</time>
      </trkpt>
      <trkpt lat="44.54331" lon="1.53438">
        <ele>200</ele>
        <time>2016-12-24T22:16:22Z</time>
      </trkpt>
      <trkpt lat="44.5441" lon="1.53415">
        <ele>202</ele>
        <time>2016-12-24T22:18:22Z</time>
      </trkpt>
      <trkpt lat="44.54423" lon="1.53377">
        <ele>203</ele>
        <time>2016-12-24T22:20:22Z</time>
      </trkpt>
      <trkpt lat="44.54491" lon="1.53414">
        <ele>207</ele>
        <time>2016-12-24T22:22:22Z</time>
      </trkpt>
      <trkpt lat="44.54552" lon="1.5346">
        <ele>219</ele>
        <time>2016-12-24T22:24:22Z</time>
      </trkpt>
      <trkpt lat="44.54617" lon="1.53522">
        <ele>224</ele>
        <time>2016-12-24T22:26:22Z</time>
      </trkpt>
      <trkpt lat="44.54676" lon="1.53572">
        <ele>226</ele>
        <time>2016-12-24T22:28:22Z</time>
      </trkpt>
      <trkpt lat="44.54735" lon="1.53586">
        <ele>231</ele>
        <time>2016-12-24T22:30:22Z</time>
      </trkpt>
      <trkpt lat="44.54796" lon="1.53598">
        <ele>236</ele>
        <time>2016-12-24T22:32:22Z</time>
      </trkpt>
      <trkpt lat="44.54854" lon="1.53578">
        <ele>238</ele>
        <time>2016-12-24T22:34:22Z</time>
      </trkpt>
      <trkpt lat="44.54874" lon="1.53578">
        <ele>240</ele>
        <time>2016-12-24T22:36:22Z</time>
      </trkpt>
      <trkpt lat="44.54932" lon="1.53524">
        <ele>242</ele>
        <time>2016-12-24T22:38:22Z</time>
      </trkpt>
      <trkpt lat="44.54993" lon="1.53485">
        <ele>244</ele>
        <time>2016-12-24T22:40:22Z</time>
      </trkpt>
      <trkpt lat="44.55049" lon="1.53459">
        <ele>252</ele>
        <time>2016-12-24T22:42:22Z</time>
      </trkpt>
      <trkpt lat="44.55174" lon="1.53458">
        <ele>262</ele>
        <time>2016-12-24T22:44:22Z</time>
      </trkpt>
      <trkpt lat="44.55231" lon="1.53538">
        <ele>274</ele>
        <time>2016-12-24T22:46:22Z</time>
      </trkpt>
      <trkpt lat="44.55286" lon="1.53601">
        <ele>282</ele>
        <time>2016-12-24T22:48:22Z</time>
      </trkpt>
      <trkpt lat="44.55376" lon="1.53631">
        <ele>293</ele>
        <time>2016-12-24T22:50:22Z</time>
      </trkpt>
      <trkpt lat="44.55421" lon="1.5364">
        <ele>298</ele>
        <time>2016-12-24T22:52:22Z</time>
      </trkpt>
      <trkpt lat="44.55466" lon="1.53601">
        <ele>300</ele>
        <time>2016-12-24T22:54:22Z</time>
      </trkpt>
      <trkpt lat="44.55504" lon="1.53591">
        <ele>302</ele>
        <time>2016-12-24T22:56:22Z</time>
      </trkpt>
      <trkpt lat="44.55546" lon="1.5355">
        <ele>305</ele>
        <time>2016-12-24T22:58:22Z</time>
      </trkpt>
      <trkpt lat="44.55593" lon="1.53486">
        <ele>308</ele>
        <time>2016-12-24T23:00:22Z</time>
      </trkpt>
      <trkpt lat="44.5568" lon="1.53422">
        <ele>314</ele>
        <time>2016-12-24T23:02:22Z</time>
      </trkpt>
      <trkpt lat="44.55698" lon="1.5345">
        <ele>314</ele>
        <time>2016-12-24T23:04:22Z</time>
      </trkpt>
      <trkpt lat="44.55717" lon="1.53491">
        <ele>316</ele>
        <time>2016-12-24T23:06:22Z</time>
      </trkpt>
      <trkpt lat="44.55744" lon="1.53531">
        <ele>321</ele>
        <time>2016-12-24T23:08:22Z</time>
      </trkpt>
      <trkpt lat="44.55791" lon="1.53571">
        <ele>328</ele>
        <time>2016-12-24T23:10:22Z</time>
      </trkpt>
      <trkpt lat="44.55814" lon="1.5358">
        <ele>330</ele>
        <time>2016-12-24T23:12:22Z</time>
      </trkpt>
      <trkpt lat="44.55866" lon="1.53567">
        <ele>330</ele>
        <time>2016-12-24T23:14:22Z</time>
      </trkpt>
      <trkpt lat="44.5591" lon="1.53544">
        <ele>330</ele>
        <time>2016-12-24T23:16:22Z</time>
      </trkpt>
      <trkpt lat="44.55987" lon="1.53503">
        <ele>337</ele>
        <time>2016-12-24T23:18:22Z</time>
      </trkpt>
      <trkpt lat="44.56049" lon="1.53505">
        <ele>343</ele>
        <time>2016-12-24T23:20:22Z</time>
      </trkpt>
      <trkpt lat="44.56137" lon="1.53482">
        <ele>348</ele>
        <time>2016-12-24T23:22:22Z</time>
      </trkpt>
      <trkpt lat="44.56211" lon="1.53436">
        <ele>350</ele>
        <time>2016-12-24T23:24:22Z</time>
      </trkpt>
      <trkpt lat="44.5628" lon="1.53426">
        <ele>356</ele>
        <time>2016-12-24T23:26:22Z</time>
      </trkpt>
      <trkpt lat="44.56292" lon="1.53404">
        <ele>357</ele>
        <time>2016-12-24T23:28:22Z</time>
      </trkpt>
      <trkpt lat="44.56381" lon="1.5339">
        <ele>362</ele>
        <time>2016-12-24T23:30:22Z</time>
      </trkpt>
      <trkpt lat="44.56386" lon="1.53443">
        <ele>361</ele>
        <time>2016-12-24T23:32:22Z</time>
      </trkpt>
      <trkpt lat="44.56425" lon="1.53471">
        <ele>361</ele>
        <time>2016-12-24T23:34:22Z</time>
      </trkpt>
      <trkpt lat="44.56479" lon="1.53473">
        <ele>357</ele>
        <time>2016-12-24T23:36:22Z</time>
      </trkpt>
      <trkpt lat="44.56508" lon="1.53476">
        <ele>355</ele>
        <time>2016-12-24T23:38:22Z</time>
      </trkpt>
      <trkpt lat="44.5656" lon="1.53475">
        <ele>352</ele>
        <time>2016-12-24T23:40:22Z</time>
      </trkpt>
      <trkpt lat="44.56627" lon="1.53462">
        <ele>352</ele>
        <time>2016-12-24T23:42:22Z</time>
      </trkpt>
      <trkpt lat="44.5669" lon="1.53448">
        <ele>355</ele>
        <time>2016-12-24T23:44:22Z</time>
      </trkpt>
      <trkpt lat="44.56762" lon="1.5351">
        <ele>357</ele>
        <time>2016-12-24T23:46:22Z</time>
      </trkpt>
      <trkpt lat="44.56778" lon="1.53516">
        <ele>357</ele>
        <time>2016-12-24T23:48:22Z</time>
      </trkpt>
      <trkpt lat="44.56814" lon="1.53579">
        <ele>357</ele>
        <time>2016-12-24T23:50:22Z</time>
      </trkpt>
      <trkpt lat="44.56874" lon="1.53666">
        <ele>354</ele>
        <time>2016-12-24T23:52:22Z</time>
      </trkpt>
      <trkpt lat="44.56914" lon="1.53653">
        <ele>353</ele>
        <time>2016-12-24T23:54:22Z</time>
      </trkpt>
      <trkpt lat="44.56999" lon="1.53648">
        <ele>350</ele>
        <time>2016-12-24T23:56:22Z</time>
      </trkpt>
      <trkpt lat="44.57051" lon="1.53585">
        <ele>348</ele>
        <time>2016-12-24T23:58:22Z</time>
      </trkpt>
      <trkpt lat="44.57071" lon="1.53547">
        <ele>349</ele>
        <time>2016-12-25T00:00:22Z</time>
      </trkpt>
      <trkpt lat="44.57091" lon="1.53512">
        <ele>351</ele>
        <time>2016-12-25T00:02:22Z</time>
      </trkpt>
      <trkpt lat="44.57165" lon="1.53571">
        <ele>352</ele>
        <time>2016-12-25T00:04:22Z</time>
      </trkpt>
      <trkpt lat="44.57237" lon="1.53541">
        <ele>361</ele>
        <time>2016-12-25T00:06:22Z</time>
      </trkpt>
      <trkpt lat="44.57305" lon="1.53569">
        <ele>362</ele>
        <time>2016-12-25T00:08:22Z</time>
      </trkpt>
      <trkpt lat="44.57444" lon="1.53507">
        <ele>374</ele>
        <time>2016-12-25T00:10:22Z</time>
      </trkpt>
      <trkpt lat="44.57418" lon="1.53457">
        <ele>377</ele>
        <time>2016-12-25T00:12:22Z</time>
      </trkpt>
      <trkpt lat="44.57418" lon="1.53422">
        <ele>379</ele>
        <time>2016-12-25T00:14:22Z</time>
      </trkpt>
      <trkpt lat="44.57438" lon="1.53306">
        <ele>376</ele>
        <time>2016-12-25T00:16:22Z</time>
      </trkpt>
      <trkpt lat="44.57548" lon="1.53298">
        <ele>370</ele>
        <time>2016-12-25T00:18:22Z</time>
      </trkpt>
      <trkpt lat="44.57586" lon="1.53319">
        <ele>366</ele>
        <time>2016-12-25T00:20:22Z</time>
      </trkpt>
      <trkpt lat="44.57618" lon="1.53369">
        <ele>366</ele>
        <time>2016-12-25T00:22:22Z</time>
      </trkpt>
      <trkpt lat="44.57686" lon="1.53418">
        <ele>365</ele>
        <time>2016-12-25T00:24:22Z</time>
      </trkpt>
      <trkpt lat="44.57715" lon="1.53415">
        <ele>362</ele>
        <time>2016-12-25T00:26:22Z</time>
      </trkpt>
      <trkpt lat="44.578" lon="1.53357">
        <ele>365</ele>
        <time>2016-12-25T00:28:22Z</time>
      </trkpt>
      <trkpt lat="44.57795" lon="1.53341">
        <ele>365</ele>
        <time>2016-12-25T00:30:22Z</time>
      </trkpt>
      <trkpt lat="44.57838" lon="1.5329">
        <ele>369</ele>
        <time>2016-12-25T00:32:22Z</time>
      </trkpt>
      <trkpt lat="44.57878" lon="1.53249">
        <ele>373</ele>
        <time>2016-12-25T00:34:22Z</time>
      </trkpt>
      <trkpt lat="44.57923" lon="1.53207">
        <ele>374</ele>
        <time>2016-12-25T00:36:22Z</time>
      </trkpt>
      <trkpt lat="44.57981" lon="1.53213">
        <ele>378</ele>
        <time>2016-12-25T00:38:22Z</time>
      </trkpt>
      <trkpt lat="44.58079" lon="1.53089">
        <ele>384</ele>
        <time>2016-12-25T00:40:22Z</time>
      </trkpt>
      <trkpt lat="44.58101" lon="1.53076">
        <ele>386</ele>
        <time>2016-12-25T00:42:22Z</time>
      </trkpt>
      <trkpt lat="44.58186" lon="1.53024">
        <ele>389</ele>
        <time>2016-12-25T00:44:22Z</time>
      </trkpt>
      <trkpt lat="44.58301" lon="1.52985">
        <ele>388</ele>
        <time>2016-12-25T00:46:22Z</time>
      </trkpt>
      <trkpt lat="44.58341" lon="1.52959">
        <ele>389</ele>
        <time>2016-12-25T00:48:22Z</time>
      </trkpt>
      <trkpt lat="44.58368" lon="1.52943">
        <ele>390</ele>
        <time>2016-12-25T00:50:22Z</time>
      </trkpt>
      <trkpt lat="44.5839" lon="1.52896">
        <ele>395</ele>
        <time>2016-12-25T00:52:22Z</time>
      </trkpt>
      <trkpt lat="44.58448" lon="1.52873">
        <ele>402</ele>
        <time>2016-12-25T00:54:22Z</time>
      </trkpt>
      <trkpt lat="44.58542" lon="1.52768">
        <ele>410</ele>
        <time>2016-12-25T00:56:22Z</time>
      </trkpt>
      <trkpt lat="44.58596" lon="1.52735">
        <ele>409</ele>
        <time>2016-12-25T00:58:22Z</time>
      </trkpt>
      <trkpt lat="44.58695" lon="1.52768">
        <ele>405</ele>
        <time>2016-12-25T01:00:22Z</time>
      </trkpt>
      <trkpt lat="44.58722" lon="1.52708">
        <ele>407</ele>
        <time>2016-12-25T01:02:22Z</time>
      </trkpt>
      <trkpt lat="44.58735" lon="1.52708">
        <ele>406</ele>
        <time>2016-12-25T01:04:22Z</time>
      </trkpt>
      <trkpt lat="44.58827" lon="1.52697">
        <ele>406</ele>
        <time>2016-12-25T01:06:22Z</time>
      </trkpt>
      <trkpt lat="44.58881" lon="1.52643">
        <ele>408</ele>
        <time>2016-12-25T01:08:22Z</time>
      </trkpt>
      <trkpt lat="44.58916" lon="1.52602">
        <ele>410</ele>
        <time>2016-12-25T01:10:22Z</time>
      </trkpt>
      <trkpt lat="44.58959" lon="1.52551">
        <ele>412</ele>
        <time>2016-12-25T01:12:22Z</time>
      </trkpt>
      <trkpt lat="44.59044" lon="1.52527">
        <ele>416</ele>
        <time>2016-12-25T01:14:22Z</time>
      </trkpt>
      <trkpt lat="44.59123" lon="1.52511">
        <ele>414</ele>
        <time>2016-12-25T01:16:22Z</time>
      </trkpt>
      <trkpt lat="44.59188" lon="1.52475">
        <ele>407</ele>
        <time>2016-12-25T01:18:22Z</time>
      </trkpt>
      <trkpt lat="44.59243" lon="1.52433">
        <ele>405</ele>
        <time>2016-12-25T01:20:22Z</time>
      </trkpt>
      <trkpt lat="44.59281" lon="1.52392">
        <ele>406</ele>
        <time>2016-12-25T01:22:22Z</time>
      </trkpt>
      <trkpt lat="44.59326" lon="1.5236">
        <ele>407</ele>
        <time>2016-12-25T01:24:22Z</time>
      </trkpt>
      <trkpt lat="44.59366" lon="1.5234">
        <ele>407</ele>
        <time>2016-12-25T01:26:22Z</time>
      </trkpt>
      <trkpt lat="44.59396" lon="1.52334">
        <ele>405</ele>
        <time>2016-12-25T01:28:22Z</time>
      </trkpt>
      <trkpt lat="44.59425" lon="1.5233">
        <ele>404</ele>
        <time>2016-12-25T01:30:22Z</time>
      </trkpt>
      <trkpt lat="44.59436" lon="1.52305">
        <ele>403</ele>
        <time>2016-12-25T01:32:22Z</time>
      </trkpt>
      <trkpt lat="44.5947" lon="1.52348">
        <ele>405</ele>
        <time>2016-12-25T01:34:22Z</time>
      </trkpt>
      <trkpt lat="44.59493" lon="1.52411">
        <ele>404</ele>
        <time>2016-12-25T01:36:22Z</time>
      </trkpt>
      <trkpt lat="44.59545" lon="1.52442">
        <ele>397</ele>
        <time>2016-12-25T01:38:22Z</time>
      </trkpt>
      <trkpt lat="44.59599" lon="1.52475">
        <ele>390</ele>
        <time>2016-12-25T01:40:22Z</time>
      </trkpt>
      <trkpt lat="44.59673" lon="1.52493">
        <ele>380</ele>
        <time>2016-12-25T01:42:22Z</time>
      </trkpt>
      <trkpt lat="44.59707" lon="1.52527">
        <ele>377</ele>
        <time>2016-12-25T01:44:22Z</time>
      </trkpt>
      <trkpt lat="44.59728" lon="1.52558">
        <ele>377</ele>
        <time>2016-12-25T01:46:22Z</time>
      </trkpt>
      <trkpt lat="44.59764" lon="1.52602">
        <ele>375</ele>
        <time>2016-12-25T01:48:22Z</time>
      </trkpt>
      <trkpt lat="44.59825" lon="1.52677">
        <ele>372</ele>
        <time>2016-12-25T01:50:22Z</time>
      </trkpt>
      <trkpt lat="44.59875" lon="1.52745">
        <ele>374</ele>
        <time>2016-12-25T01:52:22Z</time>
      </trkpt>
      <trkpt lat="44.59912" lon="1.52804">
        <ele>378</ele>
        <time>2016-12-25T01:54:22Z</time>
      </trkpt>
      <trkpt lat="44.59932" lon="1.52851">
        <ele>379</ele>
        <time>2016-12-25T01:56:22Z</time>
      </trkpt>
      <trkpt lat="44.60048" lon="1.52976">
        <ele>380</ele>
        <time>2016-12-25T01:58:22Z</time>
      </trkpt>
      <trkpt lat="44.60114" lon="1.53069">
        <ele>374</ele>
        <time>2016-12-25T02:00:22Z</time>
      </trkpt>
      <trkpt lat="44.60177" lon="1.5315">
        <ele>374</ele>
        <time>2016-12-25T02:02:22Z</time>
      </trkpt>
      <trkpt lat="44.60216" lon="1.53219">
        <ele>376</ele>
        <time>2016-12-25T02:04:22Z</time>
      </trkpt>
      <trkpt lat="44.60343" lon="1.53365">
        <ele>377</ele>
        <time>2016-12-25T02:06:22Z</time>
      </trkpt>
      <trkpt lat="44.60415" lon="1.53433">
        <ele>379</ele>
        <time>2016-12-25T02:08:22Z</time>
      </trkpt>
      <trkpt lat="44.60484" lon="1.53517">
        <ele>379</ele>
        <time>2016-12-25T02:10:22Z</time>
      </trkpt>
      <trkpt lat="44.60563" lon="1.53576">
        <ele>378</ele>
        <time>2016-12-25T02:12:22Z</time>
      </trkpt>
      <trkpt lat="44.60615" lon="1.53632">
        <ele>378</ele>
        <time>2016-12-25T02:14:22Z</time>
      </trkpt>
      <trkpt lat="44.60649" lon="1.53669">
        <ele>378</ele>
        <time>2016-12-25T02:16:22Z</time>
      </trkpt>
      <trkpt lat="44.60665" lon="1.53694">
        <ele>376</ele>
        <time>2016-12-25T02:18:22Z</time>
      </trkpt>
      <trkpt lat="44.6071" lon="1.53731">
        <ele>370</ele>
        <time>2016-12-25T02:20:22Z</time>
      </trkpt>
      <trkpt lat="44.60737" lon="1.53771">
        <ele>368</ele>
        <time>2016-12-25T02:22:22Z</time>
      </trkpt>
      <trkpt lat="44.60762" lon="1.53815">
        <ele>369</ele>
        <time>2016-12-25T02:24:22Z</time>
      </trkpt>
      <trkpt lat="44.60767" lon="1.53894">
        <ele>368</ele>
        <time>2016-12-25T02:26:22Z</time>
      </trkpt>
      <trkpt lat="44.60759" lon="1.53963">
        <ele>364</ele>
        <time>2016-12-25T02:28:22Z</time>
      </trkpt>
      <trkpt lat="44.60764" lon="1.54057">
        <ele>356</ele>
        <time>2016-12-25T02:30:22Z</time>
      </trkpt>
      <trkpt lat="44.6081" lon="1.54154">
        <ele>351</ele>
        <time>2016-12-25T02:32:22Z</time>
      </trkpt>
      <trkpt lat="44.60819" lon="1.54224">
        <ele>347</ele>
        <time>2016-12-25T02:34:22Z</time>
      </trkpt>
      <trkpt lat="44.60799" lon="1.5429">
        <ele>337</ele>
        <time>2016-12-25T02:36:22Z</time>
      </trkpt>
      <trkpt lat="44.60793" lon="1.54347">
        <ele>332</ele>
        <time>2016-12-25T02:38:22Z</time>
      </trkpt>
      <trkpt lat="44.60829" lon="1.5439">
        <ele>332</ele>
        <time>2016-12-25T02:40:22Z</time>
      </trkpt>
      <trkpt lat="44.60875" lon="1.5443">
        <ele>324</ele>
        <time>2016-12-25T02:42:22Z</time>
      </trkpt>
      <trkpt lat="44.6096" lon="1.54407">
        <ele>316</ele>
        <time>2016-12-25T02:44:22Z</time>
      </trkpt>
      <trkpt lat="44.61025" lon="1.54394">
        <ele>306</ele>
        <time>2016-12-25T02:46:22Z</time>
      </trkpt>
      <trkpt lat="44.6111" lon="1.54355">
        <ele>291</ele>
        <time>2016-12-25T02:48:22Z</time>
      </trkpt>
      <trkpt lat="44.61182" lon="1.54284">
        <ele>282</ele>
        <time>2016-12-25T02:50:22Z</time>
      </trkpt>
      <trkpt lat="44.61233" lon="1.54271">
        <ele>273</ele>
        <time>2016-12-25T02:52:22Z</time>
      </trkpt>
      <trkpt lat="44.6129" lon="1.5434">
        <ele>267</ele>
        <time>2016-12-25T02:54:22Z</time>
      </trkpt>
      <trkpt lat="44.6131" lon="1.54352">
        <ele>267</ele>
        <time>2016-12-25T02:56:22Z</time>
      </trkpt>
      <trkpt lat="44.61391" lon="1.54348">
        <ele>272</ele>
        <time>2016-12-25T02:58:22Z</time>
      </trkpt>
      <trkpt lat="44.61452" lon="1.54334">
        <ele>276</ele>
        <time>2016-12-25T03:00:22Z</time>
      </trkpt>
      <trkpt lat="44.61517" lon="1.54346">
        <ele>276</ele>
        <time>2016-12-25T03:02:22Z</time>
      </trkpt>
      <trkpt lat="44.61578" lon="1.5437">
        <ele>274</ele>
        <time>2016-12-25T03:04:22Z</time>
      </trkpt>
      <trkpt lat="44.61625" lon="1.54398">
        <ele>279</ele>
        <time>2016-12-25T03:06:22Z</time>
      </trkpt>
      <trkpt lat="44.61676" lon="1.54485">
        <ele>278</ele>
        <time>2016-12-25T03:08:22Z</time>
      </trkpt>
      <trkpt lat="44.6173" lon="1.5461">
        <ele>280</ele>
        <time>2016-12-25T03:10:22Z</time>
      </trkpt>
      <trkpt lat="44.61767" lon="1.5473">
        <ele>282</ele>
        <time>2016-12-25T03:12:22Z</time>
      </trkpt>
      <trkpt lat="44.61797" lon="1.54798">
        <ele>280</ele>
        <time>2016-12-25T03:14:22Z</time>
      </trkpt>
      <trkpt lat="44.61817" lon="1.54814">
        <ele>280</ele>
        <time>2016-12-25T03:16:22Z</time>
      </trkpt>
      <trkpt lat="44.61844" lon="1.5481">
        <ele>282</ele>
        <time>2016-12-25T03:18:22Z</time>
      </trkpt>
      <trkpt lat="44.6186" lon="1.5481">
        <ele>283</ele>
        <time>2016-12-25T03:20:22Z</time>
      </trkpt>
      <trkpt lat="44.61903" lon="1.54835">
        <ele>284</ele>
        <time>2016-12-25T03:22:22Z</time>
      </trkpt>
      <trkpt lat="44.61903" lon="1.54879">
        <ele>283</ele>
        <time>2016-12-25T03:24:22Z</time>
      </trkpt>
      <trkpt lat="44.6195" lon="1.54944">
        <ele>292</ele>
        <time>2016-12-25T03:26:22Z</time>
      </trkpt>
      <trkpt lat="44.6199" lon="1.55025">
        <ele>294</ele>
        <time>2016-12-25T03:28:22Z</time>
      </trkpt>
      <trkpt lat="44.62026" lon="1.55082">
        <ele>289</ele>
        <time>2016-12-25T03:30:22Z</time>
      </trkpt>
      <trkpt lat="44.62051" lon="1.55097">
        <ele>291</ele>
        <time>2016-12-25T03:32:22Z</time>
      </trkpt>
      <trkpt lat="44.62099" lon="1.55077">
        <ele>297</ele>
        <time>2016-12-25T03:34:22Z</time>
      </trkpt>
      <trkpt lat="44.62125" lon="1.55075">
        <ele>299</ele>
        <time>2016-12-25T03:36:22Z</time>
      </trkpt>
      <trkpt lat="44.62126" lon="1.55105">
        <ele>296</ele>
        <time>2016-12-25T03:38:22Z</time>
      </trkpt>
      <trkpt lat="44.62158" lon="1.55102">
        <ele>298</ele>
        <time>2016-12-25T03:40:22Z</time>
      </trkpt>
      <trkpt lat="44.62254" lon="1.55133">
        <ele>306</ele>
        <time>2016-12-25T03:42:22Z</time>
      </trkpt>
      <trkpt lat="44.62323" lon="1.55148">
        <ele>306</ele>
        <time>2016-12-25T03:44:22Z</time>
      </trkpt>
      <trkpt lat="44.62385" lon="1.55169">
        <ele>307</ele>
        <time>2016-12-25T03:46:22Z</time>
      </trkpt>
      <trkpt lat="44.62427" lon="1.55189">
        <ele>311</ele>
        <time>2016-12-25T03:48:22Z</time>
      </trkpt>
      <trkpt lat="44.62467" lon="1.55197">
        <ele>314</ele>
        <time>2016-12-25T03:50:22Z</time>
      </trkpt>
      <trkpt lat="44.62513" lon="1.55199">
        <ele>316</ele>
        <time>2016-12-25T03:52:22Z</time>
      </trkpt>
      <trkpt lat="44.62551" lon="1.55247">
        <ele>314</ele>
        <time>2016-12-25T03:54:22Z</time>
      </trkpt>
      <trkpt lat="44.62587" lon="1.5526">
        <ele>315</ele>
        <time>2016-12-25T03:56:22Z</time>
      </trkpt>
      <trkpt lat="44.62626" lon="1.55284">
        <ele>322</ele>
        <time>2016-12-25T03:58:22Z</time>
      </trkpt>
      <trkpt lat="44.62706" lon="1.55242">
        <ele>318</ele>
        <time>2016-12-25T04:00:22Z</time>
      </trkpt>
      <trkpt lat="44.62778" lon="1.55232">
        <ele>322</ele>
        <time>2016-12-25T04:02:22Z</time>
      </trkpt>
      <trkpt lat="44.62832" lon="1.5525">
        <ele>322</ele>
        <time>2016-12-25T04:04:22Z</time>
      </trkpt>
      <trkpt lat="44.62871" lon="1.55265">
        <ele>325</ele>
        <time>2016-12-25T04:06:22Z</time>
      </trkpt>
      <trkpt lat="44.62916" lon="1.55264">
        <ele>325</ele>
        <time>2016-12-25T04:08:22Z</time>
      </trkpt>
      <trkpt lat="44.62979" lon="1.55292">
        <ele>330</ele>
        <time>2016-12-25T04:10:22Z</time>
      </trkpt>
      <trkpt lat="44.63008" lon="1.55301">
        <ele>332</ele>
        <time>2016-12-25T04:12:22Z</time>
      </trkpt>
      <trkpt lat="44.63076" lon="1.55366">
        <ele>334</ele>
        <time>2016-12-25T04:14:22Z</time>
      </trkpt>
      <trkpt lat="44.63146" lon="1.55406">
        <ele>336</ele>
        <time>2016-12-25T04:16:22Z</time>
      </trkpt>
      <trkpt lat="44.63171" lon="1.55447">
        <ele>339</ele>
        <time>2016-12-25T04:18:22Z</time>
      </trkpt>
      <trkpt lat="44.63232" lon="1.55502">
        <ele>344</ele>
        <time>2016-12-25T04:20:22Z</time>
      </trkpt>
      <trkpt lat="44.63288" lon="1.5553">
        <ele>350</ele>
        <time>2016-12-25T04:22:22Z</time>
      </trkpt>
      <trkpt lat="44.63327" lon="1.55596">
        <ele>347</ele>
        <time>2016-12-25T04:24:22Z</time>
      </trkpt>
      <trkpt lat="44.63386" lon="1.55633">
        <ele>353</ele>
        <time>2016-12-25T04:26:22Z</time>
      </trkpt>
      <trkpt lat="44.63388" lon="1.55651">
        <ele>354</ele>
        <time>2016-12-25T04:28:22Z</time>
      </trkpt>
      <trkpt lat="44.63388" lon="1.55683">
        <ele>357</ele>
        <time>2016-12-25T04:30:22Z</time>
      </trkpt>
      <trkpt lat="44.63401" lon="1.55736">
        <ele>363</ele>
        <time>2016-12-25T04:32:22Z</time>
      </trkpt>
      <trkpt lat="44.63459" lon="1.55773">
        <ele>371</ele>
        <time>2016-12-25T04:34:22Z</time>
      </trkpt>
      <trkpt lat="44.63508" lon="1.55741">
        <ele>377</ele>
        <time>2016-12-25T04:36:22Z</time>
      </trkpt>
      <trkpt lat="44.63562" lon="1.55731">
        <ele>381</ele>
        <time>2016-12-25T04:38:22Z</time>
      </trkpt>
      <trkpt lat="44.636" lon="1.55778">
        <ele>389</ele>
        <time>2016-12-25T04:40:22Z</time>
      </trkpt>
      <trkpt lat="44.63619" lon="1.55818">
        <ele>393</ele>
        <time>2016-12-25T04:42:22Z</time>
      </trkpt>
      <trkpt lat="44.63658" lon="1.55868">
        <ele>400</ele>
        <time>2016-12-25T04:44:22Z</time>
      </trkpt>
      <trkpt lat="44.63716" lon="1.55937">
        <ele>408</ele>
        <time>2016-12-25T04:46:22Z</time>
      </trkpt>
      <trkpt lat="44.63755" lon="1.56002">
        <ele>414</ele>
        <time>2016-12-25T04:48:22Z</time>
      </trkpt>
      <trkpt lat="44.6378" lon="1.56052">
        <ele>414</ele>
        <time>2016-12-25T04:50:22Z</time>
      </trkpt>
      <trkpt lat="44.63796" lon="1.56074">
        <ele>416</ele>
        <time>2016-12-25T04:52:22Z</time>
      </trkpt>
      <trkpt lat="44.6383" lon="1.56102">
        <ele>419</ele>
        <time>2016-12-25T04:54:22Z</time>
      </trkpt>
      <trkpt lat="44.63911" lon="1.56157">
        <ele>424</ele>
        <time>2016-12-25T04:56:22Z</time>
      </trkpt>
      <trkpt lat="44.63963" lon="1.56195">
        <ele>424</ele>
        <time>2016-12-25T04:58:22Z</time>
      </trkpt>
      <trkpt lat="44.6404" lon="1.56256">
        <ele>430</ele>
        <time>2016-12-25T05:00:22Z</time>
      </trkpt>
      <trkpt lat="44.64103" lon="1.563">
        <ele>431</ele>
        <time>2016-12-25T05:02:22Z</time>
      </trkpt>
      <trkpt lat="44.6416" lon="1.56343">
        <ele>430</ele>
        <time>2016-12-25T05:04:22Z</time>
      </trkpt>
      <trkpt lat="44.64212" lon="1.5638">
        <ele>431</ele>
        <time>2016-12-25T05:06:22Z</time>
      </trkpt>
      <trkpt lat="44.64255" lon="1.56405">
        <ele>434</ele>
        <time>2016-12-25T05:08:22Z</time>
      </trkpt>
      <trkpt lat="44.64291" lon="1.56426">
        <ele>433</ele>
        <time>2016-12-25T05:10:22Z</time>
      </trkpt>
      <trkpt lat="44.64334" lon="1.56457">
        <ele>434</ele>
        <time>2016-12-25T05:12:22Z</time>
      </trkpt>
      <trkpt lat="44.64343" lon="1.56485">
        <ele>433</ele>
        <time>2016-12-25T05:14:22Z</time>
      </trkpt>
      <trkpt lat="44.64362" lon="1.56564">
        <ele>433</ele>
        <time>2016-12-25T05:16:22Z</time>
      </trkpt>
      <trkpt lat="44.64459" lon="1.56673">
        <ele>437</ele>
        <time>2016-12-25T05:18:22Z</time>
      </trkpt>
      <trkpt lat="44.64525" lon="1.56744">
        <ele>443</ele>
        <time>2016-12-25T05:20:22Z</time>
      </trkpt>
      <trkpt lat="44.6459" lon="1.56809">
        <ele>448</ele>
        <time>2016-12-25T05:22:22Z</time>
      </trkpt>
      <trkpt lat="44.64664" lon="1.56884">
        <ele>449</ele>
        <time>2016-12-25T05:24:22Z</time>
      </trkpt>
      <trkpt lat="44.64805" lon="1.56844">
        <ele>446</ele>
        <time>2016-12-25T05:26:22Z</time>
      </trkpt>
      <trkpt lat="44.64877" lon="1.56802">
        <ele>445</ele>
        <time>2016-12-25T05:28:22Z</time>
      </trkpt>
      <trkpt lat="44.64915" lon="1.56785">
        <ele>444</ele>
        <time>2016-12-25T05:30:22Z</time>
      </trkpt>
      <trkpt lat="44.64946" lon="1.56809">
        <ele>441</ele>
        <time>2016-12-25T05:32:22Z</time>
      </trkpt>
      <trkpt lat="44.65006" lon="1.56797">
        <ele>435</ele>
        <time>2016-12-25T05:34:22Z</time>
      </trkpt>
      <trkpt lat="44.65036" lon="1.5681">
        <ele>432</ele>
        <time>2016-12-25T05:36:22Z</time>
      </trkpt>
      <trkpt lat="44.65078" lon="1.56855">
        <ele>429</ele>
        <time>2016-12-25T05:38:22Z</time>
      </trkpt>
      <trkpt lat="44.65108" lon="1.5685">
        <ele>426</ele>
        <time>2016-12-25T05:40:22Z</time>
      </trkpt>
      <trkpt lat="44.65124" lon="1.56925">
        <ele>427</ele>
        <time>2016-12-25T05:42:22Z</time>
      </trkpt>
      <trkpt lat="44.65122" lon="1.57001">
        <ele>429</ele>
        <time>2016-12-25T05:44:22Z</time>
      </trkpt>
      <trkpt lat="44.65105" lon="1.5707">
        <ele>430</ele>
        <time>2016-12-25T05:46:22Z</time>
      </trkpt>
      <trkpt lat="44.65087" lon="1.57121">
        <ele>430</ele>
        <time>2016-12-25T05:48:22Z</time>
      </trkpt>
      <trkpt lat="44.65117" lon="1.57268">
        <ele>431</ele>
        <time>2016-12-25T05:50:22Z</time>
      </trkpt>
      <trkpt lat="44.65086" lon="1.57299">
        <ele>435</ele>
        <time>2016-12-25T05:52:22Z</time>
      </trkpt>
      <trkpt lat="44.65057" lon="1.57373">
        <ele>437</ele>
        <time>2016-12-25T05:54:22Z</time>
      </trkpt>
      <trkpt lat="44.65078" lon="1.57401">
        <ele>436</ele>
        <time>2016-12-25T05:56:22Z</time>
      </trkpt>
      <trkpt lat="44.65085" lon="1.57445">
        <ele>434</ele>
        <time>2016-12-25T05:58:22Z</time>
      </trkpt>
      <trkpt lat="44.65083" lon="1.57493">
        <ele>431</ele>
        <time>2016-12-25T06:00:22Z</time>
      </trkpt>
      <trkpt lat="44.65086" lon="1.57537">
        <ele>431</ele>
        <time>2016-12-25T06:02:22Z</time>
      </trkpt>
      <trkpt lat="44.65095" lon="1.57577">
        <ele>431</ele>
        <time>2016-12-25T06:04:22Z</time>
      </trkpt>
      <trkpt lat="44.65131" lon="1.57627">
        <ele>434</ele>
        <time>2016-12-25T06:06:22Z</time>
      </trkpt>
      <trkpt lat="44.65129" lon="1.57706">
        <ele>439</ele>
        <time>2016-12-25T06:08:22Z</time>
      </trkpt>
      <trkpt lat="44.65146" lon="1.57838">
        <ele>443</ele>
        <time>2016-12-25T06:10:22Z</time>
      </trkpt>
      <trkpt lat="44.65156" lon="1.57898">
        <ele>442</ele>
        <time>2016-12-25T06:12:22Z</time>
      </trkpt>
      <trkpt lat="44.6516" lon="1.57961">
        <ele>442</ele>
        <time>2016-12-25T06:14:22Z</time>
      </trkpt>
      <trkpt lat="44.65165" lon="1.58033">
        <ele>439</ele>
        <time>2016-12-25T06:16:22Z</time>
      </trkpt>
      <trkpt lat="44.65182" lon="1.58096">
        <ele>436</ele>
        <time>2016-12-25T06:18:22Z</time>
      </trkpt>
      <trkpt lat="44.65194" lon="1.58216">
        <ele>433</ele>
        <time>2016-12-25T06:20:22Z</time>
      </trkpt>
      <trkpt lat="44.65203" lon="1.58263">
        <ele>432</ele>
        <time>2016-12-25T06:22:22Z</time>
      </trkpt>
      <trkpt lat="44.65215" lon="1.58329">
        <ele>431</ele>
        <time>2016-12-25T06:24:22Z</time>
      </trkpt>
      <trkpt lat="44.65231" lon="1.58395">
        <ele>432</ele>
        <time>2016-12-25T06:26:22Z</time>
      </trkpt>
      <trkpt lat="44.65227" lon="1.5847">
        <ele>435</ele>
        <time>2016-12-25T06:28:22Z</time>
      </trkpt>
      <trkpt lat="44.65239" lon="1.58568">
        <ele>439</ele>
        <time>2016-12-25T06:30:22Z</time>
      </trkpt>
      <trkpt lat="44.65257" lon="1.58653">
        <ele>443</ele>
        <time>2016-12-25T06:32:22Z</time>
      </trkpt>
      <trkpt lat="44.65262" lon="1.58709">
        <ele>442</ele>
        <time>2016-12-25T06:34:22Z</time>
      </trkpt>
      <trkpt lat="44.65249" lon="1.58791">
        <ele>438</ele>
        <time>2016-12-25T06:36:22Z</time>
      </trkpt>
      <trkpt lat="44.65241" lon="1.58842">
        <ele>433</ele>
        <time>2016-12-25T06:38:22Z</time>
      </trkpt>
      <trkpt lat="44.65266" lon="1.58908">
        <ele>427</ele>
        <time>2016-12-25T06:40:22Z</time>
      </trkpt>
      <trkpt lat="44.65302" lon="1.58973">
        <ele>423</ele>
        <time>2016-12-25T06:42:22Z</time>
      </trkpt>
      <trkpt lat="44.65299" lon="1.59103">
        <ele>421</ele>
        <time>2016-12-25T06:44:22Z</time>
      </trkpt>
      <trkpt lat="44.65299" lon="1.59197">
        <ele>424</ele>
        <time>2016-12-25T06:46:22Z</time>
      </trkpt>
      <trkpt lat="44.65287" lon="1.59348">
        <ele>431</ele>
        <time>2016-12-25T06:48:22Z</time>
      </trkpt>
      <trkpt lat="44.65272" lon="1.59481">
        <ele>434</ele>
        <time>2016-12-25T06:50:22Z</time>
      </trkpt>
      <trkpt lat="44.65288" lon="1.59566">
        <ele>429</ele>
        <time>2016-12-25T06:52:22Z</time>
      </trkpt>
      <trkpt lat="44.65316" lon="1.59657">
        <ele>422</ele>
        <time>2016-12-25T06:54:22Z</time>
      </trkpt>
      <trkpt lat="44.65328" lon="1.59767">
        <ele>418</ele>
        <time>2016-12-25T06:56:22Z</time>
      </trkpt>
      <trkpt lat="44.65335" lon="1.59858">
        <ele>414</ele>
        <time>2016-12-25T06:58:22Z</time>
      </trkpt>
      <trkpt lat="44.65387" lon="1.59936">
        <ele>406</ele>
        <time>2016-12-25T07:00:22Z</time>
      </trkpt>
      <trkpt lat="44.65411" lon="1.60018">
        <ele>402</ele>
        <time>2016-12-25T07:02:22Z</time>
      </trkpt>
      <trkpt lat="44.65429" lon="1.60068">
        <ele>400</ele>
        <time>2016-12-25T07:04:22Z</time>
      </trkpt>
      <trkpt lat="44.65443" lon="1.60128">
        <ele>397</ele>
        <time>2016-12-25T07:06:22Z</time>
      </trkpt>
      <trkpt lat="44.65454" lon="1.60203">
        <ele>395</ele>
        <time>2016-12-25T07:08:22Z</time>
      </trkpt>
      <trkpt lat="44.65457" lon="1.60282">
        <ele>392</ele>
        <time>2016-12-25T07:10:22Z</time>
      </trkpt>
      <trkpt lat="44.65458" lon="1.60335">
        <ele>389</ele>
        <time>2016-12-25T07:12:22Z</time>
      </trkpt>
      <trkpt lat="44.65413" lon="1.60345">
        <ele>389</ele>
        <time>2016-12-25T07:14:22Z</time>
      </trkpt>
      <trkpt lat="44.65368" lon="1.60371">
        <ele>387</ele>
        <time>2016-12-25T07:16:22Z</time>
      </trkpt>
      <trkpt lat="44.65344" lon="1.6046">
        <ele>386</ele>
        <time>2016-12-25T07:18:22Z</time>
      </trkpt>
      <trkpt lat="44.65344" lon="1.60478">
        <ele>386</ele>
        <time>2016-12-25T07:20:22Z</time>
      </trkpt>
      <trkpt lat="44.65365" lon="1.60551">
        <ele>384</ele>
        <time>2016-12-25T07:22:22Z</time>
      </trkpt>
      <trkpt lat="44.65351" lon="1.6057">
        <ele>383</ele>
        <time>2016-12-25T07:24:22Z</time>
      </trkpt>
      <trkpt lat="44.65318" lon="1.60576">
        <ele>381</ele>
        <time>2016-12-25T07:26:22Z</time>
      </trkpt>
      <trkpt lat="44.65304" lon="1.60602">
        <ele>377</ele>
        <time>2016-12-25T07:28:22Z</time>
      </trkpt>
      <trkpt lat="44.65302" lon="1.60665">
        <ele>369</ele>
        <time>2016-12-25T07:30:22Z</time>
      </trkpt>
      <trkpt lat="44.65303" lon="1.60696">
        <ele>367</ele>
        <time>2016-12-25T07:32:22Z</time>
      </trkpt>
      <trkpt lat="44.65287" lon="1.60719">
        <ele>364</ele>
        <time>2016-12-25T07:34:22Z</time>
      </trkpt>
      <trkpt lat="44.65305" lon="1.60775">
        <ele>363</ele>
        <time>2016-12-25T07:36:22Z</time>
      </trkpt>
      <trkpt lat="44.65286" lon="1.60854">
        <ele>360</ele>
        <time>2016-12-25T07:38:22Z</time>
      </trkpt>
      <trkpt lat="44.65293" lon="1.60923">
        <ele>359</ele>
        <time>2016-12-25T07:40:22Z</time>
      </trkpt>
      <trkpt lat="44.65316" lon="1.61008">
        <ele>359</ele>
        <time>2016-12-25T07:42:22Z</time>
      </trkpt>
      <trkpt lat="44.65323" lon="1.61102">
        <ele>355</ele>
        <time>2016-12-25T07:44:22Z</time>
      </trkpt>
      <trkpt lat="44.65333" lon="1.61181">
        <ele>351</ele>
        <time>2016-12-25T07:46:22Z</time>
      </trkpt>
      <trkpt lat="44.65326" lon="1.61216">
        <ele>350</ele>
        <time>2016-12-25T07:48:22Z</time>
      </trkpt>
      <trkpt lat="44.65309" lon="1.61266">
        <ele>351</ele>
        <time>2016-12-25T07:50:22Z</time>
      </trkpt>
      <trkpt lat="44.65304" lon="1.61314">
        <ele>353</ele>
        <time>2016-12-25T07:52:22Z</time>
      </trkpt>
      <trkpt lat="44.65276" lon="1.61365">
        <ele>357</ele>
        <time>2016-12-25T07:54:22Z</time>
      </trkpt>
      <trkpt lat="44.65216" lon="1.61526">
        <ele>362</ele>
        <time>2016-12-25T07:56:22Z</time>
      </trkpt>
      <trkpt lat="44.65205" lon="1.6158">
        <ele>365</ele>
        <time>2016-12-25T07:58:22Z</time>
      </trkpt>
      <trkpt lat="44.65221" lon="1.61642">
        <ele>365</ele>
        <time>2016-12-25T08:00:22Z</time>
      </trkpt>
      <trkpt lat="44.65254" lon="1.61787">
        <ele>357</ele>
        <time>2016-12-25T08:02:22Z</time>
      </trkpt>
      <trkpt lat="44.65207" lon="1.61869">
        <ele>360</ele>
        <time>2016-12-25T08:04:22Z</time>
      </trkpt>
      <trkpt lat="44.65149" lon="1.61987">
        <ele>363</ele>
        <time>2016-12-25T08:06:22Z</time>
      </trkpt>
      <trkpt lat="44.65138" lon="1.62031">
        <ele>364</ele>
        <time>2016-12-25T08:08:22Z</time>
      </trkpt>
      <trkpt lat="44.65141" lon="1.62151">
        <ele>367</ele>
        <time>2016-12-25T08:10:22Z</time>
      </trkpt>
      <trkpt lat="44.65149" lon="1.62248">
        <ele>365</ele>
        <time>2016-12-25T08:12:22Z</time>
      </trkpt>
      <trkpt lat="44.65109" lon="1.62324">
        <ele>359</ele>
        <time>2016-12-25T08:14:22Z</time>
      </trkpt>
      <trkpt lat="44.651" lon="1.62394">
        <ele>357</ele>
        <time>2016-12-25T08:16:22Z</time>
      </trkpt>
      <trkpt lat="44.6509" lon="1.62491">
        <ele>355</ele>
        <time>2016-12-25T08:18:22Z</time>
      </trkpt>
      <trkpt lat="44.65084" lon="1.62633">
        <ele>359</ele>
        <time>2016-12-25T08:20:22Z</time>
      </trkpt>
      <trkpt lat="44.65071" lon="1.62759">
        <ele>357</ele>
        <time>2016-12-25T08:22:22Z</time>
      </trkpt>
      <trkpt lat="44.6508" lon="1.628">
        <ele>360</ele>
        <time>2016-12-25T08:24:22Z</time>
      </trkpt>
      <trkpt lat="44.6507" lon="1.62898">
        <ele>363</ele>
        <time>2016-12-25T08:26:22Z</time>
      </trkpt>
      <trkpt lat="44.65074" lon="1.62948">
        <ele>363</ele>
        <time>2016-12-25T08:28:22Z</time>
      </trkpt>
      <trkpt lat="44.65093" lon="1.63052">
        <ele>363</ele>
        <time>2016-12-25T08:30:22Z</time>
      </trkpt>
      <trkpt lat="44.65121" lon="1.6314">
        <ele>363</ele>
        <time>2016-12-25T08:32:22Z</time>
      </trkpt>
      <trkpt lat="44.65112" lon="1.63225">
        <ele>364</ele>
        <time>2016-12-25T08:34:22Z</time>
      </trkpt>
      <trkpt lat="44.65101" lon="1.63304">
        <ele>365</ele>
        <time>2016-12-25T08:36:22Z</time>
      </trkpt>
      <trkpt lat="44.651" lon="1.63367">
        <ele>365</ele>
        <time>2016-12-25T08:38:22Z</time>
      </trkpt>
      <trkpt lat="44.65122" lon="1.63386">
        <ele>364</ele>
        <time>2016-12-25T08:40:22Z</time>
      </trkpt>
      <trkpt lat="44.65138" lon="1.63426">
        <ele>363</ele>
        <time>2016-12-25T08:42:22Z</time>
      </trkpt>
      <trkpt lat="44.65148" lon="1.63477">
        <ele>361</ele>
        <time>2016-12-25T08:44:22Z</time>
      </trkpt>
      <trkpt lat="44.65126" lon="1.63549">
        <ele>358</ele>
        <time>2016-12-25T08:46:22Z</time>
      </trkpt>
      <trkpt lat="44.65095" lon="1.63629">
        <ele>355</ele>
        <time>2016-12-25T08:48:22Z</time>
      </trkpt>
      <trkpt lat="44.65057" lon="1.63724">
        <ele>354</ele>
        <time>2016-12-25T08:50:22Z</time>
      </trkpt>
      <trkpt lat="44.65046" lon="1.63787">
        <ele>354</ele>
        <time>2016-12-25T08:52:22Z</time>
      </trkpt>
      <trkpt lat="44.6506" lon="1.63843">
        <ele>355</ele>
        <time>2016-12-25T08:54:22Z</time>
      </trkpt>
      <trkpt lat="44.65074" lon="1.63915">
        <ele>355</ele>
        <time>2016-12-25T08:56:22Z</time>
      </trkpt>
      <trkpt lat="44.65079" lon="1.63975">
        <ele>353</ele>
        <time>2016-12-25T08:58:22Z</time>
      </trkpt>
      <trkpt lat="44.65043" lon="1.64076">
        <ele>352</ele>
        <time>2016-12-25T09:00:22Z</time>
      </trkpt>
      <trkpt lat="44.65021" lon="1.6413">
        <ele>353</ele>
        <time>2016-12-25T09:02:22Z</time>
      </trkpt>
      <trkpt lat="44.65065" lon="1.64218">
        <ele>351</ele>
        <time>2016-12-25T09:04:22Z</time>
      </trkpt>
      <trkpt lat="44.65151" lon="1.64305">
        <ele>352</ele>
        <time>2016-12-25T09:06:22Z</time>
      </trkpt>
      <trkpt lat="44.65194" lon="1.64374">
        <ele>352</ele>
        <time>2016-12-25T09:08:22Z</time>
      </trkpt>
      <trkpt lat="44.64955" lon="1.64342">
        <ele>359</ele>
        <time>2016-12-25T09:10:22Z</time>
      </trkpt>
      <trkpt lat="44.64894" lon="1.64315">
        <ele>361</ele>
        <time>2016-12-25T09:12:22Z</time>
      </trkpt>
      <trkpt lat="44.64865" lon="1.6429">
        <ele>362</ele>
        <time>2016-12-25T09:14:22Z</time>
      </trkpt>
      <trkpt lat="44.64793" lon="1.64269">
        <ele>362</ele>
        <time>2016-12-25T09:16:22Z</time>
      </trkpt>
      <trkpt lat="44.64734" lon="1.64241">
        <ele>361</ele>
        <time>2016-12-25T09:18:22Z</time>
      </trkpt>
      <trkpt lat="44.64678" lon="1.64254">
        <ele>359</ele>
        <time>2016-12-25T09:20:22Z</time>
      </trkpt>
      <trkpt lat="44.64617" lon="1.64264">
        <ele>355</ele>
        <time>2016-12-25T09:22:22Z</time>
      </trkpt>
      <trkpt lat="44.64587" lon="1.64268">
        <ele>352</ele>
        <time>2016-12-25T09:24:22Z</time>
      </trkpt>
      <trkpt lat="44.64539" lon="1.64275">
        <ele>350</ele>
        <time>2016-12-25T09:26:22Z</time>
      </trkpt>
      <trkpt lat="44.64469" lon="1.64273">
        <ele>347</ele>
        <time>2016-12-25T09:28:22Z</time>
      </trkpt>
      <trkpt lat="44.64406" lon="1.64258">
        <ele>345</ele>
        <time>2016-12-25T09:30:22Z</time>
      </trkpt>
      <trkpt lat="44.64334" lon="1.64211">
        <ele>344</ele>
        <time>2016-12-25T09:32:22Z</time>
      </trkpt>
      <trkpt lat="44.64248" lon="1.64156">
        <ele>345</ele>
        <time>2016-12-25T09:34:22Z</time>
      </trkpt>
      <trkpt lat="44.64178" lon="1.64125">
        <ele>345</ele>
        <time>2016-12-25T09:36:22Z</time>
      </trkpt>
      <trkpt lat="44.64144" lon="1.64132">
        <ele>344</ele>
        <time>2016-12-25T09:38:22Z</time>
      </trkpt>
      <trkpt lat="44.64079" lon="1.64133">
        <ele>344</ele>
        <time>2016-12-25T09:40:22Z</time>
      </trkpt>
      <trkpt lat="44.63987" lon="1.64131">
        <ele>349</ele>
        <time>2016-12-25T09:42:22Z</time>
      </trkpt>
      <trkpt lat="44.63897" lon="1.6411">
        <ele>362</ele>
        <time>2016-12-25T09:44:22Z</time>
      </trkpt>
      <trkpt lat="44.63816" lon="1.64111">
        <ele>373</ele>
        <time>2016-12-25T09:46:22Z</time>
      </trkpt>
      <trkpt lat="44.63719" lon="1.64129">
        <ele>379</ele>
        <time>2016-12-25T09:48:22Z</time>
      </trkpt>
      <trkpt lat="44.63657" lon="1.6415">
        <ele>382</ele>
        <time>2016-12-25T09:50:22Z</time>
      </trkpt>
      <trkpt lat="44.63584" lon="1.64167">
        <ele>388</ele>
        <time>2016-12-25T09:52:22Z</time>
      </trkpt>
      <trkpt lat="44.63461" lon="1.64165">
        <ele>398</ele>
        <time>2016-12-25T09:54:22Z</time>
      </trkpt>
      <trkpt lat="44.63425" lon="1.64202">
        <ele>397</ele>
        <time>2016-12-25T09:56:22Z</time>
      </trkpt>
      <trkpt lat="44.63394" lon="1.64245">
        <ele>396</ele>
        <time>2016-12-25T09:58:22Z</time>
      </trkpt>
      <trkpt lat="44.63309" lon="1.6423">
        <ele>390</ele>
        <time>2016-12-25T10:00:22Z</time>
      </trkpt>
      <trkpt lat="44.6325" lon="1.64212">
        <ele>384</ele>
        <time>2016-12-25T10:02:22Z</time>
      </trkpt>
      <trkpt lat="44.6321" lon="1.64216">
        <ele>383</ele>
        <time>2016-12-25T10:04:22Z</time>
      </trkpt>
      <trkpt lat="44.63144" lon="1.64195">
        <ele>385</ele>
        <time>2016-12-25T10:06:22Z</time>
      </trkpt>
      <trkpt lat="44.6309" lon="1.64195">
        <ele>391</ele>
        <time>2016-12-25T10:08:22Z</time>
      </trkpt>
      <trkpt lat="44.63025" lon="1.64212">
        <ele>396</ele>
        <time>2016-12-25T10:10:22Z</time>
      </trkpt>
      <trkpt lat="44.6298" lon="1.64219">
        <ele>398</ele>
        <time>2016-12-25T10:12:22Z</time>
      </trkpt>
      <trkpt lat="44.62947" lon="1.64235">
        <ele>397</ele>
        <time>2016-12-25T10:14:22Z</time>
      </trkpt>
      <trkpt lat="44.62879" lon="1.64277">
        <ele>394</ele>
        <time>2016-12-25T10:16:22Z</time>
      </trkpt>
      <trkpt lat="44.62808" lon="1.64331">
        <ele>395</ele>
        <time>2016-12-25T10:18:22Z</time>
      </trkpt>
      <trkpt lat="44.6274" lon="1.64325">
        <ele>395</ele>
        <time>2016-12-25T10:20:22Z</time>
      </trkpt>
      <trkpt lat="44.62677" lon="1.64323">
        <ele>400</ele>
        <time>2016-12-25T10:22:22Z</time>
      </trkpt>
      <trkpt lat="44.62619" lon="1.64295">
        <ele>401</ele>
        <time>2016-12-25T10:24:22Z</time>
      </trkpt>
      <trkpt lat="44.62508" lon="1.64234">
        <ele>404</ele>
        <time>2016-12-25T10:26:22Z</time>
      </trkpt>
      <trkpt lat="44.62479" lon="1.64193">
        <ele>404</ele>
        <time>2016-12-25T10:28:22Z</time>
      </trkpt>
      <trkpt lat="44.62469" lon="1.64146">
        <ele>404</ele>
        <time>2016-12-25T10:30:22Z</time>
      </trkpt>
      <trkpt lat="44.62473" lon="1.64074">
        <ele>404</ele>
        <time>2016-12-25T10:32:22Z</time>
      </trkpt>
      <trkpt lat="44.62477" lon="1.63982">
        <ele>401</ele>
        <time>2016-12-25T10:34:22Z</time>
      </trkpt>
      <trkpt lat="44.62454" lon="1.63885">
        <ele>402</ele>
        <time>2016-12-25T10:36:22Z</time>
      </trkpt>
      <trkpt lat="44.6244" lon="1.63794">
        <ele>405</ele>
        <time>2016-12-25T10:38:22Z</time>
      </trkpt>
      <trkpt lat="44.62466" lon="1.63671">
        <ele>407</ele>
        <time>2016-12-25T10:40:22Z</time>
      </trkpt>
      <trkpt lat="44.62477" lon="1.63645">
        <ele>407</ele>
        <time>2016-12-25T10:42:22Z</time>
      </trkpt>
      <trkpt lat="44.62498" lon="1.63652">
        <ele>406</ele>
        <time>2016-12-25T10:44:22Z</time>
      </trkpt>
      <trkpt lat="44.62545" lon="1.63623">
        <ele>404</ele>
        <time>2016-12-25T10:46:22Z</time>
      </trkpt>
      <trkpt lat="44.62597" lon="1.63641">
        <ele>400</ele>
        <time>2016-12-25T10:48:22Z</time>
      </trkpt>
      <trkpt lat="44.62714" lon="1.63655">
        <ele>398</ele>
        <time>2016-12-25T10:50:22Z</time>
      </trkpt>
      <trkpt lat="44.62749" lon="1.63601">
        <ele>399</ele>
        <time>2016-12-25T10:52:22Z</time>
      </trkpt>
      <trkpt lat="44.62792" lon="1.63594">
        <ele>396</ele>
        <time>2016-12-25T10:54:22Z</time>
      </trkpt>
      <trkpt lat="44.62846" lon="1.63578">
        <ele>391</ele>
        <time>2016-12-25T10:56:22Z</time>
      </trkpt>
      <trkpt lat="44.62882" lon="1.63552">
        <ele>386</ele>
        <time>2016-12-25T10:58:22Z</time>
      </trkpt>
      <trkpt lat="44.62906" lon="1.6353">
        <ele>383</ele>
        <time>2016-12-25T11:00:22Z</time>
      </trkpt>
      <trkpt lat="44.62967" lon="1.63488">
        <ele>376</ele>
        <time>2016-12-25T11:02:22Z</time>
      </trkpt>
      <trkpt lat="44.63018" lon="1.63409">
        <ele>366</ele>
        <time>2016-12-25T11:04:22Z</time>
      </trkpt>
      <trkpt lat="44.63049" lon="1.6333">
        <ele>359</ele>
        <time>2016-12-25T11:06:22Z</time>
      </trkpt>
      <trkpt lat="44.63046" lon="1.63191">
        <ele>355</ele>
        <time>2016-12-25T11:08:22Z</time>
      </trkpt>
      <trkpt lat="44.63086" lon="1.63106">
        <ele>355</ele>
        <time>2016-12-25T11:10:22Z</time>
      </trkpt>
      <trkpt lat="44.63157" lon="1.63032">
        <ele>353</ele>
        <time>2016-12-25T11:12:22Z</time>
      </trkpt>
      <trkpt lat="44.63215" lon="1.62937">
        <ele>353</ele>
        <time>2016-12-25T11:14:22Z</time>
      </trkpt>
      <trkpt lat="44.633" lon="1.62854">
        <ele>359</ele>
        <time>2016-12-25T11:16:22Z</time>
      </trkpt>
      <trkpt lat="44.63311" lon="1.62842">
        <ele>359</ele>
        <time>2016-12-25T11:18:22Z</time>
      </trkpt>
      <trkpt lat="44.63308" lon="1.62788">
        <ele>362</ele>
        <time>2016-12-25T11:20:22Z</time>
      </trkpt>
      <trkpt lat="44.63331" lon="1.62737">
        <ele>364</ele>
        <time>2016-12-25T11:22:22Z</time>
      </trkpt>
      <trkpt lat="44.63335" lon="1.6269">
        <ele>365</ele>
        <time>2016-12-25T11:24:22Z</time>
      </trkpt>
      <trkpt lat="44.63357" lon="1.6263">
        <ele>364</ele>
        <time>2016-12-25T11:26:22Z</time>
      </trkpt>
      <trkpt lat="44.63403" lon="1.62535">
        <ele>362</ele>
        <time>2016-12-25T11:28:22Z</time>
      </trkpt>
      <trkpt lat="44.63428" lon="1.62459">
        <ele>366</ele>
        <time>2016-12-25T11:30:22Z</time>
      </trkpt>
      <trkpt lat="44.63432" lon="1.62396">
        <ele>368</ele>
        <time>2016-12-25T11:32:22Z</time>
      </trkpt>
      <trkpt lat="44.63465" lon="1.62361">
        <ele>367</ele>
        <time>2016-12-25T11:34:22Z</time>
      </trkpt>
      <trkpt lat="44.63508" lon="1.62335">
        <ele>367</ele>
        <time>2016-12-25T11:36:22Z</time>
      </trkpt>
      <trkpt lat="44.6353" lon="1.62256">
        <ele>363</ele>
        <time>2016-12-25T11:38:22Z</time>
      </trkpt>
      <trkpt lat="44.63542" lon="1.62136">
        <ele>363</ele>
        <time>2016-12-25T11:40:22Z</time>
      </trkpt>
      <trkpt lat="44.63601" lon="1.62082">
        <ele>363</ele>
        <time>2016-12-25T11:42:22Z</time>
      </trkpt>
      <trkpt lat="44.63636" lon="1.61978">
        <ele>359</ele>
        <time>2016-12-25T11:44:22Z</time>
      </trkpt>
      <trkpt lat="44.63656" lon="1.61933">
        <ele>358</ele>
        <time>2016-12-25T11:46:22Z</time>
      </trkpt>
      <trkpt lat="44.63671" lon="1.61905">
        <ele>357</ele>
        <time>2016-12-25T11:48:22Z</time>
      </trkpt>
      <trkpt lat="44.63704" lon="1.61791">
        <ele>354</ele>
        <time>2016-12-25T11:50:22Z</time>
      </trkpt>
      <trkpt lat="44.63776" lon="1.61737">
        <ele>355</ele>
        <time>2016-12-25T11:52:22Z</time>
      </trkpt>
      <trkpt lat="44.63755" lon="1.61639">
        <ele>358</ele>
        <time>2016-12-25T11:54:22Z</time>
      </trkpt>
      <trkpt lat="44.6373" lon="1.61599">
        <ele>359</ele>
        <time>2016-12-25T11:56:22Z</time>
      </trkpt>
      <trkpt lat="44.63727" lon="1.61473">
        <ele>365</ele>
        <time>2016-12-25T11:58:22Z</time>
      </trkpt>
      <trkpt lat="44.63724" lon="1.61429">
        <ele>369</ele>
        <time>2016-12-25T12:00:22Z</time>
      </trkpt>
      <trkpt lat="44.63762" lon="1.61334">
        <ele>379</ele>
        <time>2016-12-25T12:02:22Z</time>
      </trkpt>
      <trkpt lat="44.63741" lon="1.61268">
        <ele>386</ele>
        <time>2016-12-25T12:04:22Z</time>
      </trkpt>
      <trkpt lat="44.6371" lon="1.6123">
        <ele>392</ele>
        <time>2016-12-25T12:06:22Z</time>
      </trkpt>
      <trkpt lat="44.6368" lon="1.6118">
        <ele>399</ele>
        <time>2016-12-25T12:08:22Z</time>
      </trkpt>
      <trkpt lat="44.63644" lon="1.61112">
        <ele>407</ele>
        <time>2016-12-25T12:10:22Z</time>
      </trkpt>
      <trkpt lat="44.63627" lon="1.60998">
        <ele>415</ele>
        <time>2016-12-25T12:12:22Z</time>
      </trkpt>
      <trkpt lat="44.63609" lon="1.60926">
        <ele>415</ele>
        <time>2016-12-25T12:14:22Z</time>
      </trkpt>
      <trkpt lat="44.63599" lon="1.60822">
        <ele>413</ele>
        <time>2016-12-25T12:16:22Z</time>
      </trkpt>
      <trkpt lat="44.63596" lon="1.6069">
        <ele>410</ele>
        <time>2016-12-25T12:18:22Z</time>
      </trkpt>
      <trkpt lat="44.63602" lon="1.60555">
        <ele>411</ele>
        <time>2016-12-25T12:20:22Z</time>
      </trkpt>
      <trkpt lat="44.63594" lon="1.60385">
        <ele>416</ele>
        <time>2016-12-25T12:22:22Z</time>
      </trkpt>
      <trkpt lat="44.63587" lon="1.60316">
        <ele>416</ele>
        <time>2016-12-25T12:24:22Z</time>
      </trkpt>
      <trkpt lat="44.63593" lon="1.60253">
        <ele>416</ele>
        <time>2016-12-25T12:26:22Z</time>
      </trkpt>
      <trkpt lat="44.63593" lon="1.60199">
        <ele>417</ele>
        <time>2016-12-25T12:28:22Z</time>
      </trkpt>
      <trkpt lat="44.63576" lon="1.6013">
        <ele>420</ele>
        <time>2016-12-25T12:30:22Z</time>
      </trkpt>
      <trkpt lat="44.6356" lon="1.6002">
        <ele>424</ele>
        <time>2016-12-25T12:32:22Z</time>
      </trkpt>
      <trkpt lat="44.63521" lon="1.59923">
        <ele>430</ele>
        <time>2016-12-25T12:34:22Z</time>
      </trkpt>
      <trkpt lat="44.63541" lon="1.59838">
        <ele>434</ele>
        <time>2016-12-25T12:36:22Z</time>
      </trkpt>
      <trkpt lat="44.63558" lon="1.59733">
        <ele>436</ele>
        <time>2016-12-25T12:38:22Z</time>
      </trkpt>
      <trkpt lat="44.63593" lon="1.59635">
        <ele>437</ele>
        <time>2016-12-25T12:40:22Z</time>
      </trkpt>
      <trkpt lat="44.63622" lon="1.59528">
        <ele>437</ele>
        <time>2016-12-25T12:42:22Z</time>
      </trkpt>
      <trkpt lat="44.63673" lon="1.59398">
        <ele>442</ele>
        <time>2016-12-25T12:44:22Z</time>
      </trkpt>
      <trkpt lat="44.63721" lon="1.59246">
        <ele>437</ele>
        <time>2016-12-25T12:46:22Z</time>
      </trkpt>
      <trkpt lat="44.6373" lon="1.5919">
        <ele>437</ele>
        <time>2016-12-25T12:48:22Z</time>
      </trkpt>
      <trkpt lat="44.63746" lon="1.59185">
        <ele>437</ele>
        <time>2016-12-25T12:50:22Z</time>
      </trkpt>
      <trkpt lat="44.63808" lon="1.59113">
        <ele>437</ele>
        <time>2016-12-25T12:52:22Z</time>
      </trkpt>
      <trkpt lat="44.63839" lon="1.59049">
        <ele>436</ele>
        <time>2016-12-25T12:54:22Z</time>
      </trkpt>
      <trkpt lat="44.63886" lon="1.59008">
        <ele>434</ele>
        <time>2016-12-25T12:56:22Z</time>
      </trkpt>
      <trkpt lat="44.64025" lon="1.59006">
        <ele>431</ele>
        <time>2016-12-25T12:58:22Z</time>
      </trkpt>
      <trkpt lat="44.64027" lon="1.58899">
        <ele>424</ele>
        <time>2016-12-25T13:00:22Z</time>
      </trkpt>
      <trkpt lat="44.6403" lon="1.5876">
        <ele>422</ele>
        <time>2016-12-25T13:02:22Z</time>
      </trkpt>
      <trkpt lat="44.64023" lon="1.58606">
        <ele>423</ele>
        <time>2016-12-25T13:04:22Z</time>
      </trkpt>
      <trkpt lat="44.64013" lon="1.58468">
        <ele>419</ele>
        <time>2016-12-25T13:06:22Z</time>
      </trkpt>
      <trkpt lat="44.64003" lon="1.58364">
        <ele>422</ele>
        <time>2016-12-25T13:08:22Z</time>
      </trkpt>
      <trkpt lat="44.64023" lon="1.58332">
        <ele>423</ele>
        <time>2016-12-25T13:10:22Z</time>
      </trkpt>
      <trkpt lat="44.64036" lon="1.58269">
        <ele>427</ele>
        <time>2016-12-25T13:12:22Z</time>
      </trkpt>
      <trkpt lat="44.63975" lon="1.58232">
        <ele>424</ele>
        <time>2016-12-25T13:14:22Z</time>
      </trkpt>
      <trkpt lat="44.63932" lon="1.58185">
        <ele>416</ele>
        <time>2016-12-25T13:16:22Z</time>
      </trkpt>
      <trkpt lat="44.63932" lon="1.58119">
        <ele>408</ele>
        <time>2016-12-25T13:18:22Z</time>
      </trkpt>
      <trkpt lat="44.63862" lon="1.58095">
        <ele>394</ele>
        <time>2016-12-25T13:20:22Z</time>
      </trkpt>
      <trkpt lat="44.63819" lon="1.58029">
        <ele>381</ele>
        <time>2016-12-25T13:22:22Z</time>
      </trkpt>
      <trkpt lat="44.63708" lon="1.57921">
        <ele>360</ele>
        <time>2016-12-25T13:24:22Z</time>
      </trkpt>
      <trkpt lat="44.63685" lon="1.57937">
        <ele>357</ele>
        <time>2016-12-25T13:26:22Z</time>
      </trkpt>
      <trkpt lat="44.63581" lon="1.57888">
        <ele>354</ele>
        <time>2016-12-25T13:28:22Z</time>
      </trkpt>
      <trkpt lat="44.63547" lon="1.57841">
        <ele>354</ele>
        <time>2016-12-25T13:30:22Z</time>
      </trkpt>
      <trkpt lat="44.63495" lon="1.57801">
        <ele>349</ele>
        <time>2016-12-25T13:32:22Z</time>
      </trkpt>
      <trkpt lat="44.6347" lon="1.57681">
        <ele>354</ele>
        <time>2016-12-25T13:34:22Z</time>
      </trkpt>
      <trkpt lat="44.63451" lon="1.57578">
        <ele>351</ele>
        <time>2016-12-25T13:36:22Z</time>
      </trkpt>
      <trkpt lat="44.63379" lon="1.57541">
        <ele>351</ele>
        <time>2016-12-25T13:38:22Z</time>
      </trkpt>
      <trkpt lat="44.63356" lon="1.57491">
        <ele>350</ele>
        <time>2016-12-25T13:40:22Z</time>
      </trkpt>
      <trkpt lat="44.63311" lon="1.57451">
        <ele>353</ele>
        <time>2016-12-25T13:42:22Z</time>
      </trkpt>
      <trkpt lat="44.63232" lon="1.57378">
        <ele>352</ele>
        <time>2016-12-25T13:44:22Z</time>
      </trkpt>
      <trkpt lat="44.63205" lon="1.57364">
        <ele>351</ele>
        <time>2016-12-25T13:46:22Z</time>
      </trkpt>
      <trkpt lat="44.63165" lon="1.57338">
        <ele>348</ele>
        <time>2016-12-25T13:48:22Z</time>
      </trkpt>
      <trkpt lat="44.63136" lon="1.57332">
        <ele>343</ele>
        <time>2016-12-25T13:50:22Z</time>
      </trkpt>
      <trkpt lat="44.63099" lon="1.57277">
        <ele>343</ele>
        <time>2016-12-25T13:52:22Z</time>
      </trkpt>
      <trkpt lat="44.63073" lon="1.57233">
        <ele>344</ele>
        <time>2016-12-25T13:54:22Z</time>
      </trkpt>
      <trkpt lat="44.63034" lon="1.57185">
        <ele>341</ele>
        <time>2016-12-25T13:56:22Z</time>
      </trkpt>
      <trkpt lat="44.63004" lon="1.57113">
        <ele>339</ele>
        <time>2016-12-25T13:58:22Z</time>
      </trkpt>
      <trkpt lat="44.62949" lon="1.57073">
        <ele>338</ele>
        <time>2016-12-25T14:00:22Z</time>
      </trkpt>
      <trkpt lat="44.62923" lon="1.5702">
        <ele>338</ele>
        <time>2016-12-25T14:02:22Z</time>
      </trkpt>
      <trkpt lat="44.62889" lon="1.56973">
        <ele>336</ele>
        <time>2016-12-25T14:04:22Z</time>
      </trkpt>
      <trkpt lat="44.62869" lon="1.5695">
        <ele>333</ele>
        <time>2016-12-25T14:06:22Z</time>
      </trkpt>
      <trkpt lat="44.62845" lon="1.56689">
        <ele>328</ele>
        <time>2016-12-25T14:08:22Z</time>
      </trkpt>
      <trkpt lat="44.62843" lon="1.56561">
        <ele>325</ele>
        <time>2016-12-25T14:10:22Z</time>
      </trkpt>
      <trkpt lat="44.6287" lon="1.56502">
        <ele>326</ele>
        <time>2016-12-25T14:12:22Z</time>
      </trkpt>
      <trkpt lat="44.62875" lon="1.56432">
        <ele>320</ele>
        <time>2016-12-25T14:14:22Z</time>
      </trkpt>
      <trkpt lat="44.62862" lon="1.56383">
        <ele>318</ele>
        <time>2016-12-25T14:16:22Z</time>
      </trkpt>
      <trkpt lat="44.62867" lon="1.56315">
        <ele>325</ele>
        <time>2016-12-25T14:18:22Z</time>
      </trkpt>
      <trkpt lat="44.62841" lon="1.56276">
        <ele>324</ele>
        <time>2016-12-25T14:20:22Z</time>
      </trkpt>
      <trkpt lat="44.62793" lon="1.56192">
        <ele>320</ele>
        <time>2016-12-25T14:22:22Z</time>
      </trkpt>
      <trkpt lat="44.62744" lon="1.56145">
        <ele>317</ele>
        <time>2016-12-25T14:24:22Z</time>
      </trkpt>
      <trkpt lat="44.6269" lon="1.56121">
        <ele>317</ele>
        <time>2016-12-25T14:26:22Z</time>
      </trkpt>
      <trkpt lat="44.62634" lon="1.56092">
        <ele>314</ele>
        <time>2016-12-25T14:28:22Z</time>
      </trkpt>
      <trkpt lat="44.62518" lon="1.55961">
        <ele>313</ele>
        <time>2016-12-25T14:30:22Z</time>
      </trkpt>
      <trkpt lat="44.62406" lon="1.55878">
        <ele>311</ele>
        <time>2016-12-25T14:32:22Z</time>
      </trkpt>
      <trkpt lat="44.62368" lon="1.55851">
        <ele>309</ele>
        <time>2016-12-25T14:34:22Z</time>
      </trkpt>
      <trkpt lat="44.62306" lon="1.55849">
        <ele>302</ele>
        <time>2016-12-25T14:36:22Z</time>
      </trkpt>
      <trkpt lat="44.62253" lon="1.55803">
        <ele>304</ele>
        <time>2016-12-25T14:38:22Z</time>
      </trkpt>
      <trkpt lat="44.62181" lon="1.55678">
        <ele>307</ele>
        <time>2016-12-25T14:40:22Z</time>
      </trkpt>
      <trkpt lat="44.6214" lon="1.55533">
        <ele>307</ele>
        <time>2016-12-25T14:42:22Z</time>
      </trkpt>
      <trkpt lat="44.62123" lon="1.55458">
        <ele>305</ele>
        <time>2016-12-25T14:44:22Z</time>
      </trkpt>
      <trkpt lat="44.62105" lon="1.5532">
        <ele>300</ele>
        <time>2016-12-25T14:46:22Z</time>
      </trkpt>
      <trkpt lat="44.62078" lon="1.55147">
        <ele>290</ele>
        <time>2016-12-25T14:48:22Z</time>
      </trkpt>
      <trkpt lat="44.62126" lon="1.55123">
        <ele>296</ele>
        <time>2016-12-25T14:50:22Z</time>
      </trkpt>
      <trkpt lat="44.62159" lon="1.55121">
        <ele>299</ele>
        <time>2016-12-25T14:52:22Z</time>
      </trkpt>
      <trkpt lat="44.62184" lon="1.55125">
        <ele>301</ele>
        <time>2016-12-25T14:54:22Z</time>
      </trkpt>
      <trkpt lat="44.62247" lon="1.55148">
        <ele>307</ele>
        <time>2016-12-25T14:56:22Z</time>
      </trkpt>
      <trkpt lat="44.62319" lon="1.55166">
        <ele>305</ele>
        <time>2016-12-25T14:58:22Z</time>
      </trkpt>
      <trkpt lat="44.62381" lon="1.55181">
        <ele>309</ele>
        <time>2016-12-25T15:00:22Z</time>
      </trkpt>
      <trkpt lat="44.62428" lon="1.55203">
        <ele>312</ele>
        <time>2016-12-25T15:02:22Z</time>
      </trkpt>
      <trkpt lat="44.62496" lon="1.55209">
        <ele>315</ele>
        <time>2016-12-25T15:04:22Z</time>
      </trkpt>
      <trkpt lat="44.62533" lon="1.55219">
        <ele>316</ele>
        <time>2016-12-25T15:06:22Z</time>
      </trkpt>
      <trkpt lat="44.62571" lon="1.55231">
        <ele>315</ele>
        <time>2016-12-25T15:08:22Z</time>
      </trkpt>
      <trkpt lat="44.62592" lon="1.55234">
        <ele>315</ele>
        <time>2016-12-25T15:10:22Z</time>
      </trkpt>
      <trkpt lat="44.62628" lon="1.55253">
        <ele>315</ele>
        <time>2016-12-25T15:12:22Z</time>
      </trkpt>
      <trkpt lat="44.62699" lon="1.55217">
        <ele>321</ele>
        <time>2016-12-25T15:14:22Z</time>
      </trkpt>
      <trkpt lat="44.6278" lon="1.55203">
        <ele>324</ele>
        <time>2016-12-25T15:16:22Z</time>
      </trkpt>
      <trkpt lat="44.62834" lon="1.55221">
        <ele>325</ele>
        <time>2016-12-25T15:18:22Z</time>
      </trkpt>
      <trkpt lat="44.62868" lon="1.55237">
        <ele>325</ele>
        <time>2016-12-25T15:20:22Z</time>
      </trkpt>
      <trkpt lat="44.62913" lon="1.55233">
        <ele>328</ele>
        <time>2016-12-25T15:22:22Z</time>
      </trkpt>
      <trkpt lat="44.62983" lon="1.55263">
        <ele>328</ele>
        <time>2016-12-25T15:24:22Z</time>
      </trkpt>
      <trkpt lat="44.63019" lon="1.55276">
        <ele>332</ele>
        <time>2016-12-25T15:26:22Z</time>
      </trkpt>
      <trkpt lat="44.6308" lon="1.55338">
        <ele>331</ele>
        <time>2016-12-25T15:28:22Z</time>
      </trkpt>
      <trkpt lat="44.6315" lon="1.55374">
        <ele>338</ele>
        <time>2016-12-25T15:30:22Z</time>
      </trkpt>
      <trkpt lat="44.63182" lon="1.55424">
        <ele>339</ele>
        <time>2016-12-25T15:32:22Z</time>
      </trkpt>
      <trkpt lat="44.63243" lon="1.55468">
        <ele>347</ele>
        <time>2016-12-25T15:34:22Z</time>
      </trkpt>
      <trkpt lat="44.63306" lon="1.5552">
        <ele>351</ele>
        <time>2016-12-25T15:36:22Z</time>
      </trkpt>
      <trkpt lat="44.63347" lon="1.5557">
        <ele>348</ele>
        <time>2016-12-25T15:38:22Z</time>
      </trkpt>
      <trkpt lat="44.63406" lon="1.55635">
        <ele>354</ele>
        <time>2016-12-25T15:40:22Z</time>
      </trkpt>
      <trkpt lat="44.63409" lon="1.55698">
        <ele>359</ele>
        <time>2016-12-25T15:42:22Z</time>
      </trkpt>
      <trkpt lat="44.63459" lon="1.55739">
        <ele>369</ele>
        <time>2016-12-25T15:44:22Z</time>
      </trkpt>
      <trkpt lat="44.63499" lon="1.55716">
        <ele>372</ele>
        <time>2016-12-25T15:46:22Z</time>
      </trkpt>
      <trkpt lat="44.63564" lon="1.55703">
        <ele>375</ele>
        <time>2016-12-25T15:48:22Z</time>
      </trkpt>
      <trkpt lat="44.63614" lon="1.55755">
        <ele>387</ele>
        <time>2016-12-25T15:50:22Z</time>
      </trkpt>
      <trkpt lat="44.63628" lon="1.55799">
        <ele>392</ele>
        <time>2016-12-25T15:52:22Z</time>
      </trkpt>
      <trkpt lat="44.63693" lon="1.55849">
        <ele>403</ele>
        <time>2016-12-25T15:54:22Z</time>
      </trkpt>
      <trkpt lat="44.63739" lon="1.55927">
        <ele>410</ele>
        <time>2016-12-25T15:56:22Z</time>
      </trkpt>
      <trkpt lat="44.63789" lon="1.56024">
        <ele>416</ele>
        <time>2016-12-25T15:58:22Z</time>
      </trkpt>
      <trkpt lat="44.63816" lon="1.56052">
        <ele>419</ele>
        <time>2016-12-25T16:00:22Z</time>
      </trkpt>
      <trkpt lat="44.63785" lon="1.56099">
        <ele>413</ele>
        <time>2016-12-25T16:02:22Z</time>
      </trkpt>
      <trkpt lat="44.63871" lon="1.56158">
        <ele>420</ele>
        <time>2016-12-25T16:04:22Z</time>
      </trkpt>
      <trkpt lat="44.63954" lon="1.56217">
        <ele>423</ele>
        <time>2016-12-25T16:06:22Z</time>
      </trkpt>
      <trkpt lat="44.64047" lon="1.56294">
        <ele>427</ele>
        <time>2016-12-25T16:08:22Z</time>
      </trkpt>
      <trkpt lat="44.64104" lon="1.56337">
        <ele>428</ele>
        <time>2016-12-25T16:10:22Z</time>
      </trkpt>
      <trkpt lat="44.64167" lon="1.56371">
        <ele>428</ele>
        <time>2016-12-25T16:12:22Z</time>
      </trkpt>
      <trkpt lat="44.64217" lon="1.56408">
        <ele>430</ele>
        <time>2016-12-25T16:14:22Z</time>
      </trkpt>
      <trkpt lat="44.6428" lon="1.56452">
        <ele>431</ele>
        <time>2016-12-25T16:16:22Z</time>
      </trkpt>
      <trkpt lat="44.64305" lon="1.5647">
        <ele>432</ele>
        <time>2016-12-25T16:18:22Z</time>
      </trkpt>
      <trkpt lat="44.64327" lon="1.56476">
        <ele>433</ele>
        <time>2016-12-25T16:20:22Z</time>
      </trkpt>
      <trkpt lat="44.64327" lon="1.56478">
        <ele>433</ele>
        <time>2016-12-25T16:22:22Z</time>
      </trkpt>
    </trkseg>
  </trk>
</gpx>